<?xml version="1.0" encoding="UTF-8" standalone="no" ?>
<gpx xmlns="http://www.topografix.com/GPX/1/1" xmlns:xsi="http://www.w3.org/2001/XMLSchema-instance" xsi:schemaLocation="http://www.topografix.com/GPX/1/1 http://www.topografix.com/GPX/1/1/gpx.xsd" version="1.1" creator="VisuGPX - https://www.visugpx.com">
  <metadata>
    <name>2019-06-06 13:50:07</name>
    <desc><![CDATA[

]]></desc>
  </metadata>
  <trk>
    <name><![CDATA[2019-06-06 13:50:07]]></name>
    <trkseg>
      <trkpt lat="42.43338" lon="-8.64497">
        <ele>18.88</ele>
        <time>2019-06-06T05:09:34Z</time>
      </trkpt>
      <trkpt lat="42.43339" lon="-8.64497">
        <ele>18.88</ele>
        <time>2019-06-06T05:09:35Z</time>
      </trkpt>
      <trkpt lat="42.43351" lon="-8.64497">
        <ele>17.92</ele>
        <time>2019-06-06T05:09:50Z</time>
      </trkpt>
      <trkpt lat="42.43352" lon="-8.64497">
        <ele>17.92</ele>
        <time>2019-06-06T05:09:51Z</time>
      </trkpt>
      <trkpt lat="42.43369" lon="-8.64491">
        <ele>16.96</ele>
        <time>2019-06-06T05:10:08Z</time>
      </trkpt>
      <trkpt lat="42.43393" lon="-8.64488">
        <ele>17.44</ele>
        <time>2019-06-06T05:10:24Z</time>
      </trkpt>
      <trkpt lat="42.43414" lon="-8.64495">
        <ele>16.96</ele>
        <time>2019-06-06T05:10:37Z</time>
      </trkpt>
      <trkpt lat="42.4342" lon="-8.64498">
        <ele>16.96</ele>
        <time>2019-06-06T05:10:44Z</time>
      </trkpt>
      <trkpt lat="42.43429" lon="-8.64504">
        <ele>17.92</ele>
        <time>2019-06-06T05:10:52Z</time>
      </trkpt>
      <trkpt lat="42.43438" lon="-8.64513">
        <ele>17.44</ele>
        <time>2019-06-06T05:11:05Z</time>
      </trkpt>
      <trkpt lat="42.43439" lon="-8.64521">
        <ele>16.96</ele>
        <time>2019-06-06T05:11:16Z</time>
      </trkpt>
      <trkpt lat="42.43438" lon="-8.64527">
        <ele>16.48</ele>
        <time>2019-06-06T05:11:38Z</time>
      </trkpt>
      <trkpt lat="42.43438" lon="-8.64525">
        <ele>16.48</ele>
        <time>2019-06-06T05:12:03Z</time>
      </trkpt>
      <trkpt lat="42.43442" lon="-8.64516">
        <ele>16.48</ele>
        <time>2019-06-06T05:12:30Z</time>
      </trkpt>
      <trkpt lat="42.43442" lon="-8.64513">
        <ele>16.96</ele>
        <time>2019-06-06T05:12:32Z</time>
      </trkpt>
      <trkpt lat="42.43451" lon="-8.64463">
        <ele>16</ele>
        <time>2019-06-06T05:12:55Z</time>
      </trkpt>
      <trkpt lat="42.4347" lon="-8.64442">
        <ele>16.48</ele>
        <time>2019-06-06T05:13:15Z</time>
      </trkpt>
      <trkpt lat="42.43506" lon="-8.64432">
        <ele>16.96</ele>
        <time>2019-06-06T05:13:39Z</time>
      </trkpt>
      <trkpt lat="42.43535" lon="-8.64421">
        <ele>16.96</ele>
        <time>2019-06-06T05:13:59Z</time>
      </trkpt>
      <trkpt lat="42.43437" lon="-8.64529">
        <ele>18.88</ele>
        <time>2019-06-06T05:31:31Z</time>
      </trkpt>
      <trkpt lat="42.43449" lon="-8.64526">
        <ele>18.88</ele>
        <time>2019-06-06T05:31:46Z</time>
      </trkpt>
      <trkpt lat="42.4345" lon="-8.64525">
        <ele>20.32</ele>
        <time>2019-06-06T05:31:48Z</time>
      </trkpt>
      <trkpt lat="42.43451" lon="-8.64523">
        <ele>19.84</ele>
        <time>2019-06-06T05:31:56Z</time>
      </trkpt>
      <trkpt lat="42.43458" lon="-8.64511">
        <ele>19.36</ele>
        <time>2019-06-06T05:32:10Z</time>
      </trkpt>
      <trkpt lat="42.43467" lon="-8.64497">
        <ele>19.36</ele>
        <time>2019-06-06T05:32:23Z</time>
      </trkpt>
      <trkpt lat="42.43469" lon="-8.64491">
        <ele>19.36</ele>
        <time>2019-06-06T05:32:27Z</time>
      </trkpt>
      <trkpt lat="42.4348" lon="-8.64481">
        <ele>18.88</ele>
        <time>2019-06-06T05:32:31Z</time>
      </trkpt>
      <trkpt lat="42.43494" lon="-8.64466">
        <ele>20.32</ele>
        <time>2019-06-06T05:32:45Z</time>
      </trkpt>
      <trkpt lat="42.43496" lon="-8.64465">
        <ele>19.84</ele>
        <time>2019-06-06T05:32:46Z</time>
      </trkpt>
      <trkpt lat="42.43497" lon="-8.6446">
        <ele>20.81</ele>
        <time>2019-06-06T05:32:50Z</time>
      </trkpt>
      <trkpt lat="42.43488" lon="-8.64449">
        <ele>20.32</ele>
        <time>2019-06-06T05:33:03Z</time>
      </trkpt>
      <trkpt lat="42.43498" lon="-8.64438">
        <ele>21.29</ele>
        <time>2019-06-06T05:33:15Z</time>
      </trkpt>
      <trkpt lat="42.435" lon="-8.64438">
        <ele>20.32</ele>
        <time>2019-06-06T05:33:17Z</time>
      </trkpt>
      <trkpt lat="42.4351" lon="-8.64443">
        <ele>21.29</ele>
        <time>2019-06-06T05:33:31Z</time>
      </trkpt>
      <trkpt lat="42.43511" lon="-8.64444">
        <ele>20.81</ele>
        <time>2019-06-06T05:33:34Z</time>
      </trkpt>
      <trkpt lat="42.43524" lon="-8.64434">
        <ele>20.81</ele>
        <time>2019-06-06T05:33:48Z</time>
      </trkpt>
      <trkpt lat="42.4354" lon="-8.64419">
        <ele>21.77</ele>
        <time>2019-06-06T05:34:04Z</time>
      </trkpt>
      <trkpt lat="42.43547" lon="-8.64413">
        <ele>21.29</ele>
        <time>2019-06-06T05:34:21Z</time>
      </trkpt>
      <trkpt lat="42.43554" lon="-8.64407">
        <ele>21.29</ele>
        <time>2019-06-06T05:34:34Z</time>
      </trkpt>
      <trkpt lat="42.43555" lon="-8.64406">
        <ele>21.77</ele>
        <time>2019-06-06T05:34:42Z</time>
      </trkpt>
      <trkpt lat="42.43576" lon="-8.64385">
        <ele>21.29</ele>
        <time>2019-06-06T05:35:00Z</time>
      </trkpt>
      <trkpt lat="42.43593" lon="-8.64366">
        <ele>20.81</ele>
        <time>2019-06-06T05:35:17Z</time>
      </trkpt>
      <trkpt lat="42.43606" lon="-8.64355">
        <ele>20.32</ele>
        <time>2019-06-06T05:35:31Z</time>
      </trkpt>
      <trkpt lat="42.43608" lon="-8.64352">
        <ele>19.36</ele>
        <time>2019-06-06T05:35:39Z</time>
      </trkpt>
      <trkpt lat="42.4361" lon="-8.6435">
        <ele>19.36</ele>
        <time>2019-06-06T05:35:42Z</time>
      </trkpt>
      <trkpt lat="42.43612" lon="-8.64349">
        <ele>19.36</ele>
        <time>2019-06-06T05:35:44Z</time>
      </trkpt>
      <trkpt lat="42.43623" lon="-8.6434">
        <ele>17.92</ele>
        <time>2019-06-06T05:35:55Z</time>
      </trkpt>
      <trkpt lat="42.4363" lon="-8.6433">
        <ele>18.4</ele>
        <time>2019-06-06T05:36:06Z</time>
      </trkpt>
      <trkpt lat="42.43631" lon="-8.64327">
        <ele>17.44</ele>
        <time>2019-06-06T05:36:08Z</time>
      </trkpt>
      <trkpt lat="42.43637" lon="-8.6431">
        <ele>18.4</ele>
        <time>2019-06-06T05:36:22Z</time>
      </trkpt>
      <trkpt lat="42.43642" lon="-8.64308">
        <ele>17.92</ele>
        <time>2019-06-06T05:36:39Z</time>
      </trkpt>
      <trkpt lat="42.43644" lon="-8.64308">
        <ele>17.92</ele>
        <time>2019-06-06T05:36:54Z</time>
      </trkpt>
      <trkpt lat="42.43646" lon="-8.64307">
        <ele>17.92</ele>
        <time>2019-06-06T05:37:08Z</time>
      </trkpt>
      <trkpt lat="42.43647" lon="-8.64309">
        <ele>17.44</ele>
        <time>2019-06-06T05:37:12Z</time>
      </trkpt>
      <trkpt lat="42.43652" lon="-8.64321">
        <ele>17.44</ele>
        <time>2019-06-06T05:37:22Z</time>
      </trkpt>
      <trkpt lat="42.43654" lon="-8.64325">
        <ele>18.4</ele>
        <time>2019-06-06T05:37:29Z</time>
      </trkpt>
      <trkpt lat="42.43658" lon="-8.64325">
        <ele>18.4</ele>
        <time>2019-06-06T05:37:34Z</time>
      </trkpt>
      <trkpt lat="42.43664" lon="-8.6432">
        <ele>17.92</ele>
        <time>2019-06-06T05:37:45Z</time>
      </trkpt>
      <trkpt lat="42.43666" lon="-8.64324">
        <ele>18.4</ele>
        <time>2019-06-06T05:37:54Z</time>
      </trkpt>
      <trkpt lat="42.43673" lon="-8.64336">
        <ele>18.88</ele>
        <time>2019-06-06T05:38:06Z</time>
      </trkpt>
      <trkpt lat="42.43681" lon="-8.64346">
        <ele>18.88</ele>
        <time>2019-06-06T05:38:18Z</time>
      </trkpt>
      <trkpt lat="42.43687" lon="-8.64346">
        <ele>18.88</ele>
        <time>2019-06-06T05:38:25Z</time>
      </trkpt>
      <trkpt lat="42.43704" lon="-8.64333">
        <ele>18.88</ele>
        <time>2019-06-06T05:38:41Z</time>
      </trkpt>
      <trkpt lat="42.43725" lon="-8.64343">
        <ele>20.32</ele>
        <time>2019-06-06T05:38:54Z</time>
      </trkpt>
      <trkpt lat="42.43742" lon="-8.6434">
        <ele>19.84</ele>
        <time>2019-06-06T05:38:58Z</time>
      </trkpt>
      <trkpt lat="42.43755" lon="-8.64333">
        <ele>19.84</ele>
        <time>2019-06-06T05:39:03Z</time>
      </trkpt>
      <trkpt lat="42.43765" lon="-8.64328">
        <ele>20.32</ele>
        <time>2019-06-06T05:39:08Z</time>
      </trkpt>
      <trkpt lat="42.43769" lon="-8.64327">
        <ele>20.32</ele>
        <time>2019-06-06T05:39:11Z</time>
      </trkpt>
      <trkpt lat="42.43778" lon="-8.64321">
        <ele>20.32</ele>
        <time>2019-06-06T05:39:19Z</time>
      </trkpt>
      <trkpt lat="42.43781" lon="-8.6432">
        <ele>20.81</ele>
        <time>2019-06-06T05:39:22Z</time>
      </trkpt>
      <trkpt lat="42.43788" lon="-8.6432">
        <ele>20.81</ele>
        <time>2019-06-06T05:39:34Z</time>
      </trkpt>
      <trkpt lat="42.43793" lon="-8.64312">
        <ele>21.29</ele>
        <time>2019-06-06T05:39:43Z</time>
      </trkpt>
      <trkpt lat="42.43798" lon="-8.64309">
        <ele>21.29</ele>
        <time>2019-06-06T05:39:47Z</time>
      </trkpt>
      <trkpt lat="42.43815" lon="-8.64311">
        <ele>21.77</ele>
        <time>2019-06-06T05:40:02Z</time>
      </trkpt>
      <trkpt lat="42.43817" lon="-8.64311">
        <ele>21.77</ele>
        <time>2019-06-06T05:40:05Z</time>
      </trkpt>
      <trkpt lat="42.43819" lon="-8.64314">
        <ele>21.77</ele>
        <time>2019-06-06T05:40:10Z</time>
      </trkpt>
      <trkpt lat="42.43825" lon="-8.64314">
        <ele>22.73</ele>
        <time>2019-06-06T05:40:20Z</time>
      </trkpt>
      <trkpt lat="42.43827" lon="-8.64312">
        <ele>22.25</ele>
        <time>2019-06-06T05:40:23Z</time>
      </trkpt>
      <trkpt lat="42.43832" lon="-8.64309">
        <ele>22.73</ele>
        <time>2019-06-06T05:40:27Z</time>
      </trkpt>
      <trkpt lat="42.43857" lon="-8.64301">
        <ele>23.21</ele>
        <time>2019-06-06T05:40:42Z</time>
      </trkpt>
      <trkpt lat="42.43866" lon="-8.64297">
        <ele>22.73</ele>
        <time>2019-06-06T05:40:46Z</time>
      </trkpt>
      <trkpt lat="42.43876" lon="-8.6429">
        <ele>22.73</ele>
        <time>2019-06-06T05:40:55Z</time>
      </trkpt>
      <trkpt lat="42.43881" lon="-8.64285">
        <ele>22.73</ele>
        <time>2019-06-06T05:40:58Z</time>
      </trkpt>
      <trkpt lat="42.43885" lon="-8.64286">
        <ele>23.69</ele>
        <time>2019-06-06T05:41:09Z</time>
      </trkpt>
      <trkpt lat="42.439" lon="-8.64279">
        <ele>23.21</ele>
        <time>2019-06-06T05:41:21Z</time>
      </trkpt>
      <trkpt lat="42.43905" lon="-8.64274">
        <ele>21.29</ele>
        <time>2019-06-06T05:41:27Z</time>
      </trkpt>
      <trkpt lat="42.43905" lon="-8.64274">
        <ele>26.09</ele>
        <time>2019-06-06T05:41:28Z</time>
      </trkpt>
      <trkpt lat="42.43906" lon="-8.64273">
        <ele>23.69</ele>
        <time>2019-06-06T05:41:29Z</time>
      </trkpt>
      <trkpt lat="42.43912" lon="-8.64268">
        <ele>23.69</ele>
        <time>2019-06-06T05:41:45Z</time>
      </trkpt>
      <trkpt lat="42.43919" lon="-8.64266">
        <ele>22.73</ele>
        <time>2019-06-06T05:41:54Z</time>
      </trkpt>
      <trkpt lat="42.4392" lon="-8.64273">
        <ele>23.21</ele>
        <time>2019-06-06T05:42:21Z</time>
      </trkpt>
      <trkpt lat="42.4393" lon="-8.64274">
        <ele>23.21</ele>
        <time>2019-06-06T05:42:51Z</time>
      </trkpt>
      <trkpt lat="42.43931" lon="-8.64271">
        <ele>23.21</ele>
        <time>2019-06-06T05:43:19Z</time>
      </trkpt>
      <trkpt lat="42.43931" lon="-8.64277">
        <ele>23.69</ele>
        <time>2019-06-06T05:43:42Z</time>
      </trkpt>
      <trkpt lat="42.43931" lon="-8.64273">
        <ele>23.69</ele>
        <time>2019-06-06T05:44:06Z</time>
      </trkpt>
      <trkpt lat="42.43932" lon="-8.64274">
        <ele>23.21</ele>
        <time>2019-06-06T05:44:36Z</time>
      </trkpt>
      <trkpt lat="42.43932" lon="-8.64273">
        <ele>24.65</ele>
        <time>2019-06-06T05:44:57Z</time>
      </trkpt>
      <trkpt lat="42.43934" lon="-8.64271">
        <ele>24.65</ele>
        <time>2019-06-06T05:45:08Z</time>
      </trkpt>
      <trkpt lat="42.43934" lon="-8.64271">
        <ele>23.69</ele>
        <time>2019-06-06T05:45:23Z</time>
      </trkpt>
      <trkpt lat="42.43933" lon="-8.64269">
        <ele>27.05</ele>
        <time>2019-06-06T05:45:28Z</time>
      </trkpt>
      <trkpt lat="42.43933" lon="-8.64269">
        <ele>27.05</ele>
        <time>2019-06-06T05:45:29Z</time>
      </trkpt>
      <trkpt lat="42.43933" lon="-8.64269">
        <ele>24.65</ele>
        <time>2019-06-06T05:45:30Z</time>
      </trkpt>
      <trkpt lat="42.43929" lon="-8.64268">
        <ele>24.65</ele>
        <time>2019-06-06T05:45:49Z</time>
      </trkpt>
      <trkpt lat="42.4393" lon="-8.6427">
        <ele>25.13</ele>
        <time>2019-06-06T05:46:07Z</time>
      </trkpt>
      <trkpt lat="42.43932" lon="-8.64266">
        <ele>25.13</ele>
        <time>2019-06-06T05:46:20Z</time>
      </trkpt>
      <trkpt lat="42.43933" lon="-8.64267">
        <ele>25.13</ele>
        <time>2019-06-06T05:46:41Z</time>
      </trkpt>
      <trkpt lat="42.43936" lon="-8.64264">
        <ele>25.13</ele>
        <time>2019-06-06T05:47:04Z</time>
      </trkpt>
      <trkpt lat="42.43936" lon="-8.64265">
        <ele>24.65</ele>
        <time>2019-06-06T05:47:14Z</time>
      </trkpt>
      <trkpt lat="42.43937" lon="-8.64265">
        <ele>25.13</ele>
        <time>2019-06-06T05:47:15Z</time>
      </trkpt>
      <trkpt lat="42.43938" lon="-8.64265">
        <ele>24.65</ele>
        <time>2019-06-06T05:47:16Z</time>
      </trkpt>
      <trkpt lat="42.43939" lon="-8.64266">
        <ele>24.65</ele>
        <time>2019-06-06T05:47:17Z</time>
      </trkpt>
      <trkpt lat="42.43943" lon="-8.64267">
        <ele>24.65</ele>
        <time>2019-06-06T05:47:20Z</time>
      </trkpt>
      <trkpt lat="42.43948" lon="-8.64272">
        <ele>24.65</ele>
        <time>2019-06-06T05:47:24Z</time>
      </trkpt>
      <trkpt lat="42.43946" lon="-8.64266">
        <ele>24.65</ele>
        <time>2019-06-06T05:47:28Z</time>
      </trkpt>
      <trkpt lat="42.43956" lon="-8.64264">
        <ele>24.65</ele>
        <time>2019-06-06T05:47:40Z</time>
      </trkpt>
      <trkpt lat="42.43972" lon="-8.64259">
        <ele>25.61</ele>
        <time>2019-06-06T05:47:53Z</time>
      </trkpt>
      <trkpt lat="42.43982" lon="-8.64254">
        <ele>25.61</ele>
        <time>2019-06-06T05:48:01Z</time>
      </trkpt>
      <trkpt lat="42.43991" lon="-8.64248">
        <ele>25.13</ele>
        <time>2019-06-06T05:48:10Z</time>
      </trkpt>
      <trkpt lat="42.43994" lon="-8.64246">
        <ele>26.09</ele>
        <time>2019-06-06T05:48:13Z</time>
      </trkpt>
      <trkpt lat="42.43995" lon="-8.64245">
        <ele>26.09</ele>
        <time>2019-06-06T05:48:14Z</time>
      </trkpt>
      <trkpt lat="42.44" lon="-8.64244">
        <ele>26.09</ele>
        <time>2019-06-06T05:48:19Z</time>
      </trkpt>
      <trkpt lat="42.44003" lon="-8.64247">
        <ele>26.09</ele>
        <time>2019-06-06T05:48:22Z</time>
      </trkpt>
      <trkpt lat="42.44008" lon="-8.64246">
        <ele>26.57</ele>
        <time>2019-06-06T05:48:27Z</time>
      </trkpt>
      <trkpt lat="42.4401" lon="-8.64245">
        <ele>26.09</ele>
        <time>2019-06-06T05:48:29Z</time>
      </trkpt>
      <trkpt lat="42.44018" lon="-8.64241">
        <ele>25.61</ele>
        <time>2019-06-06T05:48:36Z</time>
      </trkpt>
      <trkpt lat="42.44025" lon="-8.6424">
        <ele>26.57</ele>
        <time>2019-06-06T05:48:43Z</time>
      </trkpt>
      <trkpt lat="42.44032" lon="-8.64245">
        <ele>27.05</ele>
        <time>2019-06-06T05:48:50Z</time>
      </trkpt>
      <trkpt lat="42.44036" lon="-8.64248">
        <ele>27.05</ele>
        <time>2019-06-06T05:48:53Z</time>
      </trkpt>
      <trkpt lat="42.44046" lon="-8.64248">
        <ele>27.53</ele>
        <time>2019-06-06T05:48:58Z</time>
      </trkpt>
      <trkpt lat="42.44048" lon="-8.64247">
        <ele>27.05</ele>
        <time>2019-06-06T05:48:59Z</time>
      </trkpt>
      <trkpt lat="42.4405" lon="-8.64247">
        <ele>27.53</ele>
        <time>2019-06-06T05:49:00Z</time>
      </trkpt>
      <trkpt lat="42.44066" lon="-8.64264">
        <ele>27.53</ele>
        <time>2019-06-06T05:49:14Z</time>
      </trkpt>
      <trkpt lat="42.44068" lon="-8.64264">
        <ele>27.53</ele>
        <time>2019-06-06T05:49:15Z</time>
      </trkpt>
      <trkpt lat="42.44076" lon="-8.64274">
        <ele>28.02</ele>
        <time>2019-06-06T05:49:27Z</time>
      </trkpt>
      <trkpt lat="42.44087" lon="-8.64276">
        <ele>28.5</ele>
        <time>2019-06-06T05:49:38Z</time>
      </trkpt>
      <trkpt lat="42.441" lon="-8.64288">
        <ele>28.98</ele>
        <time>2019-06-06T05:49:50Z</time>
      </trkpt>
      <trkpt lat="42.44114" lon="-8.64295">
        <ele>28.5</ele>
        <time>2019-06-06T05:49:59Z</time>
      </trkpt>
      <trkpt lat="42.4412" lon="-8.64297">
        <ele>28.02</ele>
        <time>2019-06-06T05:50:06Z</time>
      </trkpt>
      <trkpt lat="42.4413" lon="-8.64299">
        <ele>27.53</ele>
        <time>2019-06-06T05:50:18Z</time>
      </trkpt>
      <trkpt lat="42.44142" lon="-8.64301">
        <ele>27.53</ele>
        <time>2019-06-06T05:50:29Z</time>
      </trkpt>
      <trkpt lat="42.4415" lon="-8.64301">
        <ele>27.53</ele>
        <time>2019-06-06T05:50:38Z</time>
      </trkpt>
      <trkpt lat="42.44163" lon="-8.64305">
        <ele>27.53</ele>
        <time>2019-06-06T05:50:51Z</time>
      </trkpt>
      <trkpt lat="42.44181" lon="-8.64302">
        <ele>27.53</ele>
        <time>2019-06-06T05:50:59Z</time>
      </trkpt>
      <trkpt lat="42.44201" lon="-8.64303">
        <ele>27.05</ele>
        <time>2019-06-06T05:51:12Z</time>
      </trkpt>
      <trkpt lat="42.44203" lon="-8.64302">
        <ele>28.02</ele>
        <time>2019-06-06T05:51:13Z</time>
      </trkpt>
      <trkpt lat="42.44216" lon="-8.64305">
        <ele>27.05</ele>
        <time>2019-06-06T05:51:26Z</time>
      </trkpt>
      <trkpt lat="42.4423" lon="-8.64311">
        <ele>26.57</ele>
        <time>2019-06-06T05:51:40Z</time>
      </trkpt>
      <trkpt lat="42.44249" lon="-8.64315">
        <ele>25.61</ele>
        <time>2019-06-06T05:51:52Z</time>
      </trkpt>
      <trkpt lat="42.44259" lon="-8.64319">
        <ele>24.65</ele>
        <time>2019-06-06T05:51:59Z</time>
      </trkpt>
      <trkpt lat="42.44273" lon="-8.64321">
        <ele>23.69</ele>
        <time>2019-06-06T05:52:09Z</time>
      </trkpt>
      <trkpt lat="42.44285" lon="-8.64325">
        <ele>23.21</ele>
        <time>2019-06-06T05:52:19Z</time>
      </trkpt>
      <trkpt lat="42.44295" lon="-8.64328">
        <ele>22.25</ele>
        <time>2019-06-06T05:52:27Z</time>
      </trkpt>
      <trkpt lat="42.443" lon="-8.6433">
        <ele>21.77</ele>
        <time>2019-06-06T05:52:31Z</time>
      </trkpt>
      <trkpt lat="42.44318" lon="-8.64337">
        <ele>21.29</ele>
        <time>2019-06-06T05:52:46Z</time>
      </trkpt>
      <trkpt lat="42.44333" lon="-8.64344">
        <ele>20.32</ele>
        <time>2019-06-06T05:53:00Z</time>
      </trkpt>
      <trkpt lat="42.44344" lon="-8.64346">
        <ele>19.84</ele>
        <time>2019-06-06T05:53:10Z</time>
      </trkpt>
      <trkpt lat="42.44361" lon="-8.64349">
        <ele>19.36</ele>
        <time>2019-06-06T05:53:23Z</time>
      </trkpt>
      <trkpt lat="42.44374" lon="-8.64355">
        <ele>18.4</ele>
        <time>2019-06-06T05:53:35Z</time>
      </trkpt>
      <trkpt lat="42.44392" lon="-8.64362">
        <ele>17.92</ele>
        <time>2019-06-06T05:53:49Z</time>
      </trkpt>
      <trkpt lat="42.4441" lon="-8.64353">
        <ele>17.44</ele>
        <time>2019-06-06T05:54:04Z</time>
      </trkpt>
      <trkpt lat="42.44414" lon="-8.64349">
        <ele>16.96</ele>
        <time>2019-06-06T05:54:09Z</time>
      </trkpt>
      <trkpt lat="42.44432" lon="-8.64345">
        <ele>17.44</ele>
        <time>2019-06-06T05:54:23Z</time>
      </trkpt>
      <trkpt lat="42.44441" lon="-8.64339">
        <ele>17.44</ele>
        <time>2019-06-06T05:54:31Z</time>
      </trkpt>
      <trkpt lat="42.44462" lon="-8.64337">
        <ele>17.92</ele>
        <time>2019-06-06T05:54:48Z</time>
      </trkpt>
      <trkpt lat="42.44471" lon="-8.64332">
        <ele>17.92</ele>
        <time>2019-06-06T05:54:57Z</time>
      </trkpt>
      <trkpt lat="42.44482" lon="-8.64326">
        <ele>18.4</ele>
        <time>2019-06-06T05:55:09Z</time>
      </trkpt>
      <trkpt lat="42.44497" lon="-8.64315">
        <ele>18.88</ele>
        <time>2019-06-06T05:55:24Z</time>
      </trkpt>
      <trkpt lat="42.44512" lon="-8.64306">
        <ele>20.81</ele>
        <time>2019-06-06T05:55:39Z</time>
      </trkpt>
      <trkpt lat="42.44527" lon="-8.64297">
        <ele>21.29</ele>
        <time>2019-06-06T05:55:52Z</time>
      </trkpt>
      <trkpt lat="42.44541" lon="-8.6429">
        <ele>22.25</ele>
        <time>2019-06-06T05:56:04Z</time>
      </trkpt>
      <trkpt lat="42.44559" lon="-8.64286">
        <ele>22.73</ele>
        <time>2019-06-06T05:56:18Z</time>
      </trkpt>
      <trkpt lat="42.44579" lon="-8.64281">
        <ele>24.17</ele>
        <time>2019-06-06T05:56:34Z</time>
      </trkpt>
      <trkpt lat="42.44595" lon="-8.64277">
        <ele>24.65</ele>
        <time>2019-06-06T05:56:47Z</time>
      </trkpt>
      <trkpt lat="42.44603" lon="-8.64275">
        <ele>25.13</ele>
        <time>2019-06-06T05:56:54Z</time>
      </trkpt>
      <trkpt lat="42.44622" lon="-8.64271">
        <ele>24.65</ele>
        <time>2019-06-06T05:57:11Z</time>
      </trkpt>
      <trkpt lat="42.44635" lon="-8.64271">
        <ele>25.13</ele>
        <time>2019-06-06T05:57:23Z</time>
      </trkpt>
      <trkpt lat="42.44645" lon="-8.64274">
        <ele>25.13</ele>
        <time>2019-06-06T05:57:34Z</time>
      </trkpt>
      <trkpt lat="42.4465" lon="-8.64274">
        <ele>25.13</ele>
        <time>2019-06-06T05:57:37Z</time>
      </trkpt>
      <trkpt lat="42.4467" lon="-8.64279">
        <ele>25.13</ele>
        <time>2019-06-06T05:57:51Z</time>
      </trkpt>
      <trkpt lat="42.44689" lon="-8.64282">
        <ele>26.09</ele>
        <time>2019-06-06T05:58:05Z</time>
      </trkpt>
      <trkpt lat="42.44706" lon="-8.64281">
        <ele>26.57</ele>
        <time>2019-06-06T05:58:17Z</time>
      </trkpt>
      <trkpt lat="42.44723" lon="-8.64284">
        <ele>27.05</ele>
        <time>2019-06-06T05:58:32Z</time>
      </trkpt>
      <trkpt lat="42.44739" lon="-8.64287">
        <ele>27.05</ele>
        <time>2019-06-06T05:58:46Z</time>
      </trkpt>
      <trkpt lat="42.44759" lon="-8.64288">
        <ele>27.53</ele>
        <time>2019-06-06T05:59:03Z</time>
      </trkpt>
      <trkpt lat="42.44774" lon="-8.64288">
        <ele>26.09</ele>
        <time>2019-06-06T05:59:16Z</time>
      </trkpt>
      <trkpt lat="42.44791" lon="-8.64282">
        <ele>25.13</ele>
        <time>2019-06-06T05:59:29Z</time>
      </trkpt>
      <trkpt lat="42.44806" lon="-8.64274">
        <ele>23.21</ele>
        <time>2019-06-06T05:59:43Z</time>
      </trkpt>
      <trkpt lat="42.4482" lon="-8.64262">
        <ele>21.77</ele>
        <time>2019-06-06T05:59:57Z</time>
      </trkpt>
      <trkpt lat="42.44836" lon="-8.6425">
        <ele>20.32</ele>
        <time>2019-06-06T06:00:12Z</time>
      </trkpt>
      <trkpt lat="42.44854" lon="-8.64238">
        <ele>18.88</ele>
        <time>2019-06-06T06:00:26Z</time>
      </trkpt>
      <trkpt lat="42.44861" lon="-8.64234">
        <ele>18.88</ele>
        <time>2019-06-06T06:00:33Z</time>
      </trkpt>
      <trkpt lat="42.44877" lon="-8.64224">
        <ele>17.92</ele>
        <time>2019-06-06T06:00:46Z</time>
      </trkpt>
      <trkpt lat="42.44896" lon="-8.64218">
        <ele>16.48</ele>
        <time>2019-06-06T06:01:00Z</time>
      </trkpt>
      <trkpt lat="42.44909" lon="-8.64212">
        <ele>15.52</ele>
        <time>2019-06-06T06:01:11Z</time>
      </trkpt>
      <trkpt lat="42.44912" lon="-8.64211">
        <ele>15.52</ele>
        <time>2019-06-06T06:01:13Z</time>
      </trkpt>
      <trkpt lat="42.44914" lon="-8.6421">
        <ele>16</ele>
        <time>2019-06-06T06:01:15Z</time>
      </trkpt>
      <trkpt lat="42.44928" lon="-8.64207">
        <ele>15.04</ele>
        <time>2019-06-06T06:01:27Z</time>
      </trkpt>
      <trkpt lat="42.44943" lon="-8.64204">
        <ele>15.04</ele>
        <time>2019-06-06T06:01:41Z</time>
      </trkpt>
      <trkpt lat="42.44948" lon="-8.64204">
        <ele>15.04</ele>
        <time>2019-06-06T06:01:46Z</time>
      </trkpt>
      <trkpt lat="42.44951" lon="-8.64203">
        <ele>15.04</ele>
        <time>2019-06-06T06:01:48Z</time>
      </trkpt>
      <trkpt lat="42.44974" lon="-8.64196">
        <ele>14.56</ele>
        <time>2019-06-06T06:02:04Z</time>
      </trkpt>
      <trkpt lat="42.44987" lon="-8.64193">
        <ele>14.56</ele>
        <time>2019-06-06T06:02:17Z</time>
      </trkpt>
      <trkpt lat="42.45006" lon="-8.64185">
        <ele>14.56</ele>
        <time>2019-06-06T06:02:34Z</time>
      </trkpt>
      <trkpt lat="42.45022" lon="-8.64181">
        <ele>14.56</ele>
        <time>2019-06-06T06:02:46Z</time>
      </trkpt>
      <trkpt lat="42.45039" lon="-8.64179">
        <ele>14.56</ele>
        <time>2019-06-06T06:03:00Z</time>
      </trkpt>
      <trkpt lat="42.45052" lon="-8.64177">
        <ele>14.56</ele>
        <time>2019-06-06T06:03:10Z</time>
      </trkpt>
      <trkpt lat="42.45069" lon="-8.64171">
        <ele>15.52</ele>
        <time>2019-06-06T06:03:25Z</time>
      </trkpt>
      <trkpt lat="42.45084" lon="-8.64163">
        <ele>15.04</ele>
        <time>2019-06-06T06:03:38Z</time>
      </trkpt>
      <trkpt lat="42.451" lon="-8.64157">
        <ele>14.56</ele>
        <time>2019-06-06T06:03:51Z</time>
      </trkpt>
      <trkpt lat="42.45122" lon="-8.64151">
        <ele>14.08</ele>
        <time>2019-06-06T06:04:07Z</time>
      </trkpt>
      <trkpt lat="42.45126" lon="-8.6415">
        <ele>14.08</ele>
        <time>2019-06-06T06:04:10Z</time>
      </trkpt>
      <trkpt lat="42.45137" lon="-8.64153">
        <ele>14.56</ele>
        <time>2019-06-06T06:04:20Z</time>
      </trkpt>
      <trkpt lat="42.45151" lon="-8.6415">
        <ele>14.56</ele>
        <time>2019-06-06T06:04:32Z</time>
      </trkpt>
      <trkpt lat="42.4517" lon="-8.64148">
        <ele>14.56</ele>
        <time>2019-06-06T06:04:45Z</time>
      </trkpt>
      <trkpt lat="42.45186" lon="-8.6415">
        <ele>15.52</ele>
        <time>2019-06-06T06:04:59Z</time>
      </trkpt>
      <trkpt lat="42.45202" lon="-8.64161">
        <ele>15.52</ele>
        <time>2019-06-06T06:05:14Z</time>
      </trkpt>
      <trkpt lat="42.45219" lon="-8.64169">
        <ele>15.52</ele>
        <time>2019-06-06T06:05:28Z</time>
      </trkpt>
      <trkpt lat="42.45234" lon="-8.64171">
        <ele>14.56</ele>
        <time>2019-06-06T06:05:40Z</time>
      </trkpt>
      <trkpt lat="42.4525" lon="-8.64176">
        <ele>16</ele>
        <time>2019-06-06T06:05:54Z</time>
      </trkpt>
      <trkpt lat="42.45257" lon="-8.64181">
        <ele>15.52</ele>
        <time>2019-06-06T06:06:02Z</time>
      </trkpt>
      <trkpt lat="42.45274" lon="-8.64188">
        <ele>16</ele>
        <time>2019-06-06T06:06:17Z</time>
      </trkpt>
      <trkpt lat="42.45286" lon="-8.64197">
        <ele>15.52</ele>
        <time>2019-06-06T06:06:30Z</time>
      </trkpt>
      <trkpt lat="42.45303" lon="-8.64206">
        <ele>16</ele>
        <time>2019-06-06T06:06:43Z</time>
      </trkpt>
      <trkpt lat="42.45318" lon="-8.64217">
        <ele>16.48</ele>
        <time>2019-06-06T06:06:57Z</time>
      </trkpt>
      <trkpt lat="42.45335" lon="-8.64231">
        <ele>15.52</ele>
        <time>2019-06-06T06:07:12Z</time>
      </trkpt>
      <trkpt lat="42.45343" lon="-8.64234">
        <ele>16</ele>
        <time>2019-06-06T06:07:17Z</time>
      </trkpt>
      <trkpt lat="42.45358" lon="-8.64245">
        <ele>16.96</ele>
        <time>2019-06-06T06:07:31Z</time>
      </trkpt>
      <trkpt lat="42.45363" lon="-8.64248">
        <ele>16.48</ele>
        <time>2019-06-06T06:07:36Z</time>
      </trkpt>
      <trkpt lat="42.45379" lon="-8.64261">
        <ele>16.48</ele>
        <time>2019-06-06T06:07:50Z</time>
      </trkpt>
      <trkpt lat="42.45397" lon="-8.64273">
        <ele>16.48</ele>
        <time>2019-06-06T06:08:06Z</time>
      </trkpt>
      <trkpt lat="42.45418" lon="-8.64282">
        <ele>16.48</ele>
        <time>2019-06-06T06:08:23Z</time>
      </trkpt>
      <trkpt lat="42.45424" lon="-8.64287">
        <ele>16.48</ele>
        <time>2019-06-06T06:08:28Z</time>
      </trkpt>
      <trkpt lat="42.45441" lon="-8.64298">
        <ele>16.96</ele>
        <time>2019-06-06T06:08:43Z</time>
      </trkpt>
      <trkpt lat="42.45456" lon="-8.64311">
        <ele>16</ele>
        <time>2019-06-06T06:08:57Z</time>
      </trkpt>
      <trkpt lat="42.45475" lon="-8.64322">
        <ele>15.52</ele>
        <time>2019-06-06T06:09:13Z</time>
      </trkpt>
      <trkpt lat="42.45488" lon="-8.64332">
        <ele>16</ele>
        <time>2019-06-06T06:09:26Z</time>
      </trkpt>
      <trkpt lat="42.45502" lon="-8.6434">
        <ele>16</ele>
        <time>2019-06-06T06:09:39Z</time>
      </trkpt>
      <trkpt lat="42.4552" lon="-8.64349">
        <ele>15.52</ele>
        <time>2019-06-06T06:09:53Z</time>
      </trkpt>
      <trkpt lat="42.45536" lon="-8.64361">
        <ele>15.52</ele>
        <time>2019-06-06T06:10:07Z</time>
      </trkpt>
      <trkpt lat="42.45541" lon="-8.64364">
        <ele>15.04</ele>
        <time>2019-06-06T06:10:11Z</time>
      </trkpt>
      <trkpt lat="42.45555" lon="-8.64375">
        <ele>15.52</ele>
        <time>2019-06-06T06:10:24Z</time>
      </trkpt>
      <trkpt lat="42.45566" lon="-8.64381">
        <ele>15.04</ele>
        <time>2019-06-06T06:10:34Z</time>
      </trkpt>
      <trkpt lat="42.45584" lon="-8.64387">
        <ele>14.56</ele>
        <time>2019-06-06T06:10:49Z</time>
      </trkpt>
      <trkpt lat="42.456" lon="-8.64388">
        <ele>15.04</ele>
        <time>2019-06-06T06:11:03Z</time>
      </trkpt>
      <trkpt lat="42.45612" lon="-8.64393">
        <ele>15.04</ele>
        <time>2019-06-06T06:11:14Z</time>
      </trkpt>
      <trkpt lat="42.45631" lon="-8.64405">
        <ele>15.52</ele>
        <time>2019-06-06T06:11:30Z</time>
      </trkpt>
      <trkpt lat="42.45633" lon="-8.64405">
        <ele>15.04</ele>
        <time>2019-06-06T06:11:32Z</time>
      </trkpt>
      <trkpt lat="42.45649" lon="-8.64418">
        <ele>15.04</ele>
        <time>2019-06-06T06:11:46Z</time>
      </trkpt>
      <trkpt lat="42.45651" lon="-8.64419">
        <ele>15.04</ele>
        <time>2019-06-06T06:11:48Z</time>
      </trkpt>
      <trkpt lat="42.45654" lon="-8.64421">
        <ele>15.04</ele>
        <time>2019-06-06T06:11:50Z</time>
      </trkpt>
      <trkpt lat="42.45666" lon="-8.64431">
        <ele>15.04</ele>
        <time>2019-06-06T06:12:00Z</time>
      </trkpt>
      <trkpt lat="42.45673" lon="-8.64446">
        <ele>15.52</ele>
        <time>2019-06-06T06:12:13Z</time>
      </trkpt>
      <trkpt lat="42.45673" lon="-8.64447">
        <ele>15.52</ele>
        <time>2019-06-06T06:12:28Z</time>
      </trkpt>
      <trkpt lat="42.45673" lon="-8.64447">
        <ele>15.52</ele>
        <time>2019-06-06T06:12:29Z</time>
      </trkpt>
      <trkpt lat="42.45684" lon="-8.64438">
        <ele>15.52</ele>
        <time>2019-06-06T06:12:41Z</time>
      </trkpt>
      <trkpt lat="42.45686" lon="-8.64437">
        <ele>15.52</ele>
        <time>2019-06-06T06:12:43Z</time>
      </trkpt>
      <trkpt lat="42.45698" lon="-8.64424">
        <ele>16</ele>
        <time>2019-06-06T06:12:55Z</time>
      </trkpt>
      <trkpt lat="42.45704" lon="-8.64422">
        <ele>16</ele>
        <time>2019-06-06T06:13:00Z</time>
      </trkpt>
      <trkpt lat="42.45725" lon="-8.64425">
        <ele>16.96</ele>
        <time>2019-06-06T06:13:15Z</time>
      </trkpt>
      <trkpt lat="42.45742" lon="-8.64424">
        <ele>18.4</ele>
        <time>2019-06-06T06:13:29Z</time>
      </trkpt>
      <trkpt lat="42.45756" lon="-8.64418">
        <ele>20.81</ele>
        <time>2019-06-06T06:13:44Z</time>
      </trkpt>
      <trkpt lat="42.45757" lon="-8.6442">
        <ele>20.81</ele>
        <time>2019-06-06T06:13:46Z</time>
      </trkpt>
      <trkpt lat="42.45774" lon="-8.64423">
        <ele>22.25</ele>
        <time>2019-06-06T06:14:03Z</time>
      </trkpt>
      <trkpt lat="42.45784" lon="-8.64422">
        <ele>23.21</ele>
        <time>2019-06-06T06:14:17Z</time>
      </trkpt>
      <trkpt lat="42.45793" lon="-8.64427">
        <ele>24.17</ele>
        <time>2019-06-06T06:14:30Z</time>
      </trkpt>
      <trkpt lat="42.458" lon="-8.64427">
        <ele>23.69</ele>
        <time>2019-06-06T06:14:43Z</time>
      </trkpt>
      <trkpt lat="42.4581" lon="-8.64427">
        <ele>24.17</ele>
        <time>2019-06-06T06:14:59Z</time>
      </trkpt>
      <trkpt lat="42.45812" lon="-8.64427">
        <ele>23.69</ele>
        <time>2019-06-06T06:15:01Z</time>
      </trkpt>
      <trkpt lat="42.4582" lon="-8.64429">
        <ele>24.17</ele>
        <time>2019-06-06T06:15:11Z</time>
      </trkpt>
      <trkpt lat="42.45826" lon="-8.64432">
        <ele>24.17</ele>
        <time>2019-06-06T06:15:18Z</time>
      </trkpt>
      <trkpt lat="42.45847" lon="-8.64433">
        <ele>26.09</ele>
        <time>2019-06-06T06:15:35Z</time>
      </trkpt>
      <trkpt lat="42.45855" lon="-8.64432">
        <ele>25.61</ele>
        <time>2019-06-06T06:15:42Z</time>
      </trkpt>
      <trkpt lat="42.45859" lon="-8.64431">
        <ele>26.57</ele>
        <time>2019-06-06T06:15:45Z</time>
      </trkpt>
      <trkpt lat="42.45876" lon="-8.64431">
        <ele>27.05</ele>
        <time>2019-06-06T06:16:00Z</time>
      </trkpt>
      <trkpt lat="42.4589" lon="-8.64434">
        <ele>29.46</ele>
        <time>2019-06-06T06:16:14Z</time>
      </trkpt>
      <trkpt lat="42.45892" lon="-8.64434">
        <ele>29.46</ele>
        <time>2019-06-06T06:16:16Z</time>
      </trkpt>
      <trkpt lat="42.45901" lon="-8.64439">
        <ele>29.94</ele>
        <time>2019-06-06T06:16:22Z</time>
      </trkpt>
      <trkpt lat="42.4591" lon="-8.64441">
        <ele>30.42</ele>
        <time>2019-06-06T06:16:29Z</time>
      </trkpt>
      <trkpt lat="42.45927" lon="-8.64443">
        <ele>30.42</ele>
        <time>2019-06-06T06:16:44Z</time>
      </trkpt>
      <trkpt lat="42.45946" lon="-8.64447">
        <ele>30.42</ele>
        <time>2019-06-06T06:17:00Z</time>
      </trkpt>
      <trkpt lat="42.45952" lon="-8.64448">
        <ele>29.46</ele>
        <time>2019-06-06T06:17:05Z</time>
      </trkpt>
      <trkpt lat="42.45966" lon="-8.6445">
        <ele>28.98</ele>
        <time>2019-06-06T06:17:21Z</time>
      </trkpt>
      <trkpt lat="42.45966" lon="-8.6445">
        <ele>24.17</ele>
        <time>2019-06-06T06:17:22Z</time>
      </trkpt>
      <trkpt lat="42.45966" lon="-8.6445">
        <ele>28.5</ele>
        <time>2019-06-06T06:17:23Z</time>
      </trkpt>
      <trkpt lat="42.45966" lon="-8.64452">
        <ele>28.5</ele>
        <time>2019-06-06T06:17:26Z</time>
      </trkpt>
      <trkpt lat="42.45967" lon="-8.64451">
        <ele>22.73</ele>
        <time>2019-06-06T06:17:29Z</time>
      </trkpt>
      <trkpt lat="42.45967" lon="-8.64452">
        <ele>28.98</ele>
        <time>2019-06-06T06:17:30Z</time>
      </trkpt>
      <trkpt lat="42.45966" lon="-8.64452">
        <ele>32.34</ele>
        <time>2019-06-06T06:17:32Z</time>
      </trkpt>
      <trkpt lat="42.45967" lon="-8.64452">
        <ele>28.98</ele>
        <time>2019-06-06T06:17:33Z</time>
      </trkpt>
      <trkpt lat="42.45968" lon="-8.64459">
        <ele>28.98</ele>
        <time>2019-06-06T06:17:45Z</time>
      </trkpt>
      <trkpt lat="42.45971" lon="-8.64459">
        <ele>28.5</ele>
        <time>2019-06-06T06:17:47Z</time>
      </trkpt>
      <trkpt lat="42.45975" lon="-8.64458">
        <ele>28.02</ele>
        <time>2019-06-06T06:17:51Z</time>
      </trkpt>
      <trkpt lat="42.45982" lon="-8.64461">
        <ele>27.05</ele>
        <time>2019-06-06T06:17:57Z</time>
      </trkpt>
      <trkpt lat="42.45991" lon="-8.64463">
        <ele>27.05</ele>
        <time>2019-06-06T06:18:05Z</time>
      </trkpt>
      <trkpt lat="42.45998" lon="-8.64465">
        <ele>26.57</ele>
        <time>2019-06-06T06:18:11Z</time>
      </trkpt>
      <trkpt lat="42.46017" lon="-8.64465">
        <ele>25.13</ele>
        <time>2019-06-06T06:18:25Z</time>
      </trkpt>
      <trkpt lat="42.46018" lon="-8.64465">
        <ele>25.13</ele>
        <time>2019-06-06T06:18:26Z</time>
      </trkpt>
      <trkpt lat="42.46022" lon="-8.64463">
        <ele>25.61</ele>
        <time>2019-06-06T06:18:29Z</time>
      </trkpt>
      <trkpt lat="42.46026" lon="-8.64464">
        <ele>24.65</ele>
        <time>2019-06-06T06:18:33Z</time>
      </trkpt>
      <trkpt lat="42.46034" lon="-8.64465">
        <ele>24.65</ele>
        <time>2019-06-06T06:18:42Z</time>
      </trkpt>
      <trkpt lat="42.46038" lon="-8.64464">
        <ele>24.65</ele>
        <time>2019-06-06T06:18:46Z</time>
      </trkpt>
      <trkpt lat="42.46054" lon="-8.64466">
        <ele>24.17</ele>
        <time>2019-06-06T06:19:00Z</time>
      </trkpt>
      <trkpt lat="42.4606" lon="-8.64463">
        <ele>23.21</ele>
        <time>2019-06-06T06:19:09Z</time>
      </trkpt>
      <trkpt lat="42.46068" lon="-8.64453">
        <ele>23.21</ele>
        <time>2019-06-06T06:19:21Z</time>
      </trkpt>
      <trkpt lat="42.4607" lon="-8.64451">
        <ele>24.17</ele>
        <time>2019-06-06T06:19:23Z</time>
      </trkpt>
      <trkpt lat="42.46077" lon="-8.6444">
        <ele>24.17</ele>
        <time>2019-06-06T06:19:32Z</time>
      </trkpt>
      <trkpt lat="42.46091" lon="-8.64427">
        <ele>24.65</ele>
        <time>2019-06-06T06:19:46Z</time>
      </trkpt>
      <trkpt lat="42.46113" lon="-8.64417">
        <ele>23.69</ele>
        <time>2019-06-06T06:20:01Z</time>
      </trkpt>
      <trkpt lat="42.46131" lon="-8.64414">
        <ele>24.65</ele>
        <time>2019-06-06T06:20:10Z</time>
      </trkpt>
      <trkpt lat="42.46152" lon="-8.64408">
        <ele>25.61</ele>
        <time>2019-06-06T06:20:24Z</time>
      </trkpt>
      <trkpt lat="42.46164" lon="-8.644">
        <ele>26.09</ele>
        <time>2019-06-06T06:20:36Z</time>
      </trkpt>
      <trkpt lat="42.46167" lon="-8.64395">
        <ele>26.57</ele>
        <time>2019-06-06T06:20:46Z</time>
      </trkpt>
      <trkpt lat="42.46189" lon="-8.64409">
        <ele>28.5</ele>
        <time>2019-06-06T06:21:01Z</time>
      </trkpt>
      <trkpt lat="42.46201" lon="-8.64416">
        <ele>29.46</ele>
        <time>2019-06-06T06:21:15Z</time>
      </trkpt>
      <trkpt lat="42.46209" lon="-8.64423">
        <ele>30.42</ele>
        <time>2019-06-06T06:21:26Z</time>
      </trkpt>
      <trkpt lat="42.46223" lon="-8.64429">
        <ele>32.34</ele>
        <time>2019-06-06T06:21:40Z</time>
      </trkpt>
      <trkpt lat="42.4624" lon="-8.64431">
        <ele>33.78</ele>
        <time>2019-06-06T06:21:54Z</time>
      </trkpt>
      <trkpt lat="42.46243" lon="-8.64438">
        <ele>34.26</ele>
        <time>2019-06-06T06:22:04Z</time>
      </trkpt>
      <trkpt lat="42.46245" lon="-8.64441">
        <ele>34.26</ele>
        <time>2019-06-06T06:22:20Z</time>
      </trkpt>
      <trkpt lat="42.46257" lon="-8.64436">
        <ele>35.23</ele>
        <time>2019-06-06T06:22:32Z</time>
      </trkpt>
      <trkpt lat="42.46277" lon="-8.64434">
        <ele>36.67</ele>
        <time>2019-06-06T06:22:49Z</time>
      </trkpt>
      <trkpt lat="42.46297" lon="-8.64433">
        <ele>37.15</ele>
        <time>2019-06-06T06:23:07Z</time>
      </trkpt>
      <trkpt lat="42.46313" lon="-8.64433">
        <ele>39.07</ele>
        <time>2019-06-06T06:23:21Z</time>
      </trkpt>
      <trkpt lat="42.46329" lon="-8.64433">
        <ele>40.51</ele>
        <time>2019-06-06T06:23:35Z</time>
      </trkpt>
      <trkpt lat="42.46347" lon="-8.6443">
        <ele>42.92</ele>
        <time>2019-06-06T06:23:52Z</time>
      </trkpt>
      <trkpt lat="42.46362" lon="-8.64432">
        <ele>43.4</ele>
        <time>2019-06-06T06:24:05Z</time>
      </trkpt>
      <trkpt lat="42.46376" lon="-8.6444">
        <ele>44.84</ele>
        <time>2019-06-06T06:24:20Z</time>
      </trkpt>
      <trkpt lat="42.46377" lon="-8.64441">
        <ele>45.32</ele>
        <time>2019-06-06T06:24:21Z</time>
      </trkpt>
      <trkpt lat="42.46379" lon="-8.64442">
        <ele>45.32</ele>
        <time>2019-06-06T06:24:23Z</time>
      </trkpt>
      <trkpt lat="42.46396" lon="-8.64454">
        <ele>46.76</ele>
        <time>2019-06-06T06:24:40Z</time>
      </trkpt>
      <trkpt lat="42.46397" lon="-8.64462">
        <ele>46.76</ele>
        <time>2019-06-06T06:24:54Z</time>
      </trkpt>
      <trkpt lat="42.46396" lon="-8.64466">
        <ele>47.24</ele>
        <time>2019-06-06T06:25:05Z</time>
      </trkpt>
      <trkpt lat="42.464" lon="-8.64473">
        <ele>46.28</ele>
        <time>2019-06-06T06:25:13Z</time>
      </trkpt>
      <trkpt lat="42.46402" lon="-8.64479">
        <ele>46.28</ele>
        <time>2019-06-06T06:25:18Z</time>
      </trkpt>
      <trkpt lat="42.46407" lon="-8.64504">
        <ele>43.4</ele>
        <time>2019-06-06T06:25:34Z</time>
      </trkpt>
      <trkpt lat="42.46412" lon="-8.64527">
        <ele>40.03</ele>
        <time>2019-06-06T06:25:48Z</time>
      </trkpt>
      <trkpt lat="42.46418" lon="-8.64545">
        <ele>37.63</ele>
        <time>2019-06-06T06:26:02Z</time>
      </trkpt>
      <trkpt lat="42.4642" lon="-8.64551">
        <ele>37.15</ele>
        <time>2019-06-06T06:26:06Z</time>
      </trkpt>
      <trkpt lat="42.46426" lon="-8.64569">
        <ele>34.26</ele>
        <time>2019-06-06T06:26:19Z</time>
      </trkpt>
      <trkpt lat="42.46439" lon="-8.64589">
        <ele>32.34</ele>
        <time>2019-06-06T06:26:34Z</time>
      </trkpt>
      <trkpt lat="42.46457" lon="-8.64604">
        <ele>29.94</ele>
        <time>2019-06-06T06:26:49Z</time>
      </trkpt>
      <trkpt lat="42.46466" lon="-8.64606">
        <ele>30.42</ele>
        <time>2019-06-06T06:27:02Z</time>
      </trkpt>
      <trkpt lat="42.46482" lon="-8.64611">
        <ele>27.05</ele>
        <time>2019-06-06T06:27:16Z</time>
      </trkpt>
      <trkpt lat="42.46483" lon="-8.64611">
        <ele>27.05</ele>
        <time>2019-06-06T06:27:17Z</time>
      </trkpt>
      <trkpt lat="42.46485" lon="-8.64616">
        <ele>26.57</ele>
        <time>2019-06-06T06:27:22Z</time>
      </trkpt>
      <trkpt lat="42.46489" lon="-8.64644">
        <ele>26.57</ele>
        <time>2019-06-06T06:27:39Z</time>
      </trkpt>
      <trkpt lat="42.46493" lon="-8.64667">
        <ele>26.57</ele>
        <time>2019-06-06T06:27:53Z</time>
      </trkpt>
      <trkpt lat="42.46501" lon="-8.64689">
        <ele>26.57</ele>
        <time>2019-06-06T06:28:08Z</time>
      </trkpt>
      <trkpt lat="42.4651" lon="-8.64708">
        <ele>26.09</ele>
        <time>2019-06-06T06:28:22Z</time>
      </trkpt>
      <trkpt lat="42.46523" lon="-8.64727">
        <ele>26.57</ele>
        <time>2019-06-06T06:28:38Z</time>
      </trkpt>
      <trkpt lat="42.46537" lon="-8.64743">
        <ele>26.57</ele>
        <time>2019-06-06T06:28:52Z</time>
      </trkpt>
      <trkpt lat="42.46552" lon="-8.64754">
        <ele>26.57</ele>
        <time>2019-06-06T06:29:06Z</time>
      </trkpt>
      <trkpt lat="42.46569" lon="-8.64766">
        <ele>26.09</ele>
        <time>2019-06-06T06:29:21Z</time>
      </trkpt>
      <trkpt lat="42.46586" lon="-8.64781">
        <ele>26.09</ele>
        <time>2019-06-06T06:29:38Z</time>
      </trkpt>
      <trkpt lat="42.46591" lon="-8.64785">
        <ele>26.57</ele>
        <time>2019-06-06T06:29:44Z</time>
      </trkpt>
      <trkpt lat="42.46599" lon="-8.64794">
        <ele>26.57</ele>
        <time>2019-06-06T06:29:58Z</time>
      </trkpt>
      <trkpt lat="42.46608" lon="-8.648">
        <ele>26.09</ele>
        <time>2019-06-06T06:30:06Z</time>
      </trkpt>
      <trkpt lat="42.46619" lon="-8.64807">
        <ele>25.13</ele>
        <time>2019-06-06T06:30:16Z</time>
      </trkpt>
      <trkpt lat="42.46636" lon="-8.64817">
        <ele>25.13</ele>
        <time>2019-06-06T06:30:31Z</time>
      </trkpt>
      <trkpt lat="42.46656" lon="-8.64827">
        <ele>24.65</ele>
        <time>2019-06-06T06:30:47Z</time>
      </trkpt>
      <trkpt lat="42.46675" lon="-8.64832">
        <ele>24.65</ele>
        <time>2019-06-06T06:31:02Z</time>
      </trkpt>
      <trkpt lat="42.46693" lon="-8.64839">
        <ele>25.13</ele>
        <time>2019-06-06T06:31:17Z</time>
      </trkpt>
      <trkpt lat="42.46711" lon="-8.64845">
        <ele>24.17</ele>
        <time>2019-06-06T06:31:32Z</time>
      </trkpt>
      <trkpt lat="42.46725" lon="-8.64844">
        <ele>23.69</ele>
        <time>2019-06-06T06:31:47Z</time>
      </trkpt>
      <trkpt lat="42.4674" lon="-8.6484">
        <ele>24.17</ele>
        <time>2019-06-06T06:31:59Z</time>
      </trkpt>
      <trkpt lat="42.46759" lon="-8.64833">
        <ele>24.17</ele>
        <time>2019-06-06T06:32:14Z</time>
      </trkpt>
      <trkpt lat="42.46776" lon="-8.64831">
        <ele>23.69</ele>
        <time>2019-06-06T06:32:27Z</time>
      </trkpt>
      <trkpt lat="42.4679" lon="-8.64829">
        <ele>24.17</ele>
        <time>2019-06-06T06:32:36Z</time>
      </trkpt>
      <trkpt lat="42.46797" lon="-8.64829">
        <ele>24.17</ele>
        <time>2019-06-06T06:32:51Z</time>
      </trkpt>
      <trkpt lat="42.46802" lon="-8.64829">
        <ele>24.17</ele>
        <time>2019-06-06T06:33:03Z</time>
      </trkpt>
      <trkpt lat="42.46808" lon="-8.64829">
        <ele>24.17</ele>
        <time>2019-06-06T06:33:15Z</time>
      </trkpt>
      <trkpt lat="42.46813" lon="-8.64826">
        <ele>24.65</ele>
        <time>2019-06-06T06:33:29Z</time>
      </trkpt>
      <trkpt lat="42.46814" lon="-8.64826">
        <ele>24.17</ele>
        <time>2019-06-06T06:33:39Z</time>
      </trkpt>
      <trkpt lat="42.46814" lon="-8.64824">
        <ele>24.17</ele>
        <time>2019-06-06T06:33:50Z</time>
      </trkpt>
      <trkpt lat="42.46828" lon="-8.64828">
        <ele>24.65</ele>
        <time>2019-06-06T06:34:02Z</time>
      </trkpt>
      <trkpt lat="42.46851" lon="-8.64829">
        <ele>24.17</ele>
        <time>2019-06-06T06:34:18Z</time>
      </trkpt>
      <trkpt lat="42.46857" lon="-8.64825">
        <ele>24.17</ele>
        <time>2019-06-06T06:34:23Z</time>
      </trkpt>
      <trkpt lat="42.46872" lon="-8.64823">
        <ele>23.69</ele>
        <time>2019-06-06T06:34:38Z</time>
      </trkpt>
      <trkpt lat="42.46889" lon="-8.64824">
        <ele>24.65</ele>
        <time>2019-06-06T06:34:50Z</time>
      </trkpt>
      <trkpt lat="42.46891" lon="-8.64824">
        <ele>24.17</ele>
        <time>2019-06-06T06:34:51Z</time>
      </trkpt>
      <trkpt lat="42.46894" lon="-8.64824">
        <ele>24.65</ele>
        <time>2019-06-06T06:34:53Z</time>
      </trkpt>
      <trkpt lat="42.46912" lon="-8.64829">
        <ele>24.65</ele>
        <time>2019-06-06T06:35:09Z</time>
      </trkpt>
      <trkpt lat="42.46917" lon="-8.64831">
        <ele>24.17</ele>
        <time>2019-06-06T06:35:13Z</time>
      </trkpt>
      <trkpt lat="42.46933" lon="-8.64836">
        <ele>25.13</ele>
        <time>2019-06-06T06:35:26Z</time>
      </trkpt>
      <trkpt lat="42.46949" lon="-8.64839">
        <ele>26.09</ele>
        <time>2019-06-06T06:35:40Z</time>
      </trkpt>
      <trkpt lat="42.46963" lon="-8.6484">
        <ele>25.61</ele>
        <time>2019-06-06T06:35:52Z</time>
      </trkpt>
      <trkpt lat="42.4698" lon="-8.64846">
        <ele>26.57</ele>
        <time>2019-06-06T06:36:07Z</time>
      </trkpt>
      <trkpt lat="42.46982" lon="-8.64847">
        <ele>27.53</ele>
        <time>2019-06-06T06:36:08Z</time>
      </trkpt>
      <trkpt lat="42.46984" lon="-8.64847">
        <ele>27.05</ele>
        <time>2019-06-06T06:36:10Z</time>
      </trkpt>
      <trkpt lat="42.47" lon="-8.64845">
        <ele>28.02</ele>
        <time>2019-06-06T06:36:27Z</time>
      </trkpt>
      <trkpt lat="42.47012" lon="-8.64846">
        <ele>29.46</ele>
        <time>2019-06-06T06:36:40Z</time>
      </trkpt>
      <trkpt lat="42.47031" lon="-8.64845">
        <ele>29.46</ele>
        <time>2019-06-06T06:36:55Z</time>
      </trkpt>
      <trkpt lat="42.47047" lon="-8.64845">
        <ele>29.94</ele>
        <time>2019-06-06T06:37:08Z</time>
      </trkpt>
      <trkpt lat="42.47066" lon="-8.64847">
        <ele>30.9</ele>
        <time>2019-06-06T06:37:23Z</time>
      </trkpt>
      <trkpt lat="42.47083" lon="-8.64847">
        <ele>31.86</ele>
        <time>2019-06-06T06:37:38Z</time>
      </trkpt>
      <trkpt lat="42.47094" lon="-8.64844">
        <ele>32.34</ele>
        <time>2019-06-06T06:37:48Z</time>
      </trkpt>
      <trkpt lat="42.4711" lon="-8.6484">
        <ele>33.3</ele>
        <time>2019-06-06T06:38:02Z</time>
      </trkpt>
      <trkpt lat="42.47114" lon="-8.64839">
        <ele>34.26</ele>
        <time>2019-06-06T06:38:06Z</time>
      </trkpt>
      <trkpt lat="42.47127" lon="-8.64837">
        <ele>36.67</ele>
        <time>2019-06-06T06:38:20Z</time>
      </trkpt>
      <trkpt lat="42.47135" lon="-8.64838">
        <ele>37.15</ele>
        <time>2019-06-06T06:38:29Z</time>
      </trkpt>
      <trkpt lat="42.47143" lon="-8.64846">
        <ele>37.63</ele>
        <time>2019-06-06T06:38:36Z</time>
      </trkpt>
      <trkpt lat="42.47158" lon="-8.64867">
        <ele>37.63</ele>
        <time>2019-06-06T06:38:54Z</time>
      </trkpt>
      <trkpt lat="42.4716" lon="-8.64869">
        <ele>37.63</ele>
        <time>2019-06-06T06:39:11Z</time>
      </trkpt>
      <trkpt lat="42.47159" lon="-8.64868">
        <ele>36.67</ele>
        <time>2019-06-06T06:39:24Z</time>
      </trkpt>
      <trkpt lat="42.4716" lon="-8.64868">
        <ele>36.67</ele>
        <time>2019-06-06T06:39:47Z</time>
      </trkpt>
      <trkpt lat="42.47156" lon="-8.64873">
        <ele>36.67</ele>
        <time>2019-06-06T06:40:23Z</time>
      </trkpt>
      <trkpt lat="42.47156" lon="-8.64872">
        <ele>37.15</ele>
        <time>2019-06-06T06:40:55Z</time>
      </trkpt>
      <trkpt lat="42.47156" lon="-8.64874">
        <ele>36.67</ele>
        <time>2019-06-06T06:41:31Z</time>
      </trkpt>
      <trkpt lat="42.47157" lon="-8.64872">
        <ele>31.38</ele>
        <time>2019-06-06T06:41:34Z</time>
      </trkpt>
      <trkpt lat="42.47157" lon="-8.64871">
        <ele>36.67</ele>
        <time>2019-06-06T06:41:35Z</time>
      </trkpt>
      <trkpt lat="42.4716" lon="-8.64869">
        <ele>37.63</ele>
        <time>2019-06-06T06:41:54Z</time>
      </trkpt>
      <trkpt lat="42.47158" lon="-8.64867">
        <ele>37.63</ele>
        <time>2019-06-06T06:42:15Z</time>
      </trkpt>
      <trkpt lat="42.47158" lon="-8.64866">
        <ele>37.63</ele>
        <time>2019-06-06T06:42:37Z</time>
      </trkpt>
      <trkpt lat="42.47157" lon="-8.64869">
        <ele>41.47</ele>
        <time>2019-06-06T06:43:00Z</time>
      </trkpt>
      <trkpt lat="42.47158" lon="-8.64869">
        <ele>37.15</ele>
        <time>2019-06-06T06:43:01Z</time>
      </trkpt>
      <trkpt lat="42.47161" lon="-8.64872">
        <ele>37.15</ele>
        <time>2019-06-06T06:43:04Z</time>
      </trkpt>
      <trkpt lat="42.47165" lon="-8.64875">
        <ele>37.15</ele>
        <time>2019-06-06T06:43:08Z</time>
      </trkpt>
      <trkpt lat="42.47188" lon="-8.64887">
        <ele>36.19</ele>
        <time>2019-06-06T06:43:25Z</time>
      </trkpt>
      <trkpt lat="42.47203" lon="-8.64892">
        <ele>36.19</ele>
        <time>2019-06-06T06:43:38Z</time>
      </trkpt>
      <trkpt lat="42.47225" lon="-8.64905">
        <ele>36.19</ele>
        <time>2019-06-06T06:43:57Z</time>
      </trkpt>
      <trkpt lat="42.47239" lon="-8.64909">
        <ele>36.19</ele>
        <time>2019-06-06T06:44:09Z</time>
      </trkpt>
      <trkpt lat="42.47256" lon="-8.64919">
        <ele>36.67</ele>
        <time>2019-06-06T06:44:24Z</time>
      </trkpt>
      <trkpt lat="42.47277" lon="-8.64927">
        <ele>37.15</ele>
        <time>2019-06-06T06:44:41Z</time>
      </trkpt>
      <trkpt lat="42.47295" lon="-8.64932">
        <ele>36.67</ele>
        <time>2019-06-06T06:44:56Z</time>
      </trkpt>
      <trkpt lat="42.473" lon="-8.64935">
        <ele>36.19</ele>
        <time>2019-06-06T06:45:00Z</time>
      </trkpt>
      <trkpt lat="42.47321" lon="-8.64941">
        <ele>36.19</ele>
        <time>2019-06-06T06:45:17Z</time>
      </trkpt>
      <trkpt lat="42.47337" lon="-8.64948">
        <ele>36.67</ele>
        <time>2019-06-06T06:45:31Z</time>
      </trkpt>
      <trkpt lat="42.47348" lon="-8.64958">
        <ele>37.63</ele>
        <time>2019-06-06T06:45:41Z</time>
      </trkpt>
      <trkpt lat="42.47351" lon="-8.6496">
        <ele>37.15</ele>
        <time>2019-06-06T06:45:44Z</time>
      </trkpt>
      <trkpt lat="42.47367" lon="-8.64961">
        <ele>38.59</ele>
        <time>2019-06-06T06:45:59Z</time>
      </trkpt>
      <trkpt lat="42.47387" lon="-8.64959">
        <ele>37.63</ele>
        <time>2019-06-06T06:46:15Z</time>
      </trkpt>
      <trkpt lat="42.4741" lon="-8.64956">
        <ele>38.59</ele>
        <time>2019-06-06T06:46:32Z</time>
      </trkpt>
      <trkpt lat="42.47424" lon="-8.64959">
        <ele>39.07</ele>
        <time>2019-06-06T06:46:48Z</time>
      </trkpt>
      <trkpt lat="42.47423" lon="-8.64961">
        <ele>39.07</ele>
        <time>2019-06-06T06:47:15Z</time>
      </trkpt>
      <trkpt lat="42.47423" lon="-8.64962">
        <ele>38.11</ele>
        <time>2019-06-06T06:47:37Z</time>
      </trkpt>
      <trkpt lat="42.47424" lon="-8.64967">
        <ele>39.07</ele>
        <time>2019-06-06T06:48:08Z</time>
      </trkpt>
      <trkpt lat="42.47425" lon="-8.64962">
        <ele>39.07</ele>
        <time>2019-06-06T06:48:28Z</time>
      </trkpt>
      <trkpt lat="42.47425" lon="-8.64965">
        <ele>38.59</ele>
        <time>2019-06-06T06:48:44Z</time>
      </trkpt>
      <trkpt lat="42.47426" lon="-8.64962">
        <ele>39.55</ele>
        <time>2019-06-06T06:48:59Z</time>
      </trkpt>
      <trkpt lat="42.47431" lon="-8.64964">
        <ele>39.07</ele>
        <time>2019-06-06T06:49:04Z</time>
      </trkpt>
      <trkpt lat="42.47447" lon="-8.64969">
        <ele>38.59</ele>
        <time>2019-06-06T06:49:18Z</time>
      </trkpt>
      <trkpt lat="42.47449" lon="-8.6497">
        <ele>37.63</ele>
        <time>2019-06-06T06:49:20Z</time>
      </trkpt>
      <trkpt lat="42.47463" lon="-8.64977">
        <ele>37.15</ele>
        <time>2019-06-06T06:49:32Z</time>
      </trkpt>
      <trkpt lat="42.47472" lon="-8.6498">
        <ele>37.15</ele>
        <time>2019-06-06T06:49:40Z</time>
      </trkpt>
      <trkpt lat="42.47477" lon="-8.64982">
        <ele>37.15</ele>
        <time>2019-06-06T06:49:44Z</time>
      </trkpt>
      <trkpt lat="42.47483" lon="-8.64984">
        <ele>37.15</ele>
        <time>2019-06-06T06:49:50Z</time>
      </trkpt>
      <trkpt lat="42.47497" lon="-8.6499">
        <ele>37.15</ele>
        <time>2019-06-06T06:50:02Z</time>
      </trkpt>
      <trkpt lat="42.47509" lon="-8.64992">
        <ele>37.63</ele>
        <time>2019-06-06T06:50:14Z</time>
      </trkpt>
      <trkpt lat="42.47522" lon="-8.64996">
        <ele>37.63</ele>
        <time>2019-06-06T06:50:26Z</time>
      </trkpt>
      <trkpt lat="42.47538" lon="-8.65002">
        <ele>38.11</ele>
        <time>2019-06-06T06:50:39Z</time>
      </trkpt>
      <trkpt lat="42.4755" lon="-8.65002">
        <ele>37.63</ele>
        <time>2019-06-06T06:50:52Z</time>
      </trkpt>
      <trkpt lat="42.47574" lon="-8.65005">
        <ele>37.63</ele>
        <time>2019-06-06T06:51:06Z</time>
      </trkpt>
      <trkpt lat="42.47592" lon="-8.65007">
        <ele>37.15</ele>
        <time>2019-06-06T06:51:20Z</time>
      </trkpt>
      <trkpt lat="42.476" lon="-8.65007">
        <ele>37.63</ele>
        <time>2019-06-06T06:51:27Z</time>
      </trkpt>
      <trkpt lat="42.47603" lon="-8.65006">
        <ele>37.15</ele>
        <time>2019-06-06T06:51:29Z</time>
      </trkpt>
      <trkpt lat="42.47614" lon="-8.65007">
        <ele>37.15</ele>
        <time>2019-06-06T06:51:38Z</time>
      </trkpt>
      <trkpt lat="42.47636" lon="-8.65011">
        <ele>36.67</ele>
        <time>2019-06-06T06:51:51Z</time>
      </trkpt>
      <trkpt lat="42.47646" lon="-8.65016">
        <ele>36.67</ele>
        <time>2019-06-06T06:52:01Z</time>
      </trkpt>
      <trkpt lat="42.4766" lon="-8.65023">
        <ele>37.15</ele>
        <time>2019-06-06T06:52:13Z</time>
      </trkpt>
      <trkpt lat="42.47666" lon="-8.65026">
        <ele>37.15</ele>
        <time>2019-06-06T06:52:18Z</time>
      </trkpt>
      <trkpt lat="42.47684" lon="-8.6504">
        <ele>37.15</ele>
        <time>2019-06-06T06:52:34Z</time>
      </trkpt>
      <trkpt lat="42.47686" lon="-8.65042">
        <ele>37.63</ele>
        <time>2019-06-06T06:52:36Z</time>
      </trkpt>
      <trkpt lat="42.47692" lon="-8.65048">
        <ele>37.63</ele>
        <time>2019-06-06T06:52:42Z</time>
      </trkpt>
      <trkpt lat="42.47704" lon="-8.65055">
        <ele>37.63</ele>
        <time>2019-06-06T06:52:52Z</time>
      </trkpt>
      <trkpt lat="42.4772" lon="-8.65059">
        <ele>38.11</ele>
        <time>2019-06-06T06:53:06Z</time>
      </trkpt>
      <trkpt lat="42.47725" lon="-8.65059">
        <ele>38.11</ele>
        <time>2019-06-06T06:53:10Z</time>
      </trkpt>
      <trkpt lat="42.47742" lon="-8.65063">
        <ele>38.59</ele>
        <time>2019-06-06T06:53:25Z</time>
      </trkpt>
      <trkpt lat="42.47755" lon="-8.65065">
        <ele>38.11</ele>
        <time>2019-06-06T06:53:35Z</time>
      </trkpt>
      <trkpt lat="42.47775" lon="-8.65067">
        <ele>38.59</ele>
        <time>2019-06-06T06:53:48Z</time>
      </trkpt>
      <trkpt lat="42.47793" lon="-8.65069">
        <ele>39.55</ele>
        <time>2019-06-06T06:54:02Z</time>
      </trkpt>
      <trkpt lat="42.47794" lon="-8.65069">
        <ele>39.07</ele>
        <time>2019-06-06T06:54:03Z</time>
      </trkpt>
      <trkpt lat="42.47811" lon="-8.65075">
        <ele>39.55</ele>
        <time>2019-06-06T06:54:18Z</time>
      </trkpt>
      <trkpt lat="42.47826" lon="-8.65077">
        <ele>40.03</ele>
        <time>2019-06-06T06:54:30Z</time>
      </trkpt>
      <trkpt lat="42.47847" lon="-8.65081">
        <ele>40.03</ele>
        <time>2019-06-06T06:54:47Z</time>
      </trkpt>
      <trkpt lat="42.47868" lon="-8.65082">
        <ele>40.99</ele>
        <time>2019-06-06T06:55:03Z</time>
      </trkpt>
      <trkpt lat="42.47889" lon="-8.65087">
        <ele>41.47</ele>
        <time>2019-06-06T06:55:20Z</time>
      </trkpt>
      <trkpt lat="42.47908" lon="-8.65094">
        <ele>40.51</ele>
        <time>2019-06-06T06:55:36Z</time>
      </trkpt>
      <trkpt lat="42.47926" lon="-8.65101">
        <ele>40.51</ele>
        <time>2019-06-06T06:55:49Z</time>
      </trkpt>
      <trkpt lat="42.47927" lon="-8.65101">
        <ele>40.51</ele>
        <time>2019-06-06T06:55:50Z</time>
      </trkpt>
      <trkpt lat="42.4794" lon="-8.65106">
        <ele>40.99</ele>
        <time>2019-06-06T06:56:00Z</time>
      </trkpt>
      <trkpt lat="42.47947" lon="-8.6511">
        <ele>40.03</ele>
        <time>2019-06-06T06:56:06Z</time>
      </trkpt>
      <trkpt lat="42.47964" lon="-8.65114">
        <ele>40.51</ele>
        <time>2019-06-06T06:56:20Z</time>
      </trkpt>
      <trkpt lat="42.47969" lon="-8.65115">
        <ele>40.99</ele>
        <time>2019-06-06T06:56:24Z</time>
      </trkpt>
      <trkpt lat="42.47982" lon="-8.65122">
        <ele>40.51</ele>
        <time>2019-06-06T06:56:36Z</time>
      </trkpt>
      <trkpt lat="42.47999" lon="-8.6512">
        <ele>41.47</ele>
        <time>2019-06-06T06:56:50Z</time>
      </trkpt>
      <trkpt lat="42.48019" lon="-8.65115">
        <ele>42.44</ele>
        <time>2019-06-06T06:57:06Z</time>
      </trkpt>
      <trkpt lat="42.48034" lon="-8.65107">
        <ele>40.03</ele>
        <time>2019-06-06T06:57:19Z</time>
      </trkpt>
      <trkpt lat="42.48049" lon="-8.65094">
        <ele>40.51</ele>
        <time>2019-06-06T06:57:33Z</time>
      </trkpt>
      <trkpt lat="42.48061" lon="-8.65085">
        <ele>40.99</ele>
        <time>2019-06-06T06:57:46Z</time>
      </trkpt>
      <trkpt lat="42.48073" lon="-8.65081">
        <ele>40.51</ele>
        <time>2019-06-06T06:57:54Z</time>
      </trkpt>
      <trkpt lat="42.48083" lon="-8.65076">
        <ele>40.51</ele>
        <time>2019-06-06T06:58:01Z</time>
      </trkpt>
      <trkpt lat="42.4809" lon="-8.65071">
        <ele>40.51</ele>
        <time>2019-06-06T06:58:14Z</time>
      </trkpt>
      <trkpt lat="42.48102" lon="-8.65068">
        <ele>40.51</ele>
        <time>2019-06-06T06:58:28Z</time>
      </trkpt>
      <trkpt lat="42.48108" lon="-8.6507">
        <ele>40.51</ele>
        <time>2019-06-06T06:58:32Z</time>
      </trkpt>
      <trkpt lat="42.48113" lon="-8.65073">
        <ele>40.03</ele>
        <time>2019-06-06T06:58:36Z</time>
      </trkpt>
      <trkpt lat="42.48121" lon="-8.65077">
        <ele>40.03</ele>
        <time>2019-06-06T06:58:44Z</time>
      </trkpt>
      <trkpt lat="42.48124" lon="-8.65079">
        <ele>40.51</ele>
        <time>2019-06-06T06:58:46Z</time>
      </trkpt>
      <trkpt lat="42.48141" lon="-8.65085">
        <ele>40.51</ele>
        <time>2019-06-06T06:59:00Z</time>
      </trkpt>
      <trkpt lat="42.4815" lon="-8.65091">
        <ele>40.51</ele>
        <time>2019-06-06T06:59:08Z</time>
      </trkpt>
      <trkpt lat="42.48154" lon="-8.65092">
        <ele>40.51</ele>
        <time>2019-06-06T06:59:11Z</time>
      </trkpt>
      <trkpt lat="42.48163" lon="-8.65094">
        <ele>40.99</ele>
        <time>2019-06-06T06:59:18Z</time>
      </trkpt>
      <trkpt lat="42.48181" lon="-8.65094">
        <ele>41.47</ele>
        <time>2019-06-06T06:59:33Z</time>
      </trkpt>
      <trkpt lat="42.48194" lon="-8.65097">
        <ele>42.44</ele>
        <time>2019-06-06T06:59:46Z</time>
      </trkpt>
      <trkpt lat="42.48209" lon="-8.65101">
        <ele>42.92</ele>
        <time>2019-06-06T06:59:59Z</time>
      </trkpt>
      <trkpt lat="42.48223" lon="-8.65102">
        <ele>43.4</ele>
        <time>2019-06-06T07:00:12Z</time>
      </trkpt>
      <trkpt lat="42.48233" lon="-8.65099">
        <ele>44.36</ele>
        <time>2019-06-06T07:00:23Z</time>
      </trkpt>
      <trkpt lat="42.48235" lon="-8.65096">
        <ele>44.36</ele>
        <time>2019-06-06T07:00:36Z</time>
      </trkpt>
      <trkpt lat="42.48237" lon="-8.65096">
        <ele>44.36</ele>
        <time>2019-06-06T07:00:38Z</time>
      </trkpt>
      <trkpt lat="42.48247" lon="-8.65097">
        <ele>44.84</ele>
        <time>2019-06-06T07:00:51Z</time>
      </trkpt>
      <trkpt lat="42.48262" lon="-8.65099">
        <ele>45.8</ele>
        <time>2019-06-06T07:01:02Z</time>
      </trkpt>
      <trkpt lat="42.48264" lon="-8.65099">
        <ele>45.32</ele>
        <time>2019-06-06T07:01:04Z</time>
      </trkpt>
      <trkpt lat="42.48289" lon="-8.65092">
        <ele>46.76</ele>
        <time>2019-06-06T07:01:20Z</time>
      </trkpt>
      <trkpt lat="42.48307" lon="-8.65087">
        <ele>47.72</ele>
        <time>2019-06-06T07:01:36Z</time>
      </trkpt>
      <trkpt lat="42.48312" lon="-8.65087">
        <ele>47.72</ele>
        <time>2019-06-06T07:01:40Z</time>
      </trkpt>
      <trkpt lat="42.48332" lon="-8.65088">
        <ele>48.2</ele>
        <time>2019-06-06T07:01:56Z</time>
      </trkpt>
      <trkpt lat="42.4835" lon="-8.65085">
        <ele>49.16</ele>
        <time>2019-06-06T07:02:12Z</time>
      </trkpt>
      <trkpt lat="42.48369" lon="-8.65081">
        <ele>49.65</ele>
        <time>2019-06-06T07:02:27Z</time>
      </trkpt>
      <trkpt lat="42.48384" lon="-8.65076">
        <ele>51.09</ele>
        <time>2019-06-06T07:02:42Z</time>
      </trkpt>
      <trkpt lat="42.48403" lon="-8.65077">
        <ele>51.09</ele>
        <time>2019-06-06T07:02:56Z</time>
      </trkpt>
      <trkpt lat="42.48413" lon="-8.65077">
        <ele>51.09</ele>
        <time>2019-06-06T07:03:10Z</time>
      </trkpt>
      <trkpt lat="42.48416" lon="-8.65073">
        <ele>51.09</ele>
        <time>2019-06-06T07:03:41Z</time>
      </trkpt>
      <trkpt lat="42.48426" lon="-8.65079">
        <ele>50.61</ele>
        <time>2019-06-06T07:03:57Z</time>
      </trkpt>
      <trkpt lat="42.48447" lon="-8.65079">
        <ele>51.57</ele>
        <time>2019-06-06T07:04:14Z</time>
      </trkpt>
      <trkpt lat="42.48467" lon="-8.6508">
        <ele>51.09</ele>
        <time>2019-06-06T07:04:30Z</time>
      </trkpt>
      <trkpt lat="42.48486" lon="-8.65079">
        <ele>51.57</ele>
        <time>2019-06-06T07:04:45Z</time>
      </trkpt>
      <trkpt lat="42.48502" lon="-8.65077">
        <ele>51.09</ele>
        <time>2019-06-06T07:04:57Z</time>
      </trkpt>
      <trkpt lat="42.48518" lon="-8.65068">
        <ele>52.05</ele>
        <time>2019-06-06T07:05:11Z</time>
      </trkpt>
      <trkpt lat="42.48521" lon="-8.65067">
        <ele>52.53</ele>
        <time>2019-06-06T07:05:13Z</time>
      </trkpt>
      <trkpt lat="42.48525" lon="-8.65066">
        <ele>52.05</ele>
        <time>2019-06-06T07:05:17Z</time>
      </trkpt>
      <trkpt lat="42.48527" lon="-8.65065">
        <ele>52.53</ele>
        <time>2019-06-06T07:05:19Z</time>
      </trkpt>
      <trkpt lat="42.4854" lon="-8.65064">
        <ele>52.53</ele>
        <time>2019-06-06T07:05:31Z</time>
      </trkpt>
      <trkpt lat="42.48561" lon="-8.65065">
        <ele>52.05</ele>
        <time>2019-06-06T07:05:46Z</time>
      </trkpt>
      <trkpt lat="42.48579" lon="-8.65069">
        <ele>52.05</ele>
        <time>2019-06-06T07:06:00Z</time>
      </trkpt>
      <trkpt lat="42.4859" lon="-8.65068">
        <ele>52.53</ele>
        <time>2019-06-06T07:06:11Z</time>
      </trkpt>
      <trkpt lat="42.48594" lon="-8.65066">
        <ele>52.53</ele>
        <time>2019-06-06T07:06:14Z</time>
      </trkpt>
      <trkpt lat="42.486" lon="-8.65064">
        <ele>52.53</ele>
        <time>2019-06-06T07:06:18Z</time>
      </trkpt>
      <trkpt lat="42.48609" lon="-8.65062">
        <ele>52.05</ele>
        <time>2019-06-06T07:06:26Z</time>
      </trkpt>
      <trkpt lat="42.48629" lon="-8.65054">
        <ele>53.01</ele>
        <time>2019-06-06T07:06:42Z</time>
      </trkpt>
      <trkpt lat="42.48635" lon="-8.65051">
        <ele>53.49</ele>
        <time>2019-06-06T07:06:47Z</time>
      </trkpt>
      <trkpt lat="42.48646" lon="-8.65045">
        <ele>53.97</ele>
        <time>2019-06-06T07:06:59Z</time>
      </trkpt>
      <trkpt lat="42.4866" lon="-8.65037">
        <ele>55.89</ele>
        <time>2019-06-06T07:07:13Z</time>
      </trkpt>
      <trkpt lat="42.48676" lon="-8.65031">
        <ele>57.82</ele>
        <time>2019-06-06T07:07:28Z</time>
      </trkpt>
      <trkpt lat="42.48679" lon="-8.65028">
        <ele>57.82</ele>
        <time>2019-06-06T07:07:32Z</time>
      </trkpt>
      <trkpt lat="42.48694" lon="-8.65026">
        <ele>57.34</ele>
        <time>2019-06-06T07:07:45Z</time>
      </trkpt>
      <trkpt lat="42.48707" lon="-8.6502">
        <ele>57.34</ele>
        <time>2019-06-06T07:07:56Z</time>
      </trkpt>
      <trkpt lat="42.4871" lon="-8.65018">
        <ele>57.82</ele>
        <time>2019-06-06T07:07:59Z</time>
      </trkpt>
      <trkpt lat="42.48717" lon="-8.65016">
        <ele>56.86</ele>
        <time>2019-06-06T07:08:04Z</time>
      </trkpt>
      <trkpt lat="42.48732" lon="-8.65011">
        <ele>56.86</ele>
        <time>2019-06-06T07:08:16Z</time>
      </trkpt>
      <trkpt lat="42.48736" lon="-8.65011">
        <ele>56.86</ele>
        <time>2019-06-06T07:08:20Z</time>
      </trkpt>
      <trkpt lat="42.48744" lon="-8.6501">
        <ele>57.82</ele>
        <time>2019-06-06T07:08:26Z</time>
      </trkpt>
      <trkpt lat="42.48749" lon="-8.6501">
        <ele>57.34</ele>
        <time>2019-06-06T07:08:30Z</time>
      </trkpt>
      <trkpt lat="42.48762" lon="-8.65005">
        <ele>57.82</ele>
        <time>2019-06-06T07:08:42Z</time>
      </trkpt>
      <trkpt lat="42.4877" lon="-8.65004">
        <ele>57.82</ele>
        <time>2019-06-06T07:08:49Z</time>
      </trkpt>
      <trkpt lat="42.48775" lon="-8.65004">
        <ele>58.78</ele>
        <time>2019-06-06T07:09:09Z</time>
      </trkpt>
      <trkpt lat="42.4879" lon="-8.65006">
        <ele>58.78</ele>
        <time>2019-06-06T07:09:23Z</time>
      </trkpt>
      <trkpt lat="42.48807" lon="-8.65007">
        <ele>59.26</ele>
        <time>2019-06-06T07:09:38Z</time>
      </trkpt>
      <trkpt lat="42.48812" lon="-8.65006">
        <ele>59.74</ele>
        <time>2019-06-06T07:09:43Z</time>
      </trkpt>
      <trkpt lat="42.48816" lon="-8.65003">
        <ele>59.26</ele>
        <time>2019-06-06T07:09:46Z</time>
      </trkpt>
      <trkpt lat="42.48823" lon="-8.65003">
        <ele>59.74</ele>
        <time>2019-06-06T07:09:52Z</time>
      </trkpt>
      <trkpt lat="42.48839" lon="-8.64998">
        <ele>59.74</ele>
        <time>2019-06-06T07:10:05Z</time>
      </trkpt>
      <trkpt lat="42.48852" lon="-8.64995">
        <ele>59.74</ele>
        <time>2019-06-06T07:10:18Z</time>
      </trkpt>
      <trkpt lat="42.4886" lon="-8.64994">
        <ele>59.74</ele>
        <time>2019-06-06T07:10:26Z</time>
      </trkpt>
      <trkpt lat="42.48867" lon="-8.64993">
        <ele>59.74</ele>
        <time>2019-06-06T07:10:31Z</time>
      </trkpt>
      <trkpt lat="42.48883" lon="-8.6499">
        <ele>60.22</ele>
        <time>2019-06-06T07:10:45Z</time>
      </trkpt>
      <trkpt lat="42.48897" lon="-8.64987">
        <ele>59.74</ele>
        <time>2019-06-06T07:10:59Z</time>
      </trkpt>
      <trkpt lat="42.48918" lon="-8.64976">
        <ele>61.66</ele>
        <time>2019-06-06T07:11:14Z</time>
      </trkpt>
      <trkpt lat="42.48933" lon="-8.64968">
        <ele>62.62</ele>
        <time>2019-06-06T07:11:27Z</time>
      </trkpt>
      <trkpt lat="42.48939" lon="-8.64965">
        <ele>62.62</ele>
        <time>2019-06-06T07:11:33Z</time>
      </trkpt>
      <trkpt lat="42.48951" lon="-8.64952">
        <ele>63.1</ele>
        <time>2019-06-06T07:11:47Z</time>
      </trkpt>
      <trkpt lat="42.48953" lon="-8.64951">
        <ele>63.58</ele>
        <time>2019-06-06T07:11:48Z</time>
      </trkpt>
      <trkpt lat="42.48978" lon="-8.64944">
        <ele>64.07</ele>
        <time>2019-06-06T07:12:02Z</time>
      </trkpt>
      <trkpt lat="42.4898" lon="-8.64943">
        <ele>64.55</ele>
        <time>2019-06-06T07:12:04Z</time>
      </trkpt>
      <trkpt lat="42.48983" lon="-8.64942">
        <ele>65.03</ele>
        <time>2019-06-06T07:12:07Z</time>
      </trkpt>
      <trkpt lat="42.49005" lon="-8.64945">
        <ele>65.51</ele>
        <time>2019-06-06T07:12:24Z</time>
      </trkpt>
      <trkpt lat="42.49016" lon="-8.64943">
        <ele>65.99</ele>
        <time>2019-06-06T07:12:36Z</time>
      </trkpt>
      <trkpt lat="42.49032" lon="-8.64935">
        <ele>66.95</ele>
        <time>2019-06-06T07:12:50Z</time>
      </trkpt>
      <trkpt lat="42.49051" lon="-8.64928">
        <ele>67.43</ele>
        <time>2019-06-06T07:13:05Z</time>
      </trkpt>
      <trkpt lat="42.49058" lon="-8.64926">
        <ele>66.95</ele>
        <time>2019-06-06T07:13:10Z</time>
      </trkpt>
      <trkpt lat="42.49073" lon="-8.64924">
        <ele>67.43</ele>
        <time>2019-06-06T07:13:23Z</time>
      </trkpt>
      <trkpt lat="42.49083" lon="-8.64921">
        <ele>67.91</ele>
        <time>2019-06-06T07:13:31Z</time>
      </trkpt>
      <trkpt lat="42.49099" lon="-8.64919">
        <ele>68.39</ele>
        <time>2019-06-06T07:13:45Z</time>
      </trkpt>
      <trkpt lat="42.49116" lon="-8.64912">
        <ele>68.87</ele>
        <time>2019-06-06T07:13:58Z</time>
      </trkpt>
      <trkpt lat="42.49132" lon="-8.64899">
        <ele>69.83</ele>
        <time>2019-06-06T07:14:14Z</time>
      </trkpt>
      <trkpt lat="42.49146" lon="-8.64892">
        <ele>72.24</ele>
        <time>2019-06-06T07:14:29Z</time>
      </trkpt>
      <trkpt lat="42.49162" lon="-8.6488">
        <ele>73.2</ele>
        <time>2019-06-06T07:14:45Z</time>
      </trkpt>
      <trkpt lat="42.49176" lon="-8.64871">
        <ele>73.68</ele>
        <time>2019-06-06T07:14:59Z</time>
      </trkpt>
      <trkpt lat="42.49184" lon="-8.64865">
        <ele>76.08</ele>
        <time>2019-06-06T07:15:12Z</time>
      </trkpt>
      <trkpt lat="42.492" lon="-8.64862">
        <ele>78.48</ele>
        <time>2019-06-06T07:15:26Z</time>
      </trkpt>
      <trkpt lat="42.4922" lon="-8.6486">
        <ele>79.45</ele>
        <time>2019-06-06T07:15:41Z</time>
      </trkpt>
      <trkpt lat="42.49225" lon="-8.64854">
        <ele>79.93</ele>
        <time>2019-06-06T07:15:47Z</time>
      </trkpt>
      <trkpt lat="42.4924" lon="-8.64849">
        <ele>80.41</ele>
        <time>2019-06-06T07:16:00Z</time>
      </trkpt>
      <trkpt lat="42.49258" lon="-8.64847">
        <ele>80.89</ele>
        <time>2019-06-06T07:16:13Z</time>
      </trkpt>
      <trkpt lat="42.49259" lon="-8.64847">
        <ele>80.89</ele>
        <time>2019-06-06T07:16:14Z</time>
      </trkpt>
      <trkpt lat="42.49266" lon="-8.64846">
        <ele>80.89</ele>
        <time>2019-06-06T07:16:23Z</time>
      </trkpt>
      <trkpt lat="42.4927" lon="-8.64846">
        <ele>81.37</ele>
        <time>2019-06-06T07:16:27Z</time>
      </trkpt>
      <trkpt lat="42.4928" lon="-8.64848">
        <ele>81.85</ele>
        <time>2019-06-06T07:16:38Z</time>
      </trkpt>
      <trkpt lat="42.49291" lon="-8.64849">
        <ele>81.85</ele>
        <time>2019-06-06T07:16:50Z</time>
      </trkpt>
      <trkpt lat="42.49303" lon="-8.6485">
        <ele>82.33</ele>
        <time>2019-06-06T07:17:02Z</time>
      </trkpt>
      <trkpt lat="42.49322" lon="-8.64849">
        <ele>83.29</ele>
        <time>2019-06-06T07:17:15Z</time>
      </trkpt>
      <trkpt lat="42.49327" lon="-8.64849">
        <ele>83.29</ele>
        <time>2019-06-06T07:17:21Z</time>
      </trkpt>
      <trkpt lat="42.49349" lon="-8.64844">
        <ele>84.25</ele>
        <time>2019-06-06T07:17:37Z</time>
      </trkpt>
      <trkpt lat="42.49356" lon="-8.64848">
        <ele>83.77</ele>
        <time>2019-06-06T07:17:57Z</time>
      </trkpt>
      <trkpt lat="42.49356" lon="-8.64855">
        <ele>83.77</ele>
        <time>2019-06-06T07:18:26Z</time>
      </trkpt>
      <trkpt lat="42.49358" lon="-8.64855">
        <ele>83.77</ele>
        <time>2019-06-06T07:18:53Z</time>
      </trkpt>
      <trkpt lat="42.49365" lon="-8.64849">
        <ele>83.29</ele>
        <time>2019-06-06T07:19:12Z</time>
      </trkpt>
      <trkpt lat="42.49377" lon="-8.64845">
        <ele>83.29</ele>
        <time>2019-06-06T07:19:25Z</time>
      </trkpt>
      <trkpt lat="42.49394" lon="-8.64839">
        <ele>81.85</ele>
        <time>2019-06-06T07:19:39Z</time>
      </trkpt>
      <trkpt lat="42.49408" lon="-8.64832">
        <ele>81.37</ele>
        <time>2019-06-06T07:19:52Z</time>
      </trkpt>
      <trkpt lat="42.49419" lon="-8.64831">
        <ele>81.37</ele>
        <time>2019-06-06T07:20:00Z</time>
      </trkpt>
      <trkpt lat="42.49437" lon="-8.64836">
        <ele>79.93</ele>
        <time>2019-06-06T07:20:15Z</time>
      </trkpt>
      <trkpt lat="42.4945" lon="-8.6484">
        <ele>79.93</ele>
        <time>2019-06-06T07:20:25Z</time>
      </trkpt>
      <trkpt lat="42.4946" lon="-8.64844">
        <ele>78.97</ele>
        <time>2019-06-06T07:20:32Z</time>
      </trkpt>
      <trkpt lat="42.49463" lon="-8.64845">
        <ele>78.97</ele>
        <time>2019-06-06T07:20:34Z</time>
      </trkpt>
      <trkpt lat="42.49481" lon="-8.64856">
        <ele>78</ele>
        <time>2019-06-06T07:20:48Z</time>
      </trkpt>
      <trkpt lat="42.49488" lon="-8.64858">
        <ele>78.48</ele>
        <time>2019-06-06T07:20:53Z</time>
      </trkpt>
      <trkpt lat="42.49493" lon="-8.6486">
        <ele>78</ele>
        <time>2019-06-06T07:20:57Z</time>
      </trkpt>
      <trkpt lat="42.49508" lon="-8.64866">
        <ele>77.52</ele>
        <time>2019-06-06T07:21:10Z</time>
      </trkpt>
      <trkpt lat="42.49517" lon="-8.64868">
        <ele>77.52</ele>
        <time>2019-06-06T07:21:16Z</time>
      </trkpt>
      <trkpt lat="42.49532" lon="-8.6487">
        <ele>76.56</ele>
        <time>2019-06-06T07:21:28Z</time>
      </trkpt>
      <trkpt lat="42.49543" lon="-8.64872">
        <ele>77.04</ele>
        <time>2019-06-06T07:21:40Z</time>
      </trkpt>
      <trkpt lat="42.49563" lon="-8.64878">
        <ele>76.56</ele>
        <time>2019-06-06T07:21:55Z</time>
      </trkpt>
      <trkpt lat="42.49581" lon="-8.64887">
        <ele>75.6</ele>
        <time>2019-06-06T07:22:10Z</time>
      </trkpt>
      <trkpt lat="42.49596" lon="-8.64896">
        <ele>76.08</ele>
        <time>2019-06-06T07:22:23Z</time>
      </trkpt>
      <trkpt lat="42.49604" lon="-8.64896">
        <ele>76.08</ele>
        <time>2019-06-06T07:22:36Z</time>
      </trkpt>
      <trkpt lat="42.49612" lon="-8.64895">
        <ele>77.04</ele>
        <time>2019-06-06T07:22:49Z</time>
      </trkpt>
      <trkpt lat="42.49619" lon="-8.64896">
        <ele>77.52</ele>
        <time>2019-06-06T07:23:12Z</time>
      </trkpt>
      <trkpt lat="42.49625" lon="-8.64902">
        <ele>77.52</ele>
        <time>2019-06-06T07:23:20Z</time>
      </trkpt>
      <trkpt lat="42.49636" lon="-8.64908">
        <ele>78</ele>
        <time>2019-06-06T07:23:31Z</time>
      </trkpt>
      <trkpt lat="42.49644" lon="-8.6491">
        <ele>78.97</ele>
        <time>2019-06-06T07:23:46Z</time>
      </trkpt>
      <trkpt lat="42.49649" lon="-8.6491">
        <ele>78.97</ele>
        <time>2019-06-06T07:24:02Z</time>
      </trkpt>
      <trkpt lat="42.4966" lon="-8.64914">
        <ele>80.41</ele>
        <time>2019-06-06T07:24:16Z</time>
      </trkpt>
      <trkpt lat="42.49666" lon="-8.64915">
        <ele>82.33</ele>
        <time>2019-06-06T07:24:26Z</time>
      </trkpt>
      <trkpt lat="42.49678" lon="-8.64914">
        <ele>84.25</ele>
        <time>2019-06-06T07:24:37Z</time>
      </trkpt>
      <trkpt lat="42.4969" lon="-8.64909">
        <ele>85.21</ele>
        <time>2019-06-06T07:24:49Z</time>
      </trkpt>
      <trkpt lat="42.49692" lon="-8.64909">
        <ele>86.18</ele>
        <time>2019-06-06T07:24:51Z</time>
      </trkpt>
      <trkpt lat="42.49705" lon="-8.64903">
        <ele>87.14</ele>
        <time>2019-06-06T07:25:04Z</time>
      </trkpt>
      <trkpt lat="42.49714" lon="-8.64899">
        <ele>88.1</ele>
        <time>2019-06-06T07:25:15Z</time>
      </trkpt>
      <trkpt lat="42.49727" lon="-8.64893">
        <ele>88.58</ele>
        <time>2019-06-06T07:25:27Z</time>
      </trkpt>
      <trkpt lat="42.49743" lon="-8.64891">
        <ele>89.06</ele>
        <time>2019-06-06T07:25:38Z</time>
      </trkpt>
      <trkpt lat="42.49757" lon="-8.64894">
        <ele>91.46</ele>
        <time>2019-06-06T07:25:53Z</time>
      </trkpt>
      <trkpt lat="42.4977" lon="-8.64902">
        <ele>93.39</ele>
        <time>2019-06-06T07:26:06Z</time>
      </trkpt>
      <trkpt lat="42.49779" lon="-8.64908">
        <ele>93.87</ele>
        <time>2019-06-06T07:26:15Z</time>
      </trkpt>
      <trkpt lat="42.4979" lon="-8.64914">
        <ele>96.27</ele>
        <time>2019-06-06T07:26:29Z</time>
      </trkpt>
      <trkpt lat="42.49794" lon="-8.64915">
        <ele>96.75</ele>
        <time>2019-06-06T07:26:35Z</time>
      </trkpt>
      <trkpt lat="42.49806" lon="-8.64912">
        <ele>98.67</ele>
        <time>2019-06-06T07:26:49Z</time>
      </trkpt>
      <trkpt lat="42.49819" lon="-8.64911">
        <ele>100.6</ele>
        <time>2019-06-06T07:27:02Z</time>
      </trkpt>
      <trkpt lat="42.49821" lon="-8.6491">
        <ele>100.6</ele>
        <time>2019-06-06T07:27:06Z</time>
      </trkpt>
      <trkpt lat="42.49837" lon="-8.64912">
        <ele>102.52</ele>
        <time>2019-06-06T07:27:21Z</time>
      </trkpt>
      <trkpt lat="42.49854" lon="-8.64917">
        <ele>103</ele>
        <time>2019-06-06T07:27:34Z</time>
      </trkpt>
      <trkpt lat="42.49867" lon="-8.64918">
        <ele>101.56</ele>
        <time>2019-06-06T07:27:46Z</time>
      </trkpt>
      <trkpt lat="42.49881" lon="-8.64926">
        <ele>102.52</ele>
        <time>2019-06-06T07:27:56Z</time>
      </trkpt>
      <trkpt lat="42.49894" lon="-8.64933">
        <ele>103</ele>
        <time>2019-06-06T07:28:05Z</time>
      </trkpt>
      <trkpt lat="42.49912" lon="-8.64942">
        <ele>102.52</ele>
        <time>2019-06-06T07:28:20Z</time>
      </trkpt>
      <trkpt lat="42.49919" lon="-8.64945">
        <ele>102.52</ele>
        <time>2019-06-06T07:28:25Z</time>
      </trkpt>
      <trkpt lat="42.49929" lon="-8.64952">
        <ele>102.52</ele>
        <time>2019-06-06T07:28:34Z</time>
      </trkpt>
      <trkpt lat="42.49932" lon="-8.64952">
        <ele>103</ele>
        <time>2019-06-06T07:28:36Z</time>
      </trkpt>
      <trkpt lat="42.49946" lon="-8.64959">
        <ele>103.48</ele>
        <time>2019-06-06T07:28:49Z</time>
      </trkpt>
      <trkpt lat="42.49948" lon="-8.64958">
        <ele>103.48</ele>
        <time>2019-06-06T07:28:51Z</time>
      </trkpt>
      <trkpt lat="42.49954" lon="-8.64953">
        <ele>104.44</ele>
        <time>2019-06-06T07:29:02Z</time>
      </trkpt>
      <trkpt lat="42.49956" lon="-8.64946">
        <ele>103.96</ele>
        <time>2019-06-06T07:29:14Z</time>
      </trkpt>
      <trkpt lat="42.49956" lon="-8.64953">
        <ele>103.48</ele>
        <time>2019-06-06T07:29:42Z</time>
      </trkpt>
      <trkpt lat="42.49952" lon="-8.64954">
        <ele>103.48</ele>
        <time>2019-06-06T07:29:54Z</time>
      </trkpt>
      <trkpt lat="42.49955" lon="-8.64953">
        <ele>103.48</ele>
        <time>2019-06-06T07:30:14Z</time>
      </trkpt>
      <trkpt lat="42.49954" lon="-8.64956">
        <ele>103.48</ele>
        <time>2019-06-06T07:30:41Z</time>
      </trkpt>
      <trkpt lat="42.4996" lon="-8.64952">
        <ele>103.48</ele>
        <time>2019-06-06T07:30:58Z</time>
      </trkpt>
      <trkpt lat="42.49973" lon="-8.64947">
        <ele>103.96</ele>
        <time>2019-06-06T07:31:09Z</time>
      </trkpt>
      <trkpt lat="42.49978" lon="-8.64945">
        <ele>103.48</ele>
        <time>2019-06-06T07:31:13Z</time>
      </trkpt>
      <trkpt lat="42.49988" lon="-8.64944">
        <ele>104.44</ele>
        <time>2019-06-06T07:31:23Z</time>
      </trkpt>
      <trkpt lat="42.50005" lon="-8.64942">
        <ele>106.84</ele>
        <time>2019-06-06T07:31:38Z</time>
      </trkpt>
      <trkpt lat="42.50013" lon="-8.64945">
        <ele>108.29</ele>
        <time>2019-06-06T07:31:48Z</time>
      </trkpt>
      <trkpt lat="42.50023" lon="-8.64952">
        <ele>109.73</ele>
        <time>2019-06-06T07:32:02Z</time>
      </trkpt>
      <trkpt lat="42.50032" lon="-8.6496">
        <ele>110.69</ele>
        <time>2019-06-06T07:32:13Z</time>
      </trkpt>
      <trkpt lat="42.50045" lon="-8.64966">
        <ele>111.65</ele>
        <time>2019-06-06T07:32:25Z</time>
      </trkpt>
      <trkpt lat="42.5006" lon="-8.64975">
        <ele>113.09</ele>
        <time>2019-06-06T07:32:39Z</time>
      </trkpt>
      <trkpt lat="42.50071" lon="-8.6498">
        <ele>114.53</ele>
        <time>2019-06-06T07:32:52Z</time>
      </trkpt>
      <trkpt lat="42.50079" lon="-8.64978">
        <ele>115.5</ele>
        <time>2019-06-06T07:33:04Z</time>
      </trkpt>
      <trkpt lat="42.50091" lon="-8.64974">
        <ele>115.98</ele>
        <time>2019-06-06T07:33:16Z</time>
      </trkpt>
      <trkpt lat="42.50108" lon="-8.64973">
        <ele>115.98</ele>
        <time>2019-06-06T07:33:29Z</time>
      </trkpt>
      <trkpt lat="42.5012" lon="-8.64969">
        <ele>116.46</ele>
        <time>2019-06-06T07:33:39Z</time>
      </trkpt>
      <trkpt lat="42.50133" lon="-8.64971">
        <ele>116.94</ele>
        <time>2019-06-06T07:33:48Z</time>
      </trkpt>
      <trkpt lat="42.50149" lon="-8.64983">
        <ele>118.86</ele>
        <time>2019-06-06T07:34:02Z</time>
      </trkpt>
      <trkpt lat="42.5016" lon="-8.64998">
        <ele>120.78</ele>
        <time>2019-06-06T07:34:17Z</time>
      </trkpt>
      <trkpt lat="42.50169" lon="-8.65009">
        <ele>122.71</ele>
        <time>2019-06-06T07:34:31Z</time>
      </trkpt>
      <trkpt lat="42.50184" lon="-8.65019">
        <ele>123.19</ele>
        <time>2019-06-06T07:34:46Z</time>
      </trkpt>
      <trkpt lat="42.50195" lon="-8.65028">
        <ele>124.15</ele>
        <time>2019-06-06T07:34:59Z</time>
      </trkpt>
      <trkpt lat="42.50201" lon="-8.65031">
        <ele>124.15</ele>
        <time>2019-06-06T07:35:06Z</time>
      </trkpt>
      <trkpt lat="42.50209" lon="-8.65032">
        <ele>125.11</ele>
        <time>2019-06-06T07:35:13Z</time>
      </trkpt>
      <trkpt lat="42.50223" lon="-8.65041">
        <ele>124.15</ele>
        <time>2019-06-06T07:35:26Z</time>
      </trkpt>
      <trkpt lat="42.50228" lon="-8.65042">
        <ele>124.15</ele>
        <time>2019-06-06T07:35:31Z</time>
      </trkpt>
      <trkpt lat="42.50234" lon="-8.65043">
        <ele>123.19</ele>
        <time>2019-06-06T07:35:37Z</time>
      </trkpt>
      <trkpt lat="42.50236" lon="-8.65043">
        <ele>124.15</ele>
        <time>2019-06-06T07:35:39Z</time>
      </trkpt>
      <trkpt lat="42.50242" lon="-8.65046">
        <ele>124.15</ele>
        <time>2019-06-06T07:35:44Z</time>
      </trkpt>
      <trkpt lat="42.50262" lon="-8.65052">
        <ele>123.67</ele>
        <time>2019-06-06T07:36:00Z</time>
      </trkpt>
      <trkpt lat="42.50282" lon="-8.65069">
        <ele>123.67</ele>
        <time>2019-06-06T07:36:15Z</time>
      </trkpt>
      <trkpt lat="42.50292" lon="-8.6507">
        <ele>123.19</ele>
        <time>2019-06-06T07:36:25Z</time>
      </trkpt>
      <trkpt lat="42.50305" lon="-8.65076">
        <ele>123.67</ele>
        <time>2019-06-06T07:36:37Z</time>
      </trkpt>
      <trkpt lat="42.50311" lon="-8.65079">
        <ele>123.19</ele>
        <time>2019-06-06T07:36:41Z</time>
      </trkpt>
      <trkpt lat="42.50315" lon="-8.65082">
        <ele>124.15</ele>
        <time>2019-06-06T07:36:44Z</time>
      </trkpt>
      <trkpt lat="42.50319" lon="-8.65083">
        <ele>123.67</ele>
        <time>2019-06-06T07:36:47Z</time>
      </trkpt>
      <trkpt lat="42.50336" lon="-8.65088">
        <ele>124.63</ele>
        <time>2019-06-06T07:37:02Z</time>
      </trkpt>
      <trkpt lat="42.50346" lon="-8.65088">
        <ele>125.11</ele>
        <time>2019-06-06T07:37:10Z</time>
      </trkpt>
      <trkpt lat="42.50349" lon="-8.65087">
        <ele>125.11</ele>
        <time>2019-06-06T07:37:12Z</time>
      </trkpt>
      <trkpt lat="42.50357" lon="-8.65089">
        <ele>126.07</ele>
        <time>2019-06-06T07:37:19Z</time>
      </trkpt>
      <trkpt lat="42.50367" lon="-8.65088">
        <ele>126.55</ele>
        <time>2019-06-06T07:37:30Z</time>
      </trkpt>
      <trkpt lat="42.5037" lon="-8.65088">
        <ele>126.07</ele>
        <time>2019-06-06T07:37:32Z</time>
      </trkpt>
      <trkpt lat="42.50389" lon="-8.65091">
        <ele>127.03</ele>
        <time>2019-06-06T07:37:47Z</time>
      </trkpt>
      <trkpt lat="42.50392" lon="-8.6509">
        <ele>127.99</ele>
        <time>2019-06-06T07:37:49Z</time>
      </trkpt>
      <trkpt lat="42.50398" lon="-8.65087">
        <ele>128.47</ele>
        <time>2019-06-06T07:37:54Z</time>
      </trkpt>
      <trkpt lat="42.50407" lon="-8.65081">
        <ele>128.47</ele>
        <time>2019-06-06T07:38:02Z</time>
      </trkpt>
      <trkpt lat="42.5041" lon="-8.65078">
        <ele>127.99</ele>
        <time>2019-06-06T07:38:05Z</time>
      </trkpt>
      <trkpt lat="42.50413" lon="-8.65074">
        <ele>128.95</ele>
        <time>2019-06-06T07:38:09Z</time>
      </trkpt>
      <trkpt lat="42.50427" lon="-8.65056">
        <ele>128.95</ele>
        <time>2019-06-06T07:38:25Z</time>
      </trkpt>
      <trkpt lat="42.50428" lon="-8.65055">
        <ele>129.92</ele>
        <time>2019-06-06T07:38:26Z</time>
      </trkpt>
      <trkpt lat="42.50438" lon="-8.65044">
        <ele>130.4</ele>
        <time>2019-06-06T07:38:39Z</time>
      </trkpt>
      <trkpt lat="42.50441" lon="-8.6504">
        <ele>130.88</ele>
        <time>2019-06-06T07:38:42Z</time>
      </trkpt>
      <trkpt lat="42.50447" lon="-8.65028">
        <ele>130.4</ele>
        <time>2019-06-06T07:38:54Z</time>
      </trkpt>
      <trkpt lat="42.50447" lon="-8.65026">
        <ele>130.4</ele>
        <time>2019-06-06T07:38:55Z</time>
      </trkpt>
      <trkpt lat="42.50456" lon="-8.65017">
        <ele>129.92</ele>
        <time>2019-06-06T07:39:03Z</time>
      </trkpt>
      <trkpt lat="42.50459" lon="-8.65014">
        <ele>129.43</ele>
        <time>2019-06-06T07:39:07Z</time>
      </trkpt>
      <trkpt lat="42.50462" lon="-8.65011">
        <ele>128.95</ele>
        <time>2019-06-06T07:39:10Z</time>
      </trkpt>
      <trkpt lat="42.50465" lon="-8.64993">
        <ele>128.95</ele>
        <time>2019-06-06T07:39:23Z</time>
      </trkpt>
      <trkpt lat="42.50467" lon="-8.64991">
        <ele>128.47</ele>
        <time>2019-06-06T07:39:25Z</time>
      </trkpt>
      <trkpt lat="42.50486" lon="-8.64984">
        <ele>126.07</ele>
        <time>2019-06-06T07:39:40Z</time>
      </trkpt>
      <trkpt lat="42.50492" lon="-8.64982">
        <ele>125.59</ele>
        <time>2019-06-06T07:39:46Z</time>
      </trkpt>
      <trkpt lat="42.50512" lon="-8.64967">
        <ele>122.71</ele>
        <time>2019-06-06T07:40:04Z</time>
      </trkpt>
      <trkpt lat="42.50528" lon="-8.64959">
        <ele>121.26</ele>
        <time>2019-06-06T07:40:18Z</time>
      </trkpt>
      <trkpt lat="42.50544" lon="-8.6495">
        <ele>119.82</ele>
        <time>2019-06-06T07:40:31Z</time>
      </trkpt>
      <trkpt lat="42.50547" lon="-8.64948">
        <ele>119.82</ele>
        <time>2019-06-06T07:40:33Z</time>
      </trkpt>
      <trkpt lat="42.50554" lon="-8.64944">
        <ele>118.86</ele>
        <time>2019-06-06T07:40:46Z</time>
      </trkpt>
      <trkpt lat="42.50561" lon="-8.64938">
        <ele>118.86</ele>
        <time>2019-06-06T07:40:52Z</time>
      </trkpt>
      <trkpt lat="42.50572" lon="-8.64933">
        <ele>118.86</ele>
        <time>2019-06-06T07:41:05Z</time>
      </trkpt>
      <trkpt lat="42.50589" lon="-8.64925">
        <ele>117.42</ele>
        <time>2019-06-06T07:41:19Z</time>
      </trkpt>
      <trkpt lat="42.50594" lon="-8.64924">
        <ele>117.42</ele>
        <time>2019-06-06T07:41:23Z</time>
      </trkpt>
      <trkpt lat="42.50597" lon="-8.64921">
        <ele>116.94</ele>
        <time>2019-06-06T07:41:26Z</time>
      </trkpt>
      <trkpt lat="42.50603" lon="-8.6492">
        <ele>116.46</ele>
        <time>2019-06-06T07:41:32Z</time>
      </trkpt>
      <trkpt lat="42.50613" lon="-8.64909">
        <ele>116.94</ele>
        <time>2019-06-06T07:41:44Z</time>
      </trkpt>
      <trkpt lat="42.50615" lon="-8.64906">
        <ele>116.94</ele>
        <time>2019-06-06T07:41:48Z</time>
      </trkpt>
      <trkpt lat="42.50625" lon="-8.64898">
        <ele>117.42</ele>
        <time>2019-06-06T07:41:58Z</time>
      </trkpt>
      <trkpt lat="42.50636" lon="-8.64887">
        <ele>116.94</ele>
        <time>2019-06-06T07:42:10Z</time>
      </trkpt>
      <trkpt lat="42.50639" lon="-8.64885">
        <ele>116.46</ele>
        <time>2019-06-06T07:42:13Z</time>
      </trkpt>
      <trkpt lat="42.50648" lon="-8.64876">
        <ele>115.98</ele>
        <time>2019-06-06T07:42:21Z</time>
      </trkpt>
      <trkpt lat="42.50658" lon="-8.6487">
        <ele>115.5</ele>
        <time>2019-06-06T07:42:29Z</time>
      </trkpt>
      <trkpt lat="42.50662" lon="-8.6487">
        <ele>115.01</ele>
        <time>2019-06-06T07:42:32Z</time>
      </trkpt>
      <trkpt lat="42.50676" lon="-8.64876">
        <ele>114.53</ele>
        <time>2019-06-06T07:42:44Z</time>
      </trkpt>
      <trkpt lat="42.50693" lon="-8.64884">
        <ele>112.61</ele>
        <time>2019-06-06T07:42:59Z</time>
      </trkpt>
      <trkpt lat="42.50698" lon="-8.64887">
        <ele>112.13</ele>
        <time>2019-06-06T07:43:02Z</time>
      </trkpt>
      <trkpt lat="42.50714" lon="-8.64886">
        <ele>110.69</ele>
        <time>2019-06-06T07:43:15Z</time>
      </trkpt>
      <trkpt lat="42.50728" lon="-8.64877">
        <ele>109.25</ele>
        <time>2019-06-06T07:43:27Z</time>
      </trkpt>
      <trkpt lat="42.5074" lon="-8.64869">
        <ele>108.77</ele>
        <time>2019-06-06T07:43:39Z</time>
      </trkpt>
      <trkpt lat="42.50751" lon="-8.64874">
        <ele>107.81</ele>
        <time>2019-06-06T07:43:51Z</time>
      </trkpt>
      <trkpt lat="42.50772" lon="-8.64888">
        <ele>107.32</ele>
        <time>2019-06-06T07:44:07Z</time>
      </trkpt>
      <trkpt lat="42.50779" lon="-8.64899">
        <ele>106.84</ele>
        <time>2019-06-06T07:44:14Z</time>
      </trkpt>
      <trkpt lat="42.50795" lon="-8.64906">
        <ele>107.32</ele>
        <time>2019-06-06T07:44:27Z</time>
      </trkpt>
      <trkpt lat="42.50806" lon="-8.64906">
        <ele>108.77</ele>
        <time>2019-06-06T07:44:37Z</time>
      </trkpt>
      <trkpt lat="42.50817" lon="-8.64909">
        <ele>110.21</ele>
        <time>2019-06-06T07:44:47Z</time>
      </trkpt>
      <trkpt lat="42.5082" lon="-8.64911">
        <ele>110.21</ele>
        <time>2019-06-06T07:44:50Z</time>
      </trkpt>
      <trkpt lat="42.50834" lon="-8.64913">
        <ele>111.17</ele>
        <time>2019-06-06T07:45:05Z</time>
      </trkpt>
      <trkpt lat="42.50838" lon="-8.64912">
        <ele>112.61</ele>
        <time>2019-06-06T07:45:10Z</time>
      </trkpt>
      <trkpt lat="42.50848" lon="-8.64919">
        <ele>113.57</ele>
        <time>2019-06-06T07:45:24Z</time>
      </trkpt>
      <trkpt lat="42.50851" lon="-8.6492">
        <ele>113.09</ele>
        <time>2019-06-06T07:45:26Z</time>
      </trkpt>
      <trkpt lat="42.50866" lon="-8.64922">
        <ele>114.05</ele>
        <time>2019-06-06T07:45:40Z</time>
      </trkpt>
      <trkpt lat="42.50878" lon="-8.64925">
        <ele>113.57</ele>
        <time>2019-06-06T07:45:53Z</time>
      </trkpt>
      <trkpt lat="42.50894" lon="-8.64928">
        <ele>113.09</ele>
        <time>2019-06-06T07:46:06Z</time>
      </trkpt>
      <trkpt lat="42.50899" lon="-8.64929">
        <ele>113.57</ele>
        <time>2019-06-06T07:46:12Z</time>
      </trkpt>
      <trkpt lat="42.50911" lon="-8.64927">
        <ele>111.65</ele>
        <time>2019-06-06T07:46:21Z</time>
      </trkpt>
      <trkpt lat="42.5093" lon="-8.64923">
        <ele>108.77</ele>
        <time>2019-06-06T07:46:38Z</time>
      </trkpt>
      <trkpt lat="42.50932" lon="-8.64923">
        <ele>108.77</ele>
        <time>2019-06-06T07:46:39Z</time>
      </trkpt>
      <trkpt lat="42.50947" lon="-8.6492">
        <ele>105.4</ele>
        <time>2019-06-06T07:46:54Z</time>
      </trkpt>
      <trkpt lat="42.50967" lon="-8.6492">
        <ele>103</ele>
        <time>2019-06-06T07:47:07Z</time>
      </trkpt>
      <trkpt lat="42.50974" lon="-8.6492">
        <ele>102.52</ele>
        <time>2019-06-06T07:47:12Z</time>
      </trkpt>
      <trkpt lat="42.50976" lon="-8.64921">
        <ele>102.52</ele>
        <time>2019-06-06T07:47:14Z</time>
      </trkpt>
      <trkpt lat="42.50996" lon="-8.64919">
        <ele>101.08</ele>
        <time>2019-06-06T07:47:27Z</time>
      </trkpt>
      <trkpt lat="42.50998" lon="-8.64919">
        <ele>101.08</ele>
        <time>2019-06-06T07:47:28Z</time>
      </trkpt>
      <trkpt lat="42.51015" lon="-8.64907">
        <ele>101.08</ele>
        <time>2019-06-06T07:47:43Z</time>
      </trkpt>
      <trkpt lat="42.51023" lon="-8.64902">
        <ele>101.08</ele>
        <time>2019-06-06T07:47:51Z</time>
      </trkpt>
      <trkpt lat="42.51038" lon="-8.64898">
        <ele>101.56</ele>
        <time>2019-06-06T07:48:01Z</time>
      </trkpt>
      <trkpt lat="42.51047" lon="-8.64888">
        <ele>102.52</ele>
        <time>2019-06-06T07:48:11Z</time>
      </trkpt>
      <trkpt lat="42.51056" lon="-8.64877">
        <ele>103.96</ele>
        <time>2019-06-06T07:48:23Z</time>
      </trkpt>
      <trkpt lat="42.51066" lon="-8.64877">
        <ele>103.48</ele>
        <time>2019-06-06T07:48:38Z</time>
      </trkpt>
      <trkpt lat="42.51066" lon="-8.6488">
        <ele>102.52</ele>
        <time>2019-06-06T07:48:40Z</time>
      </trkpt>
      <trkpt lat="42.51074" lon="-8.64895">
        <ele>100.11</ele>
        <time>2019-06-06T07:48:56Z</time>
      </trkpt>
      <trkpt lat="42.51075" lon="-8.64898">
        <ele>99.15</ele>
        <time>2019-06-06T07:48:58Z</time>
      </trkpt>
      <trkpt lat="42.51081" lon="-8.6492">
        <ele>96.75</ele>
        <time>2019-06-06T07:49:13Z</time>
      </trkpt>
      <trkpt lat="42.51086" lon="-8.64935">
        <ele>93.87</ele>
        <time>2019-06-06T07:49:25Z</time>
      </trkpt>
      <trkpt lat="42.51092" lon="-8.64952">
        <ele>91.46</ele>
        <time>2019-06-06T07:49:38Z</time>
      </trkpt>
      <trkpt lat="42.51095" lon="-8.64958">
        <ele>90.5</ele>
        <time>2019-06-06T07:49:42Z</time>
      </trkpt>
      <trkpt lat="42.51111" lon="-8.64971">
        <ele>87.14</ele>
        <time>2019-06-06T07:49:57Z</time>
      </trkpt>
      <trkpt lat="42.51112" lon="-8.64973">
        <ele>86.66</ele>
        <time>2019-06-06T07:49:58Z</time>
      </trkpt>
      <trkpt lat="42.51123" lon="-8.6499">
        <ele>84.73</ele>
        <time>2019-06-06T07:50:10Z</time>
      </trkpt>
      <trkpt lat="42.51124" lon="-8.64994">
        <ele>83.29</ele>
        <time>2019-06-06T07:50:12Z</time>
      </trkpt>
      <trkpt lat="42.51125" lon="-8.64997">
        <ele>82.33</ele>
        <time>2019-06-06T07:50:14Z</time>
      </trkpt>
      <trkpt lat="42.51128" lon="-8.65004">
        <ele>81.85</ele>
        <time>2019-06-06T07:50:19Z</time>
      </trkpt>
      <trkpt lat="42.51135" lon="-8.65012">
        <ele>80.89</ele>
        <time>2019-06-06T07:50:26Z</time>
      </trkpt>
      <trkpt lat="42.51139" lon="-8.65013">
        <ele>80.41</ele>
        <time>2019-06-06T07:50:30Z</time>
      </trkpt>
      <trkpt lat="42.51144" lon="-8.65015">
        <ele>80.41</ele>
        <time>2019-06-06T07:50:34Z</time>
      </trkpt>
      <trkpt lat="42.51156" lon="-8.65021">
        <ele>78.97</ele>
        <time>2019-06-06T07:50:44Z</time>
      </trkpt>
      <trkpt lat="42.51178" lon="-8.65017">
        <ele>78</ele>
        <time>2019-06-06T07:51:01Z</time>
      </trkpt>
      <trkpt lat="42.51196" lon="-8.65015">
        <ele>75.6</ele>
        <time>2019-06-06T07:51:15Z</time>
      </trkpt>
      <trkpt lat="42.51198" lon="-8.6502">
        <ele>75.6</ele>
        <time>2019-06-06T07:51:35Z</time>
      </trkpt>
      <trkpt lat="42.51206" lon="-8.65014">
        <ele>75.12</ele>
        <time>2019-06-06T07:51:47Z</time>
      </trkpt>
      <trkpt lat="42.51208" lon="-8.65013">
        <ele>75.6</ele>
        <time>2019-06-06T07:52:13Z</time>
      </trkpt>
      <trkpt lat="42.51228" lon="-8.65009">
        <ele>75.12</ele>
        <time>2019-06-06T07:52:30Z</time>
      </trkpt>
      <trkpt lat="42.51249" lon="-8.65006">
        <ele>74.16</ele>
        <time>2019-06-06T07:52:47Z</time>
      </trkpt>
      <trkpt lat="42.51264" lon="-8.65005">
        <ele>73.2</ele>
        <time>2019-06-06T07:52:59Z</time>
      </trkpt>
      <trkpt lat="42.51269" lon="-8.65003">
        <ele>73.2</ele>
        <time>2019-06-06T07:53:03Z</time>
      </trkpt>
      <trkpt lat="42.51284" lon="-8.64999">
        <ele>72.72</ele>
        <time>2019-06-06T07:53:16Z</time>
      </trkpt>
      <trkpt lat="42.51305" lon="-8.6499">
        <ele>71.76</ele>
        <time>2019-06-06T07:53:33Z</time>
      </trkpt>
      <trkpt lat="42.51315" lon="-8.6498">
        <ele>74.16</ele>
        <time>2019-06-06T07:53:47Z</time>
      </trkpt>
      <trkpt lat="42.51324" lon="-8.64969">
        <ele>75.6</ele>
        <time>2019-06-06T07:53:59Z</time>
      </trkpt>
      <trkpt lat="42.51328" lon="-8.64963">
        <ele>75.12</ele>
        <time>2019-06-06T07:54:06Z</time>
      </trkpt>
      <trkpt lat="42.5133" lon="-8.64961">
        <ele>75.12</ele>
        <time>2019-06-06T07:54:08Z</time>
      </trkpt>
      <trkpt lat="42.51346" lon="-8.64948">
        <ele>76.08</ele>
        <time>2019-06-06T07:54:21Z</time>
      </trkpt>
      <trkpt lat="42.51353" lon="-8.64942">
        <ele>76.08</ele>
        <time>2019-06-06T07:54:28Z</time>
      </trkpt>
      <trkpt lat="42.51355" lon="-8.6494">
        <ele>76.08</ele>
        <time>2019-06-06T07:54:30Z</time>
      </trkpt>
      <trkpt lat="42.51366" lon="-8.6493">
        <ele>76.56</ele>
        <time>2019-06-06T07:54:43Z</time>
      </trkpt>
      <trkpt lat="42.51368" lon="-8.64928">
        <ele>76.08</ele>
        <time>2019-06-06T07:54:45Z</time>
      </trkpt>
      <trkpt lat="42.51376" lon="-8.6492">
        <ele>76.56</ele>
        <time>2019-06-06T07:54:53Z</time>
      </trkpt>
      <trkpt lat="42.51384" lon="-8.64913">
        <ele>76.08</ele>
        <time>2019-06-06T07:55:01Z</time>
      </trkpt>
      <trkpt lat="42.51402" lon="-8.64902">
        <ele>77.04</ele>
        <time>2019-06-06T07:55:16Z</time>
      </trkpt>
      <trkpt lat="42.51418" lon="-8.64894">
        <ele>76.56</ele>
        <time>2019-06-06T07:55:29Z</time>
      </trkpt>
      <trkpt lat="42.51426" lon="-8.6489">
        <ele>77.04</ele>
        <time>2019-06-06T07:55:36Z</time>
      </trkpt>
      <trkpt lat="42.51445" lon="-8.64882">
        <ele>77.52</ele>
        <time>2019-06-06T07:55:52Z</time>
      </trkpt>
      <trkpt lat="42.51451" lon="-8.64879">
        <ele>77.52</ele>
        <time>2019-06-06T07:55:57Z</time>
      </trkpt>
      <trkpt lat="42.51466" lon="-8.64871">
        <ele>78</ele>
        <time>2019-06-06T07:56:11Z</time>
      </trkpt>
      <trkpt lat="42.51483" lon="-8.64863">
        <ele>78.48</ele>
        <time>2019-06-06T07:56:25Z</time>
      </trkpt>
      <trkpt lat="42.51493" lon="-8.64858">
        <ele>78.97</ele>
        <time>2019-06-06T07:56:33Z</time>
      </trkpt>
      <trkpt lat="42.51512" lon="-8.64851">
        <ele>78.48</ele>
        <time>2019-06-06T07:56:48Z</time>
      </trkpt>
      <trkpt lat="42.51529" lon="-8.64843">
        <ele>78</ele>
        <time>2019-06-06T07:57:03Z</time>
      </trkpt>
      <trkpt lat="42.51546" lon="-8.64827">
        <ele>77.04</ele>
        <time>2019-06-06T07:57:19Z</time>
      </trkpt>
      <trkpt lat="42.51562" lon="-8.64817">
        <ele>75.6</ele>
        <time>2019-06-06T07:57:33Z</time>
      </trkpt>
      <trkpt lat="42.51577" lon="-8.64803">
        <ele>75.12</ele>
        <time>2019-06-06T07:57:48Z</time>
      </trkpt>
      <trkpt lat="42.5159" lon="-8.64792">
        <ele>75.12</ele>
        <time>2019-06-06T07:58:01Z</time>
      </trkpt>
      <trkpt lat="42.51608" lon="-8.64784">
        <ele>74.64</ele>
        <time>2019-06-06T07:58:15Z</time>
      </trkpt>
      <trkpt lat="42.51616" lon="-8.64781">
        <ele>74.16</ele>
        <time>2019-06-06T07:58:21Z</time>
      </trkpt>
      <trkpt lat="42.51618" lon="-8.64779">
        <ele>74.16</ele>
        <time>2019-06-06T07:58:23Z</time>
      </trkpt>
      <trkpt lat="42.51622" lon="-8.64776">
        <ele>73.68</ele>
        <time>2019-06-06T07:58:27Z</time>
      </trkpt>
      <trkpt lat="42.51639" lon="-8.64765">
        <ele>72.24</ele>
        <time>2019-06-06T07:58:42Z</time>
      </trkpt>
      <trkpt lat="42.51656" lon="-8.64756">
        <ele>74.16</ele>
        <time>2019-06-06T07:58:58Z</time>
      </trkpt>
      <trkpt lat="42.51673" lon="-8.6475">
        <ele>75.6</ele>
        <time>2019-06-06T07:59:14Z</time>
      </trkpt>
      <trkpt lat="42.51692" lon="-8.64742">
        <ele>75.6</ele>
        <time>2019-06-06T07:59:29Z</time>
      </trkpt>
      <trkpt lat="42.51696" lon="-8.64737">
        <ele>75.12</ele>
        <time>2019-06-06T07:59:38Z</time>
      </trkpt>
      <trkpt lat="42.51702" lon="-8.64735">
        <ele>75.12</ele>
        <time>2019-06-06T07:59:43Z</time>
      </trkpt>
      <trkpt lat="42.51709" lon="-8.64728">
        <ele>74.16</ele>
        <time>2019-06-06T07:59:51Z</time>
      </trkpt>
      <trkpt lat="42.51721" lon="-8.64719">
        <ele>73.68</ele>
        <time>2019-06-06T08:00:03Z</time>
      </trkpt>
      <trkpt lat="42.51722" lon="-8.64719">
        <ele>73.68</ele>
        <time>2019-06-06T08:00:04Z</time>
      </trkpt>
      <trkpt lat="42.51732" lon="-8.64713">
        <ele>73.2</ele>
        <time>2019-06-06T08:00:12Z</time>
      </trkpt>
      <trkpt lat="42.5174" lon="-8.64705">
        <ele>73.68</ele>
        <time>2019-06-06T08:00:21Z</time>
      </trkpt>
      <trkpt lat="42.51755" lon="-8.64693">
        <ele>73.68</ele>
        <time>2019-06-06T08:00:34Z</time>
      </trkpt>
      <trkpt lat="42.51768" lon="-8.64684">
        <ele>73.68</ele>
        <time>2019-06-06T08:00:45Z</time>
      </trkpt>
      <trkpt lat="42.51781" lon="-8.64666">
        <ele>72.72</ele>
        <time>2019-06-06T08:01:00Z</time>
      </trkpt>
      <trkpt lat="42.51788" lon="-8.64657">
        <ele>73.2</ele>
        <time>2019-06-06T08:01:07Z</time>
      </trkpt>
      <trkpt lat="42.51792" lon="-8.64651">
        <ele>72.72</ele>
        <time>2019-06-06T08:01:11Z</time>
      </trkpt>
      <trkpt lat="42.51805" lon="-8.64629">
        <ele>71.76</ele>
        <time>2019-06-06T08:01:27Z</time>
      </trkpt>
      <trkpt lat="42.51813" lon="-8.64618">
        <ele>71.27</ele>
        <time>2019-06-06T08:01:37Z</time>
      </trkpt>
      <trkpt lat="42.51821" lon="-8.64601">
        <ele>71.27</ele>
        <time>2019-06-06T08:01:49Z</time>
      </trkpt>
      <trkpt lat="42.51823" lon="-8.64597">
        <ele>70.79</ele>
        <time>2019-06-06T08:01:52Z</time>
      </trkpt>
      <trkpt lat="42.51829" lon="-8.64588">
        <ele>71.27</ele>
        <time>2019-06-06T08:02:07Z</time>
      </trkpt>
      <trkpt lat="42.51836" lon="-8.64567">
        <ele>71.27</ele>
        <time>2019-06-06T08:02:21Z</time>
      </trkpt>
      <trkpt lat="42.51843" lon="-8.64548">
        <ele>70.79</ele>
        <time>2019-06-06T08:02:35Z</time>
      </trkpt>
      <trkpt lat="42.51842" lon="-8.64531">
        <ele>71.27</ele>
        <time>2019-06-06T08:02:50Z</time>
      </trkpt>
      <trkpt lat="42.51843" lon="-8.64529">
        <ele>70.79</ele>
        <time>2019-06-06T08:02:52Z</time>
      </trkpt>
      <trkpt lat="42.51847" lon="-8.64515">
        <ele>70.31</ele>
        <time>2019-06-06T08:03:06Z</time>
      </trkpt>
      <trkpt lat="42.5185" lon="-8.64512">
        <ele>70.31</ele>
        <time>2019-06-06T08:03:10Z</time>
      </trkpt>
      <trkpt lat="42.51856" lon="-8.64507">
        <ele>69.83</ele>
        <time>2019-06-06T08:03:15Z</time>
      </trkpt>
      <trkpt lat="42.51864" lon="-8.64507">
        <ele>69.35</ele>
        <time>2019-06-06T08:03:20Z</time>
      </trkpt>
      <trkpt lat="42.51873" lon="-8.64518">
        <ele>67.91</ele>
        <time>2019-06-06T08:03:32Z</time>
      </trkpt>
      <trkpt lat="42.51877" lon="-8.64527">
        <ele>67.91</ele>
        <time>2019-06-06T08:03:38Z</time>
      </trkpt>
      <trkpt lat="42.51881" lon="-8.64536">
        <ele>67.43</ele>
        <time>2019-06-06T08:03:44Z</time>
      </trkpt>
      <trkpt lat="42.51889" lon="-8.6454">
        <ele>67.43</ele>
        <time>2019-06-06T08:03:51Z</time>
      </trkpt>
      <trkpt lat="42.51909" lon="-8.64539">
        <ele>66.95</ele>
        <time>2019-06-06T08:04:08Z</time>
      </trkpt>
      <trkpt lat="42.51933" lon="-8.6454">
        <ele>65.51</ele>
        <time>2019-06-06T08:04:25Z</time>
      </trkpt>
      <trkpt lat="42.51946" lon="-8.64541">
        <ele>65.03</ele>
        <time>2019-06-06T08:04:38Z</time>
      </trkpt>
      <trkpt lat="42.51965" lon="-8.64541">
        <ele>64.07</ele>
        <time>2019-06-06T08:04:55Z</time>
      </trkpt>
      <trkpt lat="42.51985" lon="-8.64535">
        <ele>63.58</ele>
        <time>2019-06-06T08:05:11Z</time>
      </trkpt>
      <trkpt lat="42.52001" lon="-8.64519">
        <ele>63.1</ele>
        <time>2019-06-06T08:05:27Z</time>
      </trkpt>
      <trkpt lat="42.52017" lon="-8.645">
        <ele>63.58</ele>
        <time>2019-06-06T08:05:43Z</time>
      </trkpt>
      <trkpt lat="42.52033" lon="-8.6448">
        <ele>62.14</ele>
        <time>2019-06-06T08:06:00Z</time>
      </trkpt>
      <trkpt lat="42.52041" lon="-8.64473">
        <ele>62.14</ele>
        <time>2019-06-06T08:06:07Z</time>
      </trkpt>
      <trkpt lat="42.52053" lon="-8.6447">
        <ele>62.14</ele>
        <time>2019-06-06T08:06:15Z</time>
      </trkpt>
      <trkpt lat="42.52075" lon="-8.64464">
        <ele>61.18</ele>
        <time>2019-06-06T08:06:32Z</time>
      </trkpt>
      <trkpt lat="42.52083" lon="-8.64463">
        <ele>61.18</ele>
        <time>2019-06-06T08:06:38Z</time>
      </trkpt>
      <trkpt lat="42.52104" lon="-8.6448">
        <ele>59.74</ele>
        <time>2019-06-06T08:06:58Z</time>
      </trkpt>
      <trkpt lat="42.52117" lon="-8.64495">
        <ele>59.26</ele>
        <time>2019-06-06T08:07:14Z</time>
      </trkpt>
      <trkpt lat="42.52131" lon="-8.64502">
        <ele>60.22</ele>
        <time>2019-06-06T08:07:28Z</time>
      </trkpt>
      <trkpt lat="42.52137" lon="-8.64506">
        <ele>60.22</ele>
        <time>2019-06-06T08:07:33Z</time>
      </trkpt>
      <trkpt lat="42.52146" lon="-8.64509">
        <ele>60.22</ele>
        <time>2019-06-06T08:07:42Z</time>
      </trkpt>
      <trkpt lat="42.52176" lon="-8.64511">
        <ele>61.18</ele>
        <time>2019-06-06T08:08:02Z</time>
      </trkpt>
      <trkpt lat="42.52193" lon="-8.64513">
        <ele>62.14</ele>
        <time>2019-06-06T08:08:15Z</time>
      </trkpt>
      <trkpt lat="42.52212" lon="-8.64516">
        <ele>63.1</ele>
        <time>2019-06-06T08:08:31Z</time>
      </trkpt>
      <trkpt lat="42.52218" lon="-8.64519">
        <ele>63.58</ele>
        <time>2019-06-06T08:08:44Z</time>
      </trkpt>
      <trkpt lat="42.52233" lon="-8.64523">
        <ele>65.03</ele>
        <time>2019-06-06T08:08:59Z</time>
      </trkpt>
      <trkpt lat="42.52249" lon="-8.6453">
        <ele>66.47</ele>
        <time>2019-06-06T08:09:14Z</time>
      </trkpt>
      <trkpt lat="42.52264" lon="-8.64542">
        <ele>67.91</ele>
        <time>2019-06-06T08:09:30Z</time>
      </trkpt>
      <trkpt lat="42.52277" lon="-8.64552">
        <ele>68.39</ele>
        <time>2019-06-06T08:09:45Z</time>
      </trkpt>
      <trkpt lat="42.5229" lon="-8.64558">
        <ele>69.83</ele>
        <time>2019-06-06T08:09:58Z</time>
      </trkpt>
      <trkpt lat="42.52295" lon="-8.64561">
        <ele>70.31</ele>
        <time>2019-06-06T08:10:03Z</time>
      </trkpt>
      <trkpt lat="42.52316" lon="-8.64567">
        <ele>71.76</ele>
        <time>2019-06-06T08:10:20Z</time>
      </trkpt>
      <trkpt lat="42.52321" lon="-8.6457">
        <ele>72.24</ele>
        <time>2019-06-06T08:10:25Z</time>
      </trkpt>
      <trkpt lat="42.52336" lon="-8.64583">
        <ele>73.68</ele>
        <time>2019-06-06T08:10:41Z</time>
      </trkpt>
      <trkpt lat="42.52344" lon="-8.64598">
        <ele>75.12</ele>
        <time>2019-06-06T08:10:55Z</time>
      </trkpt>
      <trkpt lat="42.52347" lon="-8.6462">
        <ele>77.52</ele>
        <time>2019-06-06T08:11:09Z</time>
      </trkpt>
      <trkpt lat="42.52344" lon="-8.64636">
        <ele>78.48</ele>
        <time>2019-06-06T08:11:22Z</time>
      </trkpt>
      <trkpt lat="42.52339" lon="-8.64656">
        <ele>79.93</ele>
        <time>2019-06-06T08:11:37Z</time>
      </trkpt>
      <trkpt lat="42.52342" lon="-8.64668">
        <ele>79.45</ele>
        <time>2019-06-06T08:11:50Z</time>
      </trkpt>
      <trkpt lat="42.52349" lon="-8.64666">
        <ele>78.48</ele>
        <time>2019-06-06T08:12:03Z</time>
      </trkpt>
      <trkpt lat="42.52353" lon="-8.64663">
        <ele>78</ele>
        <time>2019-06-06T08:12:18Z</time>
      </trkpt>
      <trkpt lat="42.52369" lon="-8.64652">
        <ele>78</ele>
        <time>2019-06-06T08:12:33Z</time>
      </trkpt>
      <trkpt lat="42.52387" lon="-8.64642">
        <ele>76.56</ele>
        <time>2019-06-06T08:12:49Z</time>
      </trkpt>
      <trkpt lat="42.524" lon="-8.64644">
        <ele>75.6</ele>
        <time>2019-06-06T08:13:02Z</time>
      </trkpt>
      <trkpt lat="42.52416" lon="-8.64649">
        <ele>75.6</ele>
        <time>2019-06-06T08:13:16Z</time>
      </trkpt>
      <trkpt lat="42.52435" lon="-8.64654">
        <ele>73.68</ele>
        <time>2019-06-06T08:13:31Z</time>
      </trkpt>
      <trkpt lat="42.52453" lon="-8.64657">
        <ele>73.2</ele>
        <time>2019-06-06T08:13:46Z</time>
      </trkpt>
      <trkpt lat="42.52455" lon="-8.64663">
        <ele>73.68</ele>
        <time>2019-06-06T08:14:00Z</time>
      </trkpt>
      <trkpt lat="42.52456" lon="-8.64665">
        <ele>72.72</ele>
        <time>2019-06-06T08:14:18Z</time>
      </trkpt>
      <trkpt lat="42.52457" lon="-8.64669">
        <ele>74.16</ele>
        <time>2019-06-06T08:14:39Z</time>
      </trkpt>
      <trkpt lat="42.52455" lon="-8.64667">
        <ele>73.2</ele>
        <time>2019-06-06T08:15:01Z</time>
      </trkpt>
      <trkpt lat="42.52458" lon="-8.64663">
        <ele>71.76</ele>
        <time>2019-06-06T08:15:17Z</time>
      </trkpt>
      <trkpt lat="42.52461" lon="-8.64662">
        <ele>72.24</ele>
        <time>2019-06-06T08:15:47Z</time>
      </trkpt>
      <trkpt lat="42.52458" lon="-8.64662">
        <ele>72.24</ele>
        <time>2019-06-06T08:16:19Z</time>
      </trkpt>
      <trkpt lat="42.52459" lon="-8.64662">
        <ele>73.2</ele>
        <time>2019-06-06T08:16:55Z</time>
      </trkpt>
      <trkpt lat="42.52458" lon="-8.64663">
        <ele>73.2</ele>
        <time>2019-06-06T08:17:36Z</time>
      </trkpt>
      <trkpt lat="42.52458" lon="-8.64662">
        <ele>73.68</ele>
        <time>2019-06-06T08:18:09Z</time>
      </trkpt>
      <trkpt lat="42.52458" lon="-8.64661">
        <ele>74.16</ele>
        <time>2019-06-06T08:18:41Z</time>
      </trkpt>
      <trkpt lat="42.52457" lon="-8.64661">
        <ele>74.64</ele>
        <time>2019-06-06T08:19:11Z</time>
      </trkpt>
      <trkpt lat="42.52458" lon="-8.64661">
        <ele>74.64</ele>
        <time>2019-06-06T08:19:44Z</time>
      </trkpt>
      <trkpt lat="42.52458" lon="-8.6466">
        <ele>75.12</ele>
        <time>2019-06-06T08:20:19Z</time>
      </trkpt>
      <trkpt lat="42.52458" lon="-8.64661">
        <ele>74.64</ele>
        <time>2019-06-06T08:20:54Z</time>
      </trkpt>
      <trkpt lat="42.5246" lon="-8.64661">
        <ele>75.6</ele>
        <time>2019-06-06T08:21:26Z</time>
      </trkpt>
      <trkpt lat="42.52458" lon="-8.6466">
        <ele>75.12</ele>
        <time>2019-06-06T08:21:57Z</time>
      </trkpt>
      <trkpt lat="42.52456" lon="-8.6466">
        <ele>76.08</ele>
        <time>2019-06-06T08:22:39Z</time>
      </trkpt>
      <trkpt lat="42.52457" lon="-8.64663">
        <ele>76.56</ele>
        <time>2019-06-06T08:23:20Z</time>
      </trkpt>
      <trkpt lat="42.52456" lon="-8.64662">
        <ele>76.56</ele>
        <time>2019-06-06T08:23:59Z</time>
      </trkpt>
      <trkpt lat="42.5246" lon="-8.6466">
        <ele>77.04</ele>
        <time>2019-06-06T08:24:35Z</time>
      </trkpt>
      <trkpt lat="42.52459" lon="-8.6466">
        <ele>78</ele>
        <time>2019-06-06T08:25:10Z</time>
      </trkpt>
      <trkpt lat="42.52457" lon="-8.64664">
        <ele>76.56</ele>
        <time>2019-06-06T08:25:51Z</time>
      </trkpt>
      <trkpt lat="42.52457" lon="-8.64661">
        <ele>77.04</ele>
        <time>2019-06-06T08:26:22Z</time>
      </trkpt>
      <trkpt lat="42.52458" lon="-8.64663">
        <ele>78.48</ele>
        <time>2019-06-06T08:27:02Z</time>
      </trkpt>
      <trkpt lat="42.52458" lon="-8.64662">
        <ele>78</ele>
        <time>2019-06-06T08:27:36Z</time>
      </trkpt>
      <trkpt lat="42.52458" lon="-8.64662">
        <ele>77.52</ele>
        <time>2019-06-06T08:28:07Z</time>
      </trkpt>
      <trkpt lat="42.52457" lon="-8.64662">
        <ele>78.48</ele>
        <time>2019-06-06T08:28:48Z</time>
      </trkpt>
      <trkpt lat="42.52459" lon="-8.64663">
        <ele>78</ele>
        <time>2019-06-06T08:29:22Z</time>
      </trkpt>
      <trkpt lat="42.52458" lon="-8.6466">
        <ele>78.97</ele>
        <time>2019-06-06T08:29:39Z</time>
      </trkpt>
      <trkpt lat="42.52458" lon="-8.64657">
        <ele>78.97</ele>
        <time>2019-06-06T08:30:10Z</time>
      </trkpt>
      <trkpt lat="42.52459" lon="-8.6466">
        <ele>79.45</ele>
        <time>2019-06-06T08:30:25Z</time>
      </trkpt>
      <trkpt lat="42.52458" lon="-8.6466">
        <ele>78.97</ele>
        <time>2019-06-06T08:30:43Z</time>
      </trkpt>
      <trkpt lat="42.52462" lon="-8.64657">
        <ele>79.93</ele>
        <time>2019-06-06T08:31:05Z</time>
      </trkpt>
      <trkpt lat="42.52461" lon="-8.64658">
        <ele>79.93</ele>
        <time>2019-06-06T08:31:18Z</time>
      </trkpt>
      <trkpt lat="42.5246" lon="-8.64657">
        <ele>79.93</ele>
        <time>2019-06-06T08:31:33Z</time>
      </trkpt>
      <trkpt lat="42.52457" lon="-8.64657">
        <ele>79.45</ele>
        <time>2019-06-06T08:31:52Z</time>
      </trkpt>
      <trkpt lat="42.52456" lon="-8.64655">
        <ele>79.93</ele>
        <time>2019-06-06T08:32:16Z</time>
      </trkpt>
      <trkpt lat="42.52455" lon="-8.64651">
        <ele>79.45</ele>
        <time>2019-06-06T08:32:30Z</time>
      </trkpt>
      <trkpt lat="42.52456" lon="-8.6463">
        <ele>78.97</ele>
        <time>2019-06-06T08:32:46Z</time>
      </trkpt>
      <trkpt lat="42.5246" lon="-8.64606">
        <ele>78</ele>
        <time>2019-06-06T08:33:02Z</time>
      </trkpt>
      <trkpt lat="42.52465" lon="-8.64596">
        <ele>78</ele>
        <time>2019-06-06T08:33:10Z</time>
      </trkpt>
      <trkpt lat="42.52467" lon="-8.64595">
        <ele>78</ele>
        <time>2019-06-06T08:33:12Z</time>
      </trkpt>
      <trkpt lat="42.52471" lon="-8.64594">
        <ele>78.97</ele>
        <time>2019-06-06T08:33:17Z</time>
      </trkpt>
      <trkpt lat="42.5248" lon="-8.64587">
        <ele>77.52</ele>
        <time>2019-06-06T08:33:29Z</time>
      </trkpt>
      <trkpt lat="42.52498" lon="-8.64577">
        <ele>77.04</ele>
        <time>2019-06-06T08:33:44Z</time>
      </trkpt>
      <trkpt lat="42.52515" lon="-8.64568">
        <ele>76.56</ele>
        <time>2019-06-06T08:33:58Z</time>
      </trkpt>
      <trkpt lat="42.52532" lon="-8.64556">
        <ele>76.56</ele>
        <time>2019-06-06T08:34:13Z</time>
      </trkpt>
      <trkpt lat="42.5255" lon="-8.64543">
        <ele>77.04</ele>
        <time>2019-06-06T08:34:29Z</time>
      </trkpt>
      <trkpt lat="42.52566" lon="-8.64527">
        <ele>76.56</ele>
        <time>2019-06-06T08:34:46Z</time>
      </trkpt>
      <trkpt lat="42.52567" lon="-8.64526">
        <ele>76.56</ele>
        <time>2019-06-06T08:34:47Z</time>
      </trkpt>
      <trkpt lat="42.52569" lon="-8.64524">
        <ele>76.56</ele>
        <time>2019-06-06T08:34:50Z</time>
      </trkpt>
      <trkpt lat="42.52574" lon="-8.64518">
        <ele>76.56</ele>
        <time>2019-06-06T08:34:55Z</time>
      </trkpt>
      <trkpt lat="42.52591" lon="-8.645">
        <ele>77.04</ele>
        <time>2019-06-06T08:35:12Z</time>
      </trkpt>
      <trkpt lat="42.52606" lon="-8.64485">
        <ele>78.48</ele>
        <time>2019-06-06T08:35:28Z</time>
      </trkpt>
      <trkpt lat="42.52624" lon="-8.64479">
        <ele>78.48</ele>
        <time>2019-06-06T08:35:44Z</time>
      </trkpt>
      <trkpt lat="42.52632" lon="-8.64478">
        <ele>78.48</ele>
        <time>2019-06-06T08:35:50Z</time>
      </trkpt>
      <trkpt lat="42.52651" lon="-8.64475">
        <ele>79.93</ele>
        <time>2019-06-06T08:36:06Z</time>
      </trkpt>
      <trkpt lat="42.52654" lon="-8.64481">
        <ele>78.48</ele>
        <time>2019-06-06T08:36:12Z</time>
      </trkpt>
      <trkpt lat="42.52664" lon="-8.64498">
        <ele>76.08</ele>
        <time>2019-06-06T08:36:27Z</time>
      </trkpt>
      <trkpt lat="42.52675" lon="-8.645">
        <ele>75.12</ele>
        <time>2019-06-06T08:36:39Z</time>
      </trkpt>
      <trkpt lat="42.52682" lon="-8.645">
        <ele>74.64</ele>
        <time>2019-06-06T08:36:45Z</time>
      </trkpt>
      <trkpt lat="42.52698" lon="-8.64498">
        <ele>73.2</ele>
        <time>2019-06-06T08:36:58Z</time>
      </trkpt>
      <trkpt lat="42.52708" lon="-8.64498">
        <ele>72.24</ele>
        <time>2019-06-06T08:37:06Z</time>
      </trkpt>
      <trkpt lat="42.52723" lon="-8.64499">
        <ele>71.27</ele>
        <time>2019-06-06T08:37:17Z</time>
      </trkpt>
      <trkpt lat="42.52736" lon="-8.64503">
        <ele>70.31</ele>
        <time>2019-06-06T08:37:30Z</time>
      </trkpt>
      <trkpt lat="42.52754" lon="-8.64505">
        <ele>68.87</ele>
        <time>2019-06-06T08:37:42Z</time>
      </trkpt>
      <trkpt lat="42.52766" lon="-8.64509">
        <ele>68.39</ele>
        <time>2019-06-06T08:37:54Z</time>
      </trkpt>
      <trkpt lat="42.52767" lon="-8.64506">
        <ele>67.43</ele>
        <time>2019-06-06T08:38:08Z</time>
      </trkpt>
      <trkpt lat="42.52768" lon="-8.64507">
        <ele>67.43</ele>
        <time>2019-06-06T08:38:33Z</time>
      </trkpt>
      <trkpt lat="42.52767" lon="-8.64507">
        <ele>66.95</ele>
        <time>2019-06-06T08:38:59Z</time>
      </trkpt>
      <trkpt lat="42.52769" lon="-8.64501">
        <ele>66.95</ele>
        <time>2019-06-06T08:39:16Z</time>
      </trkpt>
      <trkpt lat="42.52769" lon="-8.64498">
        <ele>67.91</ele>
        <time>2019-06-06T08:39:31Z</time>
      </trkpt>
      <trkpt lat="42.52771" lon="-8.64499">
        <ele>67.91</ele>
        <time>2019-06-06T08:39:59Z</time>
      </trkpt>
      <trkpt lat="42.52774" lon="-8.64504">
        <ele>66.95</ele>
        <time>2019-06-06T08:40:22Z</time>
      </trkpt>
      <trkpt lat="42.52775" lon="-8.64507">
        <ele>67.43</ele>
        <time>2019-06-06T08:40:38Z</time>
      </trkpt>
      <trkpt lat="42.52772" lon="-8.64504">
        <ele>68.39</ele>
        <time>2019-06-06T08:40:52Z</time>
      </trkpt>
      <trkpt lat="42.52771" lon="-8.64506">
        <ele>67.43</ele>
        <time>2019-06-06T08:40:54Z</time>
      </trkpt>
      <trkpt lat="42.52772" lon="-8.64511">
        <ele>66.95</ele>
        <time>2019-06-06T08:40:59Z</time>
      </trkpt>
      <trkpt lat="42.52777" lon="-8.64511">
        <ele>67.43</ele>
        <time>2019-06-06T08:41:03Z</time>
      </trkpt>
      <trkpt lat="42.52782" lon="-8.64513">
        <ele>66.95</ele>
        <time>2019-06-06T08:41:07Z</time>
      </trkpt>
      <trkpt lat="42.52799" lon="-8.64518">
        <ele>66.47</ele>
        <time>2019-06-06T08:41:23Z</time>
      </trkpt>
      <trkpt lat="42.52807" lon="-8.64519">
        <ele>65.99</ele>
        <time>2019-06-06T08:41:29Z</time>
      </trkpt>
      <trkpt lat="42.52822" lon="-8.64523">
        <ele>64.55</ele>
        <time>2019-06-06T08:41:42Z</time>
      </trkpt>
      <trkpt lat="42.52832" lon="-8.64528">
        <ele>65.51</ele>
        <time>2019-06-06T08:41:51Z</time>
      </trkpt>
      <trkpt lat="42.52844" lon="-8.64555">
        <ele>63.58</ele>
        <time>2019-06-06T08:42:08Z</time>
      </trkpt>
      <trkpt lat="42.52845" lon="-8.64558">
        <ele>63.58</ele>
        <time>2019-06-06T08:42:10Z</time>
      </trkpt>
      <trkpt lat="42.52848" lon="-8.64582">
        <ele>64.07</ele>
        <time>2019-06-06T08:42:23Z</time>
      </trkpt>
      <trkpt lat="42.5285" lon="-8.646">
        <ele>62.62</ele>
        <time>2019-06-06T08:42:35Z</time>
      </trkpt>
      <trkpt lat="42.52851" lon="-8.64605">
        <ele>61.66</ele>
        <time>2019-06-06T08:42:38Z</time>
      </trkpt>
      <trkpt lat="42.52855" lon="-8.64618">
        <ele>62.14</ele>
        <time>2019-06-06T08:42:46Z</time>
      </trkpt>
      <trkpt lat="42.52856" lon="-8.64622">
        <ele>61.66</ele>
        <time>2019-06-06T08:42:48Z</time>
      </trkpt>
      <trkpt lat="42.52866" lon="-8.6463">
        <ele>61.66</ele>
        <time>2019-06-06T08:42:59Z</time>
      </trkpt>
      <trkpt lat="42.52872" lon="-8.64634">
        <ele>62.14</ele>
        <time>2019-06-06T08:43:05Z</time>
      </trkpt>
      <trkpt lat="42.52885" lon="-8.64639">
        <ele>61.66</ele>
        <time>2019-06-06T08:43:17Z</time>
      </trkpt>
      <trkpt lat="42.52896" lon="-8.64641">
        <ele>61.18</ele>
        <time>2019-06-06T08:43:25Z</time>
      </trkpt>
      <trkpt lat="42.52908" lon="-8.64645">
        <ele>60.7</ele>
        <time>2019-06-06T08:43:36Z</time>
      </trkpt>
      <trkpt lat="42.52928" lon="-8.64652">
        <ele>61.18</ele>
        <time>2019-06-06T08:43:50Z</time>
      </trkpt>
      <trkpt lat="42.52937" lon="-8.64656">
        <ele>60.7</ele>
        <time>2019-06-06T08:43:57Z</time>
      </trkpt>
      <trkpt lat="42.52957" lon="-8.64658">
        <ele>60.7</ele>
        <time>2019-06-06T08:44:13Z</time>
      </trkpt>
      <trkpt lat="42.52977" lon="-8.64657">
        <ele>59.74</ele>
        <time>2019-06-06T08:44:29Z</time>
      </trkpt>
      <trkpt lat="42.52999" lon="-8.6466">
        <ele>59.74</ele>
        <time>2019-06-06T08:44:45Z</time>
      </trkpt>
      <trkpt lat="42.53021" lon="-8.64666">
        <ele>58.78</ele>
        <time>2019-06-06T08:45:03Z</time>
      </trkpt>
      <trkpt lat="42.53041" lon="-8.64668">
        <ele>58.3</ele>
        <time>2019-06-06T08:45:18Z</time>
      </trkpt>
      <trkpt lat="42.53062" lon="-8.64666">
        <ele>58.78</ele>
        <time>2019-06-06T08:45:34Z</time>
      </trkpt>
      <trkpt lat="42.53081" lon="-8.6466">
        <ele>58.3</ele>
        <time>2019-06-06T08:45:50Z</time>
      </trkpt>
      <trkpt lat="42.53096" lon="-8.64652">
        <ele>56.86</ele>
        <time>2019-06-06T08:46:04Z</time>
      </trkpt>
      <trkpt lat="42.53116" lon="-8.64645">
        <ele>55.89</ele>
        <time>2019-06-06T08:46:20Z</time>
      </trkpt>
      <trkpt lat="42.53133" lon="-8.64638">
        <ele>56.37</ele>
        <time>2019-06-06T08:46:34Z</time>
      </trkpt>
      <trkpt lat="42.53154" lon="-8.64631">
        <ele>55.41</ele>
        <time>2019-06-06T08:46:50Z</time>
      </trkpt>
      <trkpt lat="42.53174" lon="-8.64625">
        <ele>54.45</ele>
        <time>2019-06-06T08:47:05Z</time>
      </trkpt>
      <trkpt lat="42.53192" lon="-8.64623">
        <ele>54.93</ele>
        <time>2019-06-06T08:47:19Z</time>
      </trkpt>
      <trkpt lat="42.53203" lon="-8.64624">
        <ele>53.97</ele>
        <time>2019-06-06T08:47:28Z</time>
      </trkpt>
      <trkpt lat="42.53212" lon="-8.64624">
        <ele>53.97</ele>
        <time>2019-06-06T08:47:35Z</time>
      </trkpt>
      <trkpt lat="42.53233" lon="-8.64621">
        <ele>53.97</ele>
        <time>2019-06-06T08:47:51Z</time>
      </trkpt>
      <trkpt lat="42.53246" lon="-8.6462">
        <ele>53.97</ele>
        <time>2019-06-06T08:48:00Z</time>
      </trkpt>
      <trkpt lat="42.53264" lon="-8.64614">
        <ele>53.97</ele>
        <time>2019-06-06T08:48:14Z</time>
      </trkpt>
      <trkpt lat="42.53276" lon="-8.64608">
        <ele>53.49</ele>
        <time>2019-06-06T08:48:24Z</time>
      </trkpt>
      <trkpt lat="42.53297" lon="-8.64593">
        <ele>52.53</ele>
        <time>2019-06-06T08:48:42Z</time>
      </trkpt>
      <trkpt lat="42.53314" lon="-8.64581">
        <ele>52.05</ele>
        <time>2019-06-06T08:48:56Z</time>
      </trkpt>
      <trkpt lat="42.5333" lon="-8.6457">
        <ele>52.53</ele>
        <time>2019-06-06T08:49:10Z</time>
      </trkpt>
      <trkpt lat="42.5335" lon="-8.64561">
        <ele>52.53</ele>
        <time>2019-06-06T08:49:27Z</time>
      </trkpt>
      <trkpt lat="42.53369" lon="-8.64555">
        <ele>52.05</ele>
        <time>2019-06-06T08:49:43Z</time>
      </trkpt>
      <trkpt lat="42.53387" lon="-8.64551">
        <ele>51.57</ele>
        <time>2019-06-06T08:49:58Z</time>
      </trkpt>
      <trkpt lat="42.5341" lon="-8.64547">
        <ele>52.05</ele>
        <time>2019-06-06T08:50:14Z</time>
      </trkpt>
      <trkpt lat="42.53426" lon="-8.64545">
        <ele>51.57</ele>
        <time>2019-06-06T08:50:28Z</time>
      </trkpt>
      <trkpt lat="42.53442" lon="-8.64545">
        <ele>51.09</ele>
        <time>2019-06-06T08:50:40Z</time>
      </trkpt>
      <trkpt lat="42.53457" lon="-8.64544">
        <ele>51.09</ele>
        <time>2019-06-06T08:50:52Z</time>
      </trkpt>
      <trkpt lat="42.53475" lon="-8.64544">
        <ele>50.61</ele>
        <time>2019-06-06T08:51:06Z</time>
      </trkpt>
      <trkpt lat="42.53486" lon="-8.64544">
        <ele>50.61</ele>
        <time>2019-06-06T08:51:14Z</time>
      </trkpt>
      <trkpt lat="42.53508" lon="-8.64549">
        <ele>51.09</ele>
        <time>2019-06-06T08:51:30Z</time>
      </trkpt>
      <trkpt lat="42.53512" lon="-8.64551">
        <ele>51.09</ele>
        <time>2019-06-06T08:51:34Z</time>
      </trkpt>
      <trkpt lat="42.53525" lon="-8.64559">
        <ele>50.61</ele>
        <time>2019-06-06T08:51:45Z</time>
      </trkpt>
      <trkpt lat="42.5353" lon="-8.64556">
        <ele>50.13</ele>
        <time>2019-06-06T08:51:50Z</time>
      </trkpt>
      <trkpt lat="42.53548" lon="-8.64554">
        <ele>50.13</ele>
        <time>2019-06-06T08:52:05Z</time>
      </trkpt>
      <trkpt lat="42.53554" lon="-8.64553">
        <ele>50.13</ele>
        <time>2019-06-06T08:52:20Z</time>
      </trkpt>
      <trkpt lat="42.5356" lon="-8.6455">
        <ele>49.65</ele>
        <time>2019-06-06T08:52:34Z</time>
      </trkpt>
      <trkpt lat="42.53561" lon="-8.6455">
        <ele>48.68</ele>
        <time>2019-06-06T08:52:35Z</time>
      </trkpt>
      <trkpt lat="42.53562" lon="-8.6455">
        <ele>49.65</ele>
        <time>2019-06-06T08:52:36Z</time>
      </trkpt>
      <trkpt lat="42.53577" lon="-8.64547">
        <ele>50.13</ele>
        <time>2019-06-06T08:52:49Z</time>
      </trkpt>
      <trkpt lat="42.536" lon="-8.64546">
        <ele>49.65</ele>
        <time>2019-06-06T08:53:05Z</time>
      </trkpt>
      <trkpt lat="42.53622" lon="-8.64537">
        <ele>50.61</ele>
        <time>2019-06-06T08:53:22Z</time>
      </trkpt>
      <trkpt lat="42.53636" lon="-8.64528">
        <ele>50.61</ele>
        <time>2019-06-06T08:53:35Z</time>
      </trkpt>
      <trkpt lat="42.53651" lon="-8.64521">
        <ele>50.13</ele>
        <time>2019-06-06T08:53:48Z</time>
      </trkpt>
      <trkpt lat="42.53663" lon="-8.64518">
        <ele>50.13</ele>
        <time>2019-06-06T08:54:02Z</time>
      </trkpt>
      <trkpt lat="42.53672" lon="-8.64519">
        <ele>50.13</ele>
        <time>2019-06-06T08:54:11Z</time>
      </trkpt>
      <trkpt lat="42.5369" lon="-8.64523">
        <ele>49.65</ele>
        <time>2019-06-06T08:54:23Z</time>
      </trkpt>
      <trkpt lat="42.53696" lon="-8.64528">
        <ele>48.68</ele>
        <time>2019-06-06T08:54:31Z</time>
      </trkpt>
      <trkpt lat="42.53708" lon="-8.64539">
        <ele>49.16</ele>
        <time>2019-06-06T08:54:43Z</time>
      </trkpt>
      <trkpt lat="42.53719" lon="-8.64545">
        <ele>48.2</ele>
        <time>2019-06-06T08:55:00Z</time>
      </trkpt>
      <trkpt lat="42.53726" lon="-8.64545">
        <ele>48.2</ele>
        <time>2019-06-06T08:55:06Z</time>
      </trkpt>
      <trkpt lat="42.53741" lon="-8.64541">
        <ele>47.72</ele>
        <time>2019-06-06T08:55:16Z</time>
      </trkpt>
      <trkpt lat="42.53758" lon="-8.64539">
        <ele>47.72</ele>
        <time>2019-06-06T08:55:29Z</time>
      </trkpt>
      <trkpt lat="42.53771" lon="-8.64536">
        <ele>47.72</ele>
        <time>2019-06-06T08:55:40Z</time>
      </trkpt>
      <trkpt lat="42.53772" lon="-8.64536">
        <ele>46.76</ele>
        <time>2019-06-06T08:55:41Z</time>
      </trkpt>
      <trkpt lat="42.53774" lon="-8.64536">
        <ele>47.24</ele>
        <time>2019-06-06T08:55:42Z</time>
      </trkpt>
      <trkpt lat="42.53784" lon="-8.64533">
        <ele>46.76</ele>
        <time>2019-06-06T08:55:49Z</time>
      </trkpt>
      <trkpt lat="42.53794" lon="-8.64526">
        <ele>46.76</ele>
        <time>2019-06-06T08:55:58Z</time>
      </trkpt>
      <trkpt lat="42.53807" lon="-8.64516">
        <ele>46.76</ele>
        <time>2019-06-06T08:56:11Z</time>
      </trkpt>
      <trkpt lat="42.53822" lon="-8.64507">
        <ele>46.28</ele>
        <time>2019-06-06T08:56:24Z</time>
      </trkpt>
      <trkpt lat="42.53839" lon="-8.64496">
        <ele>45.8</ele>
        <time>2019-06-06T08:56:37Z</time>
      </trkpt>
      <trkpt lat="42.53851" lon="-8.6449">
        <ele>46.76</ele>
        <time>2019-06-06T08:56:48Z</time>
      </trkpt>
      <trkpt lat="42.53853" lon="-8.64489">
        <ele>46.76</ele>
        <time>2019-06-06T08:56:49Z</time>
      </trkpt>
      <trkpt lat="42.53854" lon="-8.64488">
        <ele>46.76</ele>
        <time>2019-06-06T08:56:50Z</time>
      </trkpt>
      <trkpt lat="42.53855" lon="-8.64487">
        <ele>46.76</ele>
        <time>2019-06-06T08:56:51Z</time>
      </trkpt>
      <trkpt lat="42.53867" lon="-8.64479">
        <ele>47.24</ele>
        <time>2019-06-06T08:57:03Z</time>
      </trkpt>
      <trkpt lat="42.53869" lon="-8.64478">
        <ele>47.24</ele>
        <time>2019-06-06T08:57:04Z</time>
      </trkpt>
      <trkpt lat="42.5387" lon="-8.64477">
        <ele>47.24</ele>
        <time>2019-06-06T08:57:05Z</time>
      </trkpt>
      <trkpt lat="42.53884" lon="-8.64461">
        <ele>46.28</ele>
        <time>2019-06-06T08:57:18Z</time>
      </trkpt>
      <trkpt lat="42.53892" lon="-8.64441">
        <ele>45.8</ele>
        <time>2019-06-06T08:57:31Z</time>
      </trkpt>
      <trkpt lat="42.53893" lon="-8.6444">
        <ele>45.32</ele>
        <time>2019-06-06T08:57:32Z</time>
      </trkpt>
      <trkpt lat="42.53898" lon="-8.64436">
        <ele>46.28</ele>
        <time>2019-06-06T08:57:43Z</time>
      </trkpt>
      <trkpt lat="42.53903" lon="-8.64429">
        <ele>46.28</ele>
        <time>2019-06-06T08:57:49Z</time>
      </trkpt>
      <trkpt lat="42.53905" lon="-8.64427">
        <ele>46.76</ele>
        <time>2019-06-06T08:57:51Z</time>
      </trkpt>
      <trkpt lat="42.53906" lon="-8.64425">
        <ele>46.28</ele>
        <time>2019-06-06T08:57:52Z</time>
      </trkpt>
      <trkpt lat="42.53907" lon="-8.64424">
        <ele>46.76</ele>
        <time>2019-06-06T08:57:53Z</time>
      </trkpt>
      <trkpt lat="42.53908" lon="-8.64422">
        <ele>46.28</ele>
        <time>2019-06-06T08:57:54Z</time>
      </trkpt>
      <trkpt lat="42.53909" lon="-8.64421">
        <ele>46.28</ele>
        <time>2019-06-06T08:57:55Z</time>
      </trkpt>
      <trkpt lat="42.53923" lon="-8.64406">
        <ele>46.28</ele>
        <time>2019-06-06T08:58:09Z</time>
      </trkpt>
      <trkpt lat="42.53943" lon="-8.64397">
        <ele>46.76</ele>
        <time>2019-06-06T08:58:24Z</time>
      </trkpt>
      <trkpt lat="42.53948" lon="-8.64395">
        <ele>36.19</ele>
        <time>2019-06-06T08:58:30Z</time>
      </trkpt>
      <trkpt lat="42.53949" lon="-8.64395">
        <ele>55.89</ele>
        <time>2019-06-06T08:58:31Z</time>
      </trkpt>
      <trkpt lat="42.5395" lon="-8.64395">
        <ele>46.28</ele>
        <time>2019-06-06T08:58:32Z</time>
      </trkpt>
      <trkpt lat="42.53967" lon="-8.64388">
        <ele>46.28</ele>
        <time>2019-06-06T08:58:47Z</time>
      </trkpt>
      <trkpt lat="42.53988" lon="-8.64381">
        <ele>46.28</ele>
        <time>2019-06-06T08:59:03Z</time>
      </trkpt>
      <trkpt lat="42.54003" lon="-8.64373">
        <ele>47.72</ele>
        <time>2019-06-06T08:59:15Z</time>
      </trkpt>
      <trkpt lat="42.54004" lon="-8.64373">
        <ele>46.76</ele>
        <time>2019-06-06T08:59:16Z</time>
      </trkpt>
      <trkpt lat="42.54007" lon="-8.64372">
        <ele>47.24</ele>
        <time>2019-06-06T08:59:20Z</time>
      </trkpt>
      <trkpt lat="42.54008" lon="-8.64372">
        <ele>47.24</ele>
        <time>2019-06-06T08:59:21Z</time>
      </trkpt>
      <trkpt lat="42.54025" lon="-8.64365">
        <ele>47.24</ele>
        <time>2019-06-06T08:59:35Z</time>
      </trkpt>
      <trkpt lat="42.5404" lon="-8.6436">
        <ele>47.24</ele>
        <time>2019-06-06T08:59:47Z</time>
      </trkpt>
      <trkpt lat="42.54056" lon="-8.64356">
        <ele>49.65</ele>
        <time>2019-06-06T09:00:01Z</time>
      </trkpt>
      <trkpt lat="42.54062" lon="-8.64352">
        <ele>49.65</ele>
        <time>2019-06-06T09:00:07Z</time>
      </trkpt>
      <trkpt lat="42.54063" lon="-8.64351">
        <ele>49.65</ele>
        <time>2019-06-06T09:00:08Z</time>
      </trkpt>
      <trkpt lat="42.54064" lon="-8.6435">
        <ele>49.65</ele>
        <time>2019-06-06T09:00:09Z</time>
      </trkpt>
      <trkpt lat="42.54065" lon="-8.64349">
        <ele>50.13</ele>
        <time>2019-06-06T09:00:10Z</time>
      </trkpt>
      <trkpt lat="42.54066" lon="-8.64349">
        <ele>50.13</ele>
        <time>2019-06-06T09:00:11Z</time>
      </trkpt>
      <trkpt lat="42.54067" lon="-8.64348">
        <ele>50.61</ele>
        <time>2019-06-06T09:00:12Z</time>
      </trkpt>
      <trkpt lat="42.54068" lon="-8.64347">
        <ele>50.61</ele>
        <time>2019-06-06T09:00:13Z</time>
      </trkpt>
      <trkpt lat="42.5407" lon="-8.64347">
        <ele>50.61</ele>
        <time>2019-06-06T09:00:14Z</time>
      </trkpt>
      <trkpt lat="42.54072" lon="-8.64347">
        <ele>50.61</ele>
        <time>2019-06-06T09:00:15Z</time>
      </trkpt>
      <trkpt lat="42.54073" lon="-8.64346">
        <ele>50.13</ele>
        <time>2019-06-06T09:00:16Z</time>
      </trkpt>
      <trkpt lat="42.54074" lon="-8.64346">
        <ele>50.13</ele>
        <time>2019-06-06T09:00:17Z</time>
      </trkpt>
      <trkpt lat="42.54076" lon="-8.64345">
        <ele>50.13</ele>
        <time>2019-06-06T09:00:18Z</time>
      </trkpt>
      <trkpt lat="42.54077" lon="-8.64344">
        <ele>50.13</ele>
        <time>2019-06-06T09:00:19Z</time>
      </trkpt>
      <trkpt lat="42.541" lon="-8.64336">
        <ele>48.2</ele>
        <time>2019-06-06T09:00:37Z</time>
      </trkpt>
      <trkpt lat="42.54118" lon="-8.64331">
        <ele>48.68</ele>
        <time>2019-06-06T09:00:51Z</time>
      </trkpt>
      <trkpt lat="42.54136" lon="-8.6432">
        <ele>48.68</ele>
        <time>2019-06-06T09:01:07Z</time>
      </trkpt>
      <trkpt lat="42.54143" lon="-8.64316">
        <ele>49.65</ele>
        <time>2019-06-06T09:01:13Z</time>
      </trkpt>
      <trkpt lat="42.54149" lon="-8.64312">
        <ele>50.13</ele>
        <time>2019-06-06T09:01:18Z</time>
      </trkpt>
      <trkpt lat="42.54164" lon="-8.643">
        <ele>51.57</ele>
        <time>2019-06-06T09:01:32Z</time>
      </trkpt>
      <trkpt lat="42.54176" lon="-8.64292">
        <ele>51.09</ele>
        <time>2019-06-06T09:01:45Z</time>
      </trkpt>
      <trkpt lat="42.54178" lon="-8.64293">
        <ele>51.09</ele>
        <time>2019-06-06T09:01:49Z</time>
      </trkpt>
      <trkpt lat="42.54191" lon="-8.64289">
        <ele>51.09</ele>
        <time>2019-06-06T09:02:02Z</time>
      </trkpt>
      <trkpt lat="42.54204" lon="-8.64282">
        <ele>51.09</ele>
        <time>2019-06-06T09:02:14Z</time>
      </trkpt>
      <trkpt lat="42.54205" lon="-8.64281">
        <ele>50.61</ele>
        <time>2019-06-06T09:02:15Z</time>
      </trkpt>
      <trkpt lat="42.54209" lon="-8.64279">
        <ele>39.55</ele>
        <time>2019-06-06T09:02:20Z</time>
      </trkpt>
      <trkpt lat="42.54209" lon="-8.6428">
        <ele>49.65</ele>
        <time>2019-06-06T09:02:21Z</time>
      </trkpt>
      <trkpt lat="42.54209" lon="-8.6428">
        <ele>59.26</ele>
        <time>2019-06-06T09:02:23Z</time>
      </trkpt>
      <trkpt lat="42.54209" lon="-8.64279">
        <ele>52.05</ele>
        <time>2019-06-06T09:02:24Z</time>
      </trkpt>
      <trkpt lat="42.54211" lon="-8.64279">
        <ele>51.09</ele>
        <time>2019-06-06T09:02:26Z</time>
      </trkpt>
      <trkpt lat="42.5423" lon="-8.64273">
        <ele>49.65</ele>
        <time>2019-06-06T09:02:39Z</time>
      </trkpt>
      <trkpt lat="42.5424" lon="-8.6427">
        <ele>49.16</ele>
        <time>2019-06-06T09:02:51Z</time>
      </trkpt>
      <trkpt lat="42.54241" lon="-8.64269">
        <ele>50.13</ele>
        <time>2019-06-06T09:02:52Z</time>
      </trkpt>
      <trkpt lat="42.54259" lon="-8.64264">
        <ele>48.68</ele>
        <time>2019-06-06T09:03:04Z</time>
      </trkpt>
      <trkpt lat="42.54266" lon="-8.64262">
        <ele>48.68</ele>
        <time>2019-06-06T09:03:08Z</time>
      </trkpt>
      <trkpt lat="42.5427" lon="-8.64262">
        <ele>48.2</ele>
        <time>2019-06-06T09:03:12Z</time>
      </trkpt>
      <trkpt lat="42.54271" lon="-8.64262">
        <ele>48.68</ele>
        <time>2019-06-06T09:03:13Z</time>
      </trkpt>
      <trkpt lat="42.54273" lon="-8.64263">
        <ele>48.68</ele>
        <time>2019-06-06T09:03:14Z</time>
      </trkpt>
      <trkpt lat="42.54292" lon="-8.6427">
        <ele>49.65</ele>
        <time>2019-06-06T09:03:28Z</time>
      </trkpt>
      <trkpt lat="42.54307" lon="-8.64278">
        <ele>50.61</ele>
        <time>2019-06-06T09:03:41Z</time>
      </trkpt>
      <trkpt lat="42.54321" lon="-8.64284">
        <ele>51.57</ele>
        <time>2019-06-06T09:03:54Z</time>
      </trkpt>
      <trkpt lat="42.54331" lon="-8.64292">
        <ele>53.01</ele>
        <time>2019-06-06T09:04:07Z</time>
      </trkpt>
      <trkpt lat="42.54331" lon="-8.64292">
        <ele>59.26</ele>
        <time>2019-06-06T09:04:13Z</time>
      </trkpt>
      <trkpt lat="42.54331" lon="-8.64293">
        <ele>53.01</ele>
        <time>2019-06-06T09:04:14Z</time>
      </trkpt>
      <trkpt lat="42.54333" lon="-8.64293">
        <ele>46.76</ele>
        <time>2019-06-06T09:04:21Z</time>
      </trkpt>
      <trkpt lat="42.54332" lon="-8.64293">
        <ele>53.01</ele>
        <time>2019-06-06T09:04:22Z</time>
      </trkpt>
      <trkpt lat="42.54331" lon="-8.64292">
        <ele>61.66</ele>
        <time>2019-06-06T09:04:24Z</time>
      </trkpt>
      <trkpt lat="42.54332" lon="-8.64291">
        <ele>53.01</ele>
        <time>2019-06-06T09:04:25Z</time>
      </trkpt>
      <trkpt lat="42.5433" lon="-8.64293">
        <ele>51.09</ele>
        <time>2019-06-06T09:04:27Z</time>
      </trkpt>
      <trkpt lat="42.5433" lon="-8.64294">
        <ele>53.01</ele>
        <time>2019-06-06T09:04:29Z</time>
      </trkpt>
      <trkpt lat="42.5433" lon="-8.64293">
        <ele>61.66</ele>
        <time>2019-06-06T09:04:31Z</time>
      </trkpt>
      <trkpt lat="42.5433" lon="-8.64294">
        <ele>58.78</ele>
        <time>2019-06-06T09:04:36Z</time>
      </trkpt>
      <trkpt lat="42.5433" lon="-8.64295">
        <ele>41.95</ele>
        <time>2019-06-06T09:04:37Z</time>
      </trkpt>
      <trkpt lat="42.5433" lon="-8.64296">
        <ele>53.49</ele>
        <time>2019-06-06T09:04:38Z</time>
      </trkpt>
      <trkpt lat="42.5433" lon="-8.64295">
        <ele>58.3</ele>
        <time>2019-06-06T09:04:39Z</time>
      </trkpt>
      <trkpt lat="42.54331" lon="-8.64295">
        <ele>53.49</ele>
        <time>2019-06-06T09:04:40Z</time>
      </trkpt>
      <trkpt lat="42.54337" lon="-8.64295">
        <ele>54.45</ele>
        <time>2019-06-06T09:04:49Z</time>
      </trkpt>
      <trkpt lat="42.54344" lon="-8.64296">
        <ele>55.41</ele>
        <time>2019-06-06T09:04:55Z</time>
      </trkpt>
      <trkpt lat="42.54358" lon="-8.64302">
        <ele>54.45</ele>
        <time>2019-06-06T09:05:06Z</time>
      </trkpt>
      <trkpt lat="42.54369" lon="-8.64301">
        <ele>52.53</ele>
        <time>2019-06-06T09:05:18Z</time>
      </trkpt>
      <trkpt lat="42.54372" lon="-8.64299">
        <ele>52.05</ele>
        <time>2019-06-06T09:05:21Z</time>
      </trkpt>
      <trkpt lat="42.54381" lon="-8.64296">
        <ele>49.65</ele>
        <time>2019-06-06T09:05:28Z</time>
      </trkpt>
      <trkpt lat="42.54383" lon="-8.64296">
        <ele>50.13</ele>
        <time>2019-06-06T09:05:29Z</time>
      </trkpt>
      <trkpt lat="42.54393" lon="-8.64288">
        <ele>49.16</ele>
        <time>2019-06-06T09:05:39Z</time>
      </trkpt>
      <trkpt lat="42.54394" lon="-8.64286">
        <ele>50.13</ele>
        <time>2019-06-06T09:05:40Z</time>
      </trkpt>
      <trkpt lat="42.54395" lon="-8.64284">
        <ele>49.65</ele>
        <time>2019-06-06T09:05:41Z</time>
      </trkpt>
      <trkpt lat="42.54397" lon="-8.64281">
        <ele>49.65</ele>
        <time>2019-06-06T09:05:42Z</time>
      </trkpt>
      <trkpt lat="42.54398" lon="-8.64279">
        <ele>49.16</ele>
        <time>2019-06-06T09:05:43Z</time>
      </trkpt>
      <trkpt lat="42.544" lon="-8.64278">
        <ele>50.13</ele>
        <time>2019-06-06T09:05:44Z</time>
      </trkpt>
      <trkpt lat="42.54401" lon="-8.64276">
        <ele>49.65</ele>
        <time>2019-06-06T09:05:45Z</time>
      </trkpt>
      <trkpt lat="42.54403" lon="-8.64272">
        <ele>49.65</ele>
        <time>2019-06-06T09:05:48Z</time>
      </trkpt>
      <trkpt lat="42.54404" lon="-8.64271">
        <ele>49.16</ele>
        <time>2019-06-06T09:05:49Z</time>
      </trkpt>
      <trkpt lat="42.54406" lon="-8.6427">
        <ele>50.13</ele>
        <time>2019-06-06T09:05:50Z</time>
      </trkpt>
      <trkpt lat="42.54407" lon="-8.64269">
        <ele>49.65</ele>
        <time>2019-06-06T09:05:51Z</time>
      </trkpt>
      <trkpt lat="42.54408" lon="-8.64268">
        <ele>49.65</ele>
        <time>2019-06-06T09:05:52Z</time>
      </trkpt>
      <trkpt lat="42.54418" lon="-8.64259">
        <ele>49.65</ele>
        <time>2019-06-06T09:06:00Z</time>
      </trkpt>
      <trkpt lat="42.54419" lon="-8.64257">
        <ele>50.13</ele>
        <time>2019-06-06T09:06:01Z</time>
      </trkpt>
      <trkpt lat="42.54421" lon="-8.64256">
        <ele>50.13</ele>
        <time>2019-06-06T09:06:02Z</time>
      </trkpt>
      <trkpt lat="42.54424" lon="-8.64252">
        <ele>50.13</ele>
        <time>2019-06-06T09:06:05Z</time>
      </trkpt>
      <trkpt lat="42.54435" lon="-8.64243">
        <ele>50.13</ele>
        <time>2019-06-06T09:06:14Z</time>
      </trkpt>
      <trkpt lat="42.54442" lon="-8.64241">
        <ele>49.65</ele>
        <time>2019-06-06T09:06:18Z</time>
      </trkpt>
      <trkpt lat="42.54444" lon="-8.64241">
        <ele>50.13</ele>
        <time>2019-06-06T09:06:19Z</time>
      </trkpt>
      <trkpt lat="42.54455" lon="-8.64239">
        <ele>50.13</ele>
        <time>2019-06-06T09:06:25Z</time>
      </trkpt>
      <trkpt lat="42.54457" lon="-8.64239">
        <ele>50.61</ele>
        <time>2019-06-06T09:06:26Z</time>
      </trkpt>
      <trkpt lat="42.54458" lon="-8.64238">
        <ele>50.61</ele>
        <time>2019-06-06T09:06:27Z</time>
      </trkpt>
      <trkpt lat="42.54468" lon="-8.64233">
        <ele>51.09</ele>
        <time>2019-06-06T09:06:37Z</time>
      </trkpt>
      <trkpt lat="42.54469" lon="-8.64233">
        <ele>51.57</ele>
        <time>2019-06-06T09:06:38Z</time>
      </trkpt>
      <trkpt lat="42.54481" lon="-8.64231">
        <ele>51.57</ele>
        <time>2019-06-06T09:06:48Z</time>
      </trkpt>
      <trkpt lat="42.54489" lon="-8.64229">
        <ele>51.57</ele>
        <time>2019-06-06T09:06:54Z</time>
      </trkpt>
      <trkpt lat="42.54493" lon="-8.64229">
        <ele>52.53</ele>
        <time>2019-06-06T09:06:58Z</time>
      </trkpt>
      <trkpt lat="42.54507" lon="-8.64228">
        <ele>51.57</ele>
        <time>2019-06-06T09:07:09Z</time>
      </trkpt>
      <trkpt lat="42.54508" lon="-8.64228">
        <ele>51.57</ele>
        <time>2019-06-06T09:07:10Z</time>
      </trkpt>
      <trkpt lat="42.54516" lon="-8.64228">
        <ele>51.09</ele>
        <time>2019-06-06T09:07:16Z</time>
      </trkpt>
      <trkpt lat="42.54529" lon="-8.64232">
        <ele>50.13</ele>
        <time>2019-06-06T09:07:28Z</time>
      </trkpt>
      <trkpt lat="42.54545" lon="-8.64241">
        <ele>48.68</ele>
        <time>2019-06-06T09:07:41Z</time>
      </trkpt>
      <trkpt lat="42.54554" lon="-8.64247">
        <ele>49.16</ele>
        <time>2019-06-06T09:07:47Z</time>
      </trkpt>
      <trkpt lat="42.54555" lon="-8.64248">
        <ele>48.2</ele>
        <time>2019-06-06T09:07:48Z</time>
      </trkpt>
      <trkpt lat="42.54557" lon="-8.64249">
        <ele>48.2</ele>
        <time>2019-06-06T09:07:49Z</time>
      </trkpt>
      <trkpt lat="42.54558" lon="-8.6425">
        <ele>48.2</ele>
        <time>2019-06-06T09:07:50Z</time>
      </trkpt>
      <trkpt lat="42.54559" lon="-8.64251">
        <ele>49.16</ele>
        <time>2019-06-06T09:07:51Z</time>
      </trkpt>
      <trkpt lat="42.5456" lon="-8.64252">
        <ele>48.2</ele>
        <time>2019-06-06T09:07:52Z</time>
      </trkpt>
      <trkpt lat="42.54561" lon="-8.64253">
        <ele>48.68</ele>
        <time>2019-06-06T09:07:53Z</time>
      </trkpt>
      <trkpt lat="42.54562" lon="-8.64254">
        <ele>48.68</ele>
        <time>2019-06-06T09:07:54Z</time>
      </trkpt>
      <trkpt lat="42.54564" lon="-8.64256">
        <ele>48.68</ele>
        <time>2019-06-06T09:07:55Z</time>
      </trkpt>
      <trkpt lat="42.54577" lon="-8.64264">
        <ele>48.2</ele>
        <time>2019-06-06T09:08:06Z</time>
      </trkpt>
      <trkpt lat="42.54578" lon="-8.64264">
        <ele>48.2</ele>
        <time>2019-06-06T09:08:07Z</time>
      </trkpt>
      <trkpt lat="42.5458" lon="-8.64265">
        <ele>47.72</ele>
        <time>2019-06-06T09:08:08Z</time>
      </trkpt>
      <trkpt lat="42.54581" lon="-8.64265">
        <ele>48.2</ele>
        <time>2019-06-06T09:08:09Z</time>
      </trkpt>
      <trkpt lat="42.54582" lon="-8.64266">
        <ele>47.72</ele>
        <time>2019-06-06T09:08:10Z</time>
      </trkpt>
      <trkpt lat="42.54587" lon="-8.64268">
        <ele>48.2</ele>
        <time>2019-06-06T09:08:14Z</time>
      </trkpt>
      <trkpt lat="42.54591" lon="-8.6427">
        <ele>47.24</ele>
        <time>2019-06-06T09:08:17Z</time>
      </trkpt>
      <trkpt lat="42.54592" lon="-8.6427">
        <ele>47.24</ele>
        <time>2019-06-06T09:08:18Z</time>
      </trkpt>
      <trkpt lat="42.54609" lon="-8.64267">
        <ele>46.76</ele>
        <time>2019-06-06T09:08:30Z</time>
      </trkpt>
      <trkpt lat="42.54628" lon="-8.64264">
        <ele>46.28</ele>
        <time>2019-06-06T09:08:43Z</time>
      </trkpt>
      <trkpt lat="42.54645" lon="-8.64257">
        <ele>45.8</ele>
        <time>2019-06-06T09:08:55Z</time>
      </trkpt>
      <trkpt lat="42.5465" lon="-8.64257">
        <ele>46.28</ele>
        <time>2019-06-06T09:09:09Z</time>
      </trkpt>
      <trkpt lat="42.54662" lon="-8.64254">
        <ele>45.8</ele>
        <time>2019-06-06T09:09:20Z</time>
      </trkpt>
      <trkpt lat="42.54677" lon="-8.64251">
        <ele>46.28</ele>
        <time>2019-06-06T09:09:32Z</time>
      </trkpt>
      <trkpt lat="42.54683" lon="-8.64251">
        <ele>47.24</ele>
        <time>2019-06-06T09:09:36Z</time>
      </trkpt>
      <trkpt lat="42.54684" lon="-8.64251">
        <ele>46.76</ele>
        <time>2019-06-06T09:09:37Z</time>
      </trkpt>
      <trkpt lat="42.54686" lon="-8.64251">
        <ele>46.28</ele>
        <time>2019-06-06T09:09:38Z</time>
      </trkpt>
      <trkpt lat="42.54687" lon="-8.64251">
        <ele>47.24</ele>
        <time>2019-06-06T09:09:39Z</time>
      </trkpt>
      <trkpt lat="42.54705" lon="-8.64249">
        <ele>48.2</ele>
        <time>2019-06-06T09:09:52Z</time>
      </trkpt>
      <trkpt lat="42.54722" lon="-8.64247">
        <ele>49.16</ele>
        <time>2019-06-06T09:10:05Z</time>
      </trkpt>
      <trkpt lat="42.54739" lon="-8.64244">
        <ele>48.68</ele>
        <time>2019-06-06T09:10:20Z</time>
      </trkpt>
      <trkpt lat="42.54755" lon="-8.64243">
        <ele>46.28</ele>
        <time>2019-06-06T09:10:33Z</time>
      </trkpt>
      <trkpt lat="42.5476" lon="-8.64245">
        <ele>45.8</ele>
        <time>2019-06-06T09:10:39Z</time>
      </trkpt>
      <trkpt lat="42.54763" lon="-8.64247">
        <ele>44.84</ele>
        <time>2019-06-06T09:10:42Z</time>
      </trkpt>
      <trkpt lat="42.54765" lon="-8.64248">
        <ele>44.84</ele>
        <time>2019-06-06T09:10:43Z</time>
      </trkpt>
      <trkpt lat="42.54766" lon="-8.64249">
        <ele>45.32</ele>
        <time>2019-06-06T09:10:44Z</time>
      </trkpt>
      <trkpt lat="42.54768" lon="-8.6425">
        <ele>44.84</ele>
        <time>2019-06-06T09:10:45Z</time>
      </trkpt>
      <trkpt lat="42.5477" lon="-8.64251">
        <ele>45.32</ele>
        <time>2019-06-06T09:10:46Z</time>
      </trkpt>
      <trkpt lat="42.54771" lon="-8.64252">
        <ele>44.84</ele>
        <time>2019-06-06T09:10:47Z</time>
      </trkpt>
      <trkpt lat="42.54776" lon="-8.64251">
        <ele>45.32</ele>
        <time>2019-06-06T09:10:50Z</time>
      </trkpt>
      <trkpt lat="42.54778" lon="-8.64251">
        <ele>44.84</ele>
        <time>2019-06-06T09:10:51Z</time>
      </trkpt>
      <trkpt lat="42.54783" lon="-8.64247">
        <ele>45.32</ele>
        <time>2019-06-06T09:10:56Z</time>
      </trkpt>
      <trkpt lat="42.54784" lon="-8.64246">
        <ele>44.84</ele>
        <time>2019-06-06T09:10:57Z</time>
      </trkpt>
      <trkpt lat="42.54785" lon="-8.64245">
        <ele>44.84</ele>
        <time>2019-06-06T09:10:58Z</time>
      </trkpt>
      <trkpt lat="42.54786" lon="-8.64244">
        <ele>45.32</ele>
        <time>2019-06-06T09:10:59Z</time>
      </trkpt>
      <trkpt lat="42.54786" lon="-8.64242">
        <ele>44.84</ele>
        <time>2019-06-06T09:11:00Z</time>
      </trkpt>
      <trkpt lat="42.54787" lon="-8.64239">
        <ele>44.84</ele>
        <time>2019-06-06T09:11:02Z</time>
      </trkpt>
      <trkpt lat="42.54792" lon="-8.6423">
        <ele>46.28</ele>
        <time>2019-06-06T09:11:09Z</time>
      </trkpt>
      <trkpt lat="42.54796" lon="-8.64222">
        <ele>46.28</ele>
        <time>2019-06-06T09:11:15Z</time>
      </trkpt>
      <trkpt lat="42.54796" lon="-8.64221">
        <ele>46.76</ele>
        <time>2019-06-06T09:11:16Z</time>
      </trkpt>
      <trkpt lat="42.54797" lon="-8.6422">
        <ele>46.76</ele>
        <time>2019-06-06T09:11:17Z</time>
      </trkpt>
      <trkpt lat="42.54804" lon="-8.64211">
        <ele>46.76</ele>
        <time>2019-06-06T09:11:24Z</time>
      </trkpt>
      <trkpt lat="42.54805" lon="-8.64211">
        <ele>46.28</ele>
        <time>2019-06-06T09:11:25Z</time>
      </trkpt>
      <trkpt lat="42.54813" lon="-8.64203">
        <ele>47.72</ele>
        <time>2019-06-06T09:11:39Z</time>
      </trkpt>
      <trkpt lat="42.54817" lon="-8.64197">
        <ele>47.24</ele>
        <time>2019-06-06T09:11:46Z</time>
      </trkpt>
      <trkpt lat="42.54821" lon="-8.64187">
        <ele>47.24</ele>
        <time>2019-06-06T09:11:54Z</time>
      </trkpt>
      <trkpt lat="42.54822" lon="-8.64185">
        <ele>47.24</ele>
        <time>2019-06-06T09:11:55Z</time>
      </trkpt>
      <trkpt lat="42.54823" lon="-8.64184">
        <ele>47.24</ele>
        <time>2019-06-06T09:11:56Z</time>
      </trkpt>
      <trkpt lat="42.54823" lon="-8.64183">
        <ele>47.24</ele>
        <time>2019-06-06T09:11:57Z</time>
      </trkpt>
      <trkpt lat="42.54829" lon="-8.64173">
        <ele>46.76</ele>
        <time>2019-06-06T09:12:05Z</time>
      </trkpt>
      <trkpt lat="42.5483" lon="-8.64172">
        <ele>46.76</ele>
        <time>2019-06-06T09:12:06Z</time>
      </trkpt>
      <trkpt lat="42.54831" lon="-8.64171">
        <ele>46.76</ele>
        <time>2019-06-06T09:12:07Z</time>
      </trkpt>
      <trkpt lat="42.54831" lon="-8.64169">
        <ele>46.28</ele>
        <time>2019-06-06T09:12:08Z</time>
      </trkpt>
      <trkpt lat="42.54832" lon="-8.64168">
        <ele>47.24</ele>
        <time>2019-06-06T09:12:09Z</time>
      </trkpt>
      <trkpt lat="42.54848" lon="-8.64151">
        <ele>47.24</ele>
        <time>2019-06-06T09:12:23Z</time>
      </trkpt>
      <trkpt lat="42.54858" lon="-8.64138">
        <ele>46.76</ele>
        <time>2019-06-06T09:12:34Z</time>
      </trkpt>
      <trkpt lat="42.54859" lon="-8.64137">
        <ele>46.28</ele>
        <time>2019-06-06T09:12:35Z</time>
      </trkpt>
      <trkpt lat="42.5486" lon="-8.64135">
        <ele>46.76</ele>
        <time>2019-06-06T09:12:36Z</time>
      </trkpt>
      <trkpt lat="42.54874" lon="-8.64118">
        <ele>46.76</ele>
        <time>2019-06-06T09:12:52Z</time>
      </trkpt>
      <trkpt lat="42.54876" lon="-8.64114">
        <ele>47.24</ele>
        <time>2019-06-06T09:12:55Z</time>
      </trkpt>
      <trkpt lat="42.54877" lon="-8.64113">
        <ele>46.28</ele>
        <time>2019-06-06T09:12:56Z</time>
      </trkpt>
      <trkpt lat="42.54893" lon="-8.64095">
        <ele>46.28</ele>
        <time>2019-06-06T09:13:11Z</time>
      </trkpt>
      <trkpt lat="42.54896" lon="-8.64092">
        <ele>46.28</ele>
        <time>2019-06-06T09:13:14Z</time>
      </trkpt>
      <trkpt lat="42.54897" lon="-8.64091">
        <ele>45.8</ele>
        <time>2019-06-06T09:13:15Z</time>
      </trkpt>
      <trkpt lat="42.54898" lon="-8.6409">
        <ele>45.8</ele>
        <time>2019-06-06T09:13:16Z</time>
      </trkpt>
      <trkpt lat="42.54899" lon="-8.64089">
        <ele>46.76</ele>
        <time>2019-06-06T09:13:17Z</time>
      </trkpt>
      <trkpt lat="42.549" lon="-8.64088">
        <ele>46.76</ele>
        <time>2019-06-06T09:13:18Z</time>
      </trkpt>
      <trkpt lat="42.54902" lon="-8.64087">
        <ele>46.76</ele>
        <time>2019-06-06T09:13:19Z</time>
      </trkpt>
      <trkpt lat="42.54903" lon="-8.64086">
        <ele>46.28</ele>
        <time>2019-06-06T09:13:20Z</time>
      </trkpt>
      <trkpt lat="42.54906" lon="-8.64082">
        <ele>47.24</ele>
        <time>2019-06-06T09:13:24Z</time>
      </trkpt>
      <trkpt lat="42.5492" lon="-8.64068">
        <ele>46.76</ele>
        <time>2019-06-06T09:13:37Z</time>
      </trkpt>
      <trkpt lat="42.54932" lon="-8.64053">
        <ele>47.24</ele>
        <time>2019-06-06T09:13:51Z</time>
      </trkpt>
      <trkpt lat="42.54939" lon="-8.64046">
        <ele>48.2</ele>
        <time>2019-06-06T09:13:57Z</time>
      </trkpt>
      <trkpt lat="42.54939" lon="-8.64044">
        <ele>47.72</ele>
        <time>2019-06-06T09:13:58Z</time>
      </trkpt>
      <trkpt lat="42.5494" lon="-8.64043">
        <ele>47.72</ele>
        <time>2019-06-06T09:13:59Z</time>
      </trkpt>
      <trkpt lat="42.5494" lon="-8.64042">
        <ele>48.2</ele>
        <time>2019-06-06T09:14:00Z</time>
      </trkpt>
      <trkpt lat="42.54941" lon="-8.64041">
        <ele>48.68</ele>
        <time>2019-06-06T09:14:01Z</time>
      </trkpt>
      <trkpt lat="42.54942" lon="-8.6404">
        <ele>48.68</ele>
        <time>2019-06-06T09:14:02Z</time>
      </trkpt>
      <trkpt lat="42.54943" lon="-8.64038">
        <ele>48.2</ele>
        <time>2019-06-06T09:14:03Z</time>
      </trkpt>
      <trkpt lat="42.54944" lon="-8.64037">
        <ele>48.2</ele>
        <time>2019-06-06T09:14:04Z</time>
      </trkpt>
      <trkpt lat="42.54945" lon="-8.64035">
        <ele>47.24</ele>
        <time>2019-06-06T09:14:05Z</time>
      </trkpt>
      <trkpt lat="42.54945" lon="-8.64033">
        <ele>47.72</ele>
        <time>2019-06-06T09:14:06Z</time>
      </trkpt>
      <trkpt lat="42.54946" lon="-8.64032">
        <ele>48.2</ele>
        <time>2019-06-06T09:14:07Z</time>
      </trkpt>
      <trkpt lat="42.54946" lon="-8.6403">
        <ele>47.72</ele>
        <time>2019-06-06T09:14:08Z</time>
      </trkpt>
      <trkpt lat="42.54946" lon="-8.64028">
        <ele>48.2</ele>
        <time>2019-06-06T09:14:09Z</time>
      </trkpt>
      <trkpt lat="42.54947" lon="-8.64026">
        <ele>48.2</ele>
        <time>2019-06-06T09:14:10Z</time>
      </trkpt>
      <trkpt lat="42.54947" lon="-8.64022">
        <ele>46.76</ele>
        <time>2019-06-06T09:14:13Z</time>
      </trkpt>
      <trkpt lat="42.54947" lon="-8.63999">
        <ele>47.72</ele>
        <time>2019-06-06T09:14:26Z</time>
      </trkpt>
      <trkpt lat="42.54943" lon="-8.63976">
        <ele>47.72</ele>
        <time>2019-06-06T09:14:41Z</time>
      </trkpt>
      <trkpt lat="42.54943" lon="-8.63958">
        <ele>48.2</ele>
        <time>2019-06-06T09:14:52Z</time>
      </trkpt>
      <trkpt lat="42.54946" lon="-8.63955">
        <ele>47.24</ele>
        <time>2019-06-06T09:14:55Z</time>
      </trkpt>
      <trkpt lat="42.54947" lon="-8.63954">
        <ele>47.72</ele>
        <time>2019-06-06T09:14:56Z</time>
      </trkpt>
      <trkpt lat="42.54966" lon="-8.63943">
        <ele>47.24</ele>
        <time>2019-06-06T09:15:12Z</time>
      </trkpt>
      <trkpt lat="42.54985" lon="-8.63936">
        <ele>47.72</ele>
        <time>2019-06-06T09:15:27Z</time>
      </trkpt>
      <trkpt lat="42.55001" lon="-8.63931">
        <ele>46.76</ele>
        <time>2019-06-06T09:15:40Z</time>
      </trkpt>
      <trkpt lat="42.55018" lon="-8.63929">
        <ele>47.24</ele>
        <time>2019-06-06T09:15:53Z</time>
      </trkpt>
      <trkpt lat="42.55038" lon="-8.6392">
        <ele>47.24</ele>
        <time>2019-06-06T09:16:09Z</time>
      </trkpt>
      <trkpt lat="42.55051" lon="-8.63916">
        <ele>46.76</ele>
        <time>2019-06-06T09:16:21Z</time>
      </trkpt>
      <trkpt lat="42.55064" lon="-8.63914">
        <ele>46.76</ele>
        <time>2019-06-06T09:16:32Z</time>
      </trkpt>
      <trkpt lat="42.55082" lon="-8.63907">
        <ele>46.28</ele>
        <time>2019-06-06T09:16:46Z</time>
      </trkpt>
      <trkpt lat="42.55102" lon="-8.639">
        <ele>45.8</ele>
        <time>2019-06-06T09:17:01Z</time>
      </trkpt>
      <trkpt lat="42.55118" lon="-8.63894">
        <ele>46.28</ele>
        <time>2019-06-06T09:17:16Z</time>
      </trkpt>
      <trkpt lat="42.5514" lon="-8.63889">
        <ele>45.8</ele>
        <time>2019-06-06T09:17:33Z</time>
      </trkpt>
      <trkpt lat="42.5516" lon="-8.63884">
        <ele>45.32</ele>
        <time>2019-06-06T09:17:49Z</time>
      </trkpt>
      <trkpt lat="42.55181" lon="-8.63881">
        <ele>45.32</ele>
        <time>2019-06-06T09:18:06Z</time>
      </trkpt>
      <trkpt lat="42.55202" lon="-8.63878">
        <ele>45.32</ele>
        <time>2019-06-06T09:18:23Z</time>
      </trkpt>
      <trkpt lat="42.55218" lon="-8.63875">
        <ele>45.32</ele>
        <time>2019-06-06T09:18:37Z</time>
      </trkpt>
      <trkpt lat="42.55246" lon="-8.63872">
        <ele>44.84</ele>
        <time>2019-06-06T09:18:58Z</time>
      </trkpt>
      <trkpt lat="42.55266" lon="-8.6387">
        <ele>44.84</ele>
        <time>2019-06-06T09:19:13Z</time>
      </trkpt>
      <trkpt lat="42.55286" lon="-8.63865">
        <ele>45.8</ele>
        <time>2019-06-06T09:19:30Z</time>
      </trkpt>
      <trkpt lat="42.55302" lon="-8.63862">
        <ele>45.32</ele>
        <time>2019-06-06T09:19:43Z</time>
      </trkpt>
      <trkpt lat="42.55318" lon="-8.6386">
        <ele>44.84</ele>
        <time>2019-06-06T09:19:56Z</time>
      </trkpt>
      <trkpt lat="42.55336" lon="-8.63858">
        <ele>43.88</ele>
        <time>2019-06-06T09:20:11Z</time>
      </trkpt>
      <trkpt lat="42.55352" lon="-8.63854">
        <ele>43.88</ele>
        <time>2019-06-06T09:20:24Z</time>
      </trkpt>
      <trkpt lat="42.55353" lon="-8.63854">
        <ele>42.92</ele>
        <time>2019-06-06T09:20:25Z</time>
      </trkpt>
      <trkpt lat="42.55368" lon="-8.6385">
        <ele>41.95</ele>
        <time>2019-06-06T09:20:37Z</time>
      </trkpt>
      <trkpt lat="42.55388" lon="-8.63847">
        <ele>41.95</ele>
        <time>2019-06-06T09:20:52Z</time>
      </trkpt>
      <trkpt lat="42.55398" lon="-8.63842">
        <ele>41.47</ele>
        <time>2019-06-06T09:21:00Z</time>
      </trkpt>
      <trkpt lat="42.55414" lon="-8.63835">
        <ele>42.44</ele>
        <time>2019-06-06T09:21:14Z</time>
      </trkpt>
      <trkpt lat="42.55435" lon="-8.63827">
        <ele>41.47</ele>
        <time>2019-06-06T09:21:31Z</time>
      </trkpt>
      <trkpt lat="42.55453" lon="-8.63814">
        <ele>40.99</ele>
        <time>2019-06-06T09:21:47Z</time>
      </trkpt>
      <trkpt lat="42.55465" lon="-8.63807">
        <ele>40.51</ele>
        <time>2019-06-06T09:21:59Z</time>
      </trkpt>
      <trkpt lat="42.55482" lon="-8.63797">
        <ele>40.99</ele>
        <time>2019-06-06T09:22:15Z</time>
      </trkpt>
      <trkpt lat="42.55493" lon="-8.63793">
        <ele>40.03</ele>
        <time>2019-06-06T09:22:24Z</time>
      </trkpt>
      <trkpt lat="42.55504" lon="-8.63785">
        <ele>40.99</ele>
        <time>2019-06-06T09:22:34Z</time>
      </trkpt>
      <trkpt lat="42.55505" lon="-8.63785">
        <ele>40.51</ele>
        <time>2019-06-06T09:22:35Z</time>
      </trkpt>
      <trkpt lat="42.55515" lon="-8.63782">
        <ele>40.99</ele>
        <time>2019-06-06T09:22:43Z</time>
      </trkpt>
      <trkpt lat="42.55516" lon="-8.63782">
        <ele>40.99</ele>
        <time>2019-06-06T09:22:44Z</time>
      </trkpt>
      <trkpt lat="42.55518" lon="-8.63782">
        <ele>41.47</ele>
        <time>2019-06-06T09:22:45Z</time>
      </trkpt>
      <trkpt lat="42.55531" lon="-8.6378">
        <ele>39.55</ele>
        <time>2019-06-06T09:22:56Z</time>
      </trkpt>
      <trkpt lat="42.55548" lon="-8.6378">
        <ele>39.55</ele>
        <time>2019-06-06T09:23:08Z</time>
      </trkpt>
      <trkpt lat="42.55557" lon="-8.63777">
        <ele>40.99</ele>
        <time>2019-06-06T09:23:23Z</time>
      </trkpt>
      <trkpt lat="42.55561" lon="-8.63777">
        <ele>40.99</ele>
        <time>2019-06-06T09:23:38Z</time>
      </trkpt>
      <trkpt lat="42.55579" lon="-8.63777">
        <ele>39.55</ele>
        <time>2019-06-06T09:23:52Z</time>
      </trkpt>
      <trkpt lat="42.55597" lon="-8.63775">
        <ele>38.59</ele>
        <time>2019-06-06T09:24:05Z</time>
      </trkpt>
      <trkpt lat="42.55613" lon="-8.63773">
        <ele>40.03</ele>
        <time>2019-06-06T09:24:18Z</time>
      </trkpt>
      <trkpt lat="42.55629" lon="-8.63774">
        <ele>38.59</ele>
        <time>2019-06-06T09:24:31Z</time>
      </trkpt>
      <trkpt lat="42.55647" lon="-8.63774">
        <ele>38.11</ele>
        <time>2019-06-06T09:24:44Z</time>
      </trkpt>
      <trkpt lat="42.55663" lon="-8.63772">
        <ele>38.59</ele>
        <time>2019-06-06T09:24:57Z</time>
      </trkpt>
      <trkpt lat="42.55678" lon="-8.63768">
        <ele>39.07</ele>
        <time>2019-06-06T09:25:10Z</time>
      </trkpt>
      <trkpt lat="42.55682" lon="-8.63765">
        <ele>39.55</ele>
        <time>2019-06-06T09:25:24Z</time>
      </trkpt>
      <trkpt lat="42.55695" lon="-8.63763">
        <ele>38.59</ele>
        <time>2019-06-06T09:25:36Z</time>
      </trkpt>
      <trkpt lat="42.557" lon="-8.63762">
        <ele>44.36</ele>
        <time>2019-06-06T09:25:41Z</time>
      </trkpt>
      <trkpt lat="42.55701" lon="-8.63762">
        <ele>39.55</ele>
        <time>2019-06-06T09:25:42Z</time>
      </trkpt>
      <trkpt lat="42.55702" lon="-8.63762">
        <ele>39.55</ele>
        <time>2019-06-06T09:25:43Z</time>
      </trkpt>
      <trkpt lat="42.55703" lon="-8.63761">
        <ele>40.03</ele>
        <time>2019-06-06T09:25:44Z</time>
      </trkpt>
      <trkpt lat="42.55712" lon="-8.6376">
        <ele>41.95</ele>
        <time>2019-06-06T09:25:51Z</time>
      </trkpt>
      <trkpt lat="42.55723" lon="-8.6376">
        <ele>40.51</ele>
        <time>2019-06-06T09:26:04Z</time>
      </trkpt>
      <trkpt lat="42.55725" lon="-8.63755">
        <ele>40.99</ele>
        <time>2019-06-06T09:26:34Z</time>
      </trkpt>
      <trkpt lat="42.5573" lon="-8.63758">
        <ele>40.99</ele>
        <time>2019-06-06T09:26:53Z</time>
      </trkpt>
      <trkpt lat="42.5574" lon="-8.63762">
        <ele>40.99</ele>
        <time>2019-06-06T09:27:05Z</time>
      </trkpt>
      <trkpt lat="42.55754" lon="-8.6376">
        <ele>41.95</ele>
        <time>2019-06-06T09:27:17Z</time>
      </trkpt>
      <trkpt lat="42.55761" lon="-8.6376">
        <ele>41.95</ele>
        <time>2019-06-06T09:27:24Z</time>
      </trkpt>
      <trkpt lat="42.55762" lon="-8.6376">
        <ele>42.44</ele>
        <time>2019-06-06T09:27:25Z</time>
      </trkpt>
      <trkpt lat="42.5578" lon="-8.6376">
        <ele>42.44</ele>
        <time>2019-06-06T09:27:37Z</time>
      </trkpt>
      <trkpt lat="42.55795" lon="-8.63759">
        <ele>44.84</ele>
        <time>2019-06-06T09:27:48Z</time>
      </trkpt>
      <trkpt lat="42.55811" lon="-8.63757">
        <ele>45.32</ele>
        <time>2019-06-06T09:28:01Z</time>
      </trkpt>
      <trkpt lat="42.55823" lon="-8.63758">
        <ele>43.88</ele>
        <time>2019-06-06T09:28:12Z</time>
      </trkpt>
      <trkpt lat="42.55829" lon="-8.63764">
        <ele>41.47</ele>
        <time>2019-06-06T09:28:21Z</time>
      </trkpt>
      <trkpt lat="42.5583" lon="-8.63766">
        <ele>41.47</ele>
        <time>2019-06-06T09:28:22Z</time>
      </trkpt>
      <trkpt lat="42.55833" lon="-8.63771">
        <ele>40.51</ele>
        <time>2019-06-06T09:28:29Z</time>
      </trkpt>
      <trkpt lat="42.55847" lon="-8.6378">
        <ele>39.55</ele>
        <time>2019-06-06T09:28:41Z</time>
      </trkpt>
      <trkpt lat="42.5586" lon="-8.63784">
        <ele>40.51</ele>
        <time>2019-06-06T09:28:53Z</time>
      </trkpt>
      <trkpt lat="42.55862" lon="-8.63784">
        <ele>40.99</ele>
        <time>2019-06-06T09:28:55Z</time>
      </trkpt>
      <trkpt lat="42.55863" lon="-8.63785">
        <ele>40.03</ele>
        <time>2019-06-06T09:28:56Z</time>
      </trkpt>
      <trkpt lat="42.55864" lon="-8.63785">
        <ele>40.99</ele>
        <time>2019-06-06T09:28:57Z</time>
      </trkpt>
      <trkpt lat="42.55865" lon="-8.63785">
        <ele>40.99</ele>
        <time>2019-06-06T09:28:58Z</time>
      </trkpt>
      <trkpt lat="42.55867" lon="-8.63785">
        <ele>40.99</ele>
        <time>2019-06-06T09:28:59Z</time>
      </trkpt>
      <trkpt lat="42.55868" lon="-8.63786">
        <ele>40.99</ele>
        <time>2019-06-06T09:29:00Z</time>
      </trkpt>
      <trkpt lat="42.55878" lon="-8.6379">
        <ele>41.47</ele>
        <time>2019-06-06T09:29:10Z</time>
      </trkpt>
      <trkpt lat="42.55879" lon="-8.63791">
        <ele>41.47</ele>
        <time>2019-06-06T09:29:11Z</time>
      </trkpt>
      <trkpt lat="42.55891" lon="-8.63802">
        <ele>40.99</ele>
        <time>2019-06-06T09:29:21Z</time>
      </trkpt>
      <trkpt lat="42.55905" lon="-8.63814">
        <ele>42.44</ele>
        <time>2019-06-06T09:29:34Z</time>
      </trkpt>
      <trkpt lat="42.55906" lon="-8.63815">
        <ele>41.47</ele>
        <time>2019-06-06T09:29:35Z</time>
      </trkpt>
      <trkpt lat="42.55914" lon="-8.63824">
        <ele>41.47</ele>
        <time>2019-06-06T09:29:43Z</time>
      </trkpt>
      <trkpt lat="42.55918" lon="-8.63827">
        <ele>41.47</ele>
        <time>2019-06-06T09:29:53Z</time>
      </trkpt>
      <trkpt lat="42.55929" lon="-8.63837">
        <ele>42.44</ele>
        <time>2019-06-06T09:30:04Z</time>
      </trkpt>
      <trkpt lat="42.55942" lon="-8.63851">
        <ele>42.44</ele>
        <time>2019-06-06T09:30:17Z</time>
      </trkpt>
      <trkpt lat="42.55956" lon="-8.63863">
        <ele>43.88</ele>
        <time>2019-06-06T09:30:31Z</time>
      </trkpt>
      <trkpt lat="42.55971" lon="-8.63873">
        <ele>44.84</ele>
        <time>2019-06-06T09:30:45Z</time>
      </trkpt>
      <trkpt lat="42.55985" lon="-8.63882">
        <ele>46.76</ele>
        <time>2019-06-06T09:30:58Z</time>
      </trkpt>
      <trkpt lat="42.56" lon="-8.63889">
        <ele>48.2</ele>
        <time>2019-06-06T09:31:12Z</time>
      </trkpt>
      <trkpt lat="42.5601" lon="-8.63897">
        <ele>48.2</ele>
        <time>2019-06-06T09:31:23Z</time>
      </trkpt>
      <trkpt lat="42.56017" lon="-8.63904">
        <ele>48.68</ele>
        <time>2019-06-06T09:31:39Z</time>
      </trkpt>
      <trkpt lat="42.56017" lon="-8.63913">
        <ele>48.68</ele>
        <time>2019-06-06T09:31:45Z</time>
      </trkpt>
      <trkpt lat="42.56018" lon="-8.63934">
        <ele>48.68</ele>
        <time>2019-06-06T09:31:59Z</time>
      </trkpt>
      <trkpt lat="42.56018" lon="-8.63942">
        <ele>47.72</ele>
        <time>2019-06-06T09:32:04Z</time>
      </trkpt>
      <trkpt lat="42.56023" lon="-8.63958">
        <ele>45.8</ele>
        <time>2019-06-06T09:32:16Z</time>
      </trkpt>
      <trkpt lat="42.56024" lon="-8.63958">
        <ele>46.28</ele>
        <time>2019-06-06T09:32:17Z</time>
      </trkpt>
      <trkpt lat="42.56035" lon="-8.63961">
        <ele>44.84</ele>
        <time>2019-06-06T09:32:30Z</time>
      </trkpt>
      <trkpt lat="42.56035" lon="-8.63964">
        <ele>45.32</ele>
        <time>2019-06-06T09:32:47Z</time>
      </trkpt>
      <trkpt lat="42.56034" lon="-8.63963">
        <ele>44.84</ele>
        <time>2019-06-06T09:33:10Z</time>
      </trkpt>
      <trkpt lat="42.56041" lon="-8.63962">
        <ele>44.84</ele>
        <time>2019-06-06T09:33:24Z</time>
      </trkpt>
      <trkpt lat="42.56054" lon="-8.63961">
        <ele>44.84</ele>
        <time>2019-06-06T09:33:35Z</time>
      </trkpt>
      <trkpt lat="42.56057" lon="-8.6396">
        <ele>44.84</ele>
        <time>2019-06-06T09:33:38Z</time>
      </trkpt>
      <trkpt lat="42.56058" lon="-8.6396">
        <ele>44.36</ele>
        <time>2019-06-06T09:33:39Z</time>
      </trkpt>
      <trkpt lat="42.56061" lon="-8.63959">
        <ele>44.36</ele>
        <time>2019-06-06T09:33:41Z</time>
      </trkpt>
      <trkpt lat="42.56062" lon="-8.63959">
        <ele>45.32</ele>
        <time>2019-06-06T09:33:42Z</time>
      </trkpt>
      <trkpt lat="42.56063" lon="-8.63959">
        <ele>44.84</ele>
        <time>2019-06-06T09:33:43Z</time>
      </trkpt>
      <trkpt lat="42.56078" lon="-8.6396">
        <ele>43.88</ele>
        <time>2019-06-06T09:33:55Z</time>
      </trkpt>
      <trkpt lat="42.56101" lon="-8.63959">
        <ele>42.44</ele>
        <time>2019-06-06T09:34:14Z</time>
      </trkpt>
      <trkpt lat="42.56112" lon="-8.6396">
        <ele>43.4</ele>
        <time>2019-06-06T09:34:23Z</time>
      </trkpt>
      <trkpt lat="42.56113" lon="-8.6396">
        <ele>42.92</ele>
        <time>2019-06-06T09:34:24Z</time>
      </trkpt>
      <trkpt lat="42.56124" lon="-8.63944">
        <ele>43.4</ele>
        <time>2019-06-06T09:34:36Z</time>
      </trkpt>
      <trkpt lat="42.56125" lon="-8.63942">
        <ele>42.92</ele>
        <time>2019-06-06T09:34:37Z</time>
      </trkpt>
      <trkpt lat="42.56133" lon="-8.63926">
        <ele>43.4</ele>
        <time>2019-06-06T09:34:49Z</time>
      </trkpt>
      <trkpt lat="42.56134" lon="-8.63925">
        <ele>44.36</ele>
        <time>2019-06-06T09:34:50Z</time>
      </trkpt>
      <trkpt lat="42.56144" lon="-8.63919">
        <ele>45.32</ele>
        <time>2019-06-06T09:35:00Z</time>
      </trkpt>
      <trkpt lat="42.5616" lon="-8.63929">
        <ele>44.84</ele>
        <time>2019-06-06T09:35:15Z</time>
      </trkpt>
      <trkpt lat="42.5617" lon="-8.63937">
        <ele>44.36</ele>
        <time>2019-06-06T09:35:30Z</time>
      </trkpt>
      <trkpt lat="42.56172" lon="-8.63938">
        <ele>45.32</ele>
        <time>2019-06-06T09:35:32Z</time>
      </trkpt>
      <trkpt lat="42.56174" lon="-8.63939">
        <ele>45.32</ele>
        <time>2019-06-06T09:35:33Z</time>
      </trkpt>
      <trkpt lat="42.56188" lon="-8.63949">
        <ele>45.32</ele>
        <time>2019-06-06T09:35:46Z</time>
      </trkpt>
      <trkpt lat="42.56202" lon="-8.63957">
        <ele>44.84</ele>
        <time>2019-06-06T09:35:58Z</time>
      </trkpt>
      <trkpt lat="42.56216" lon="-8.63966">
        <ele>44.36</ele>
        <time>2019-06-06T09:36:10Z</time>
      </trkpt>
      <trkpt lat="42.5623" lon="-8.63973">
        <ele>46.76</ele>
        <time>2019-06-06T09:36:22Z</time>
      </trkpt>
      <trkpt lat="42.56233" lon="-8.6398">
        <ele>46.76</ele>
        <time>2019-06-06T09:36:28Z</time>
      </trkpt>
      <trkpt lat="42.56231" lon="-8.64003">
        <ele>43.88</ele>
        <time>2019-06-06T09:36:42Z</time>
      </trkpt>
      <trkpt lat="42.56231" lon="-8.64005">
        <ele>43.88</ele>
        <time>2019-06-06T09:36:43Z</time>
      </trkpt>
      <trkpt lat="42.56232" lon="-8.64006">
        <ele>43.4</ele>
        <time>2019-06-06T09:36:44Z</time>
      </trkpt>
      <trkpt lat="42.56233" lon="-8.64007">
        <ele>43.4</ele>
        <time>2019-06-06T09:36:45Z</time>
      </trkpt>
      <trkpt lat="42.56233" lon="-8.64009">
        <ele>43.4</ele>
        <time>2019-06-06T09:36:46Z</time>
      </trkpt>
      <trkpt lat="42.56236" lon="-8.64015">
        <ele>43.4</ele>
        <time>2019-06-06T09:36:50Z</time>
      </trkpt>
      <trkpt lat="42.56236" lon="-8.64017">
        <ele>42.92</ele>
        <time>2019-06-06T09:36:51Z</time>
      </trkpt>
      <trkpt lat="42.56231" lon="-8.64034">
        <ele>43.4</ele>
        <time>2019-06-06T09:37:02Z</time>
      </trkpt>
      <trkpt lat="42.56231" lon="-8.64036">
        <ele>41.95</ele>
        <time>2019-06-06T09:37:03Z</time>
      </trkpt>
      <trkpt lat="42.56231" lon="-8.64037">
        <ele>41.95</ele>
        <time>2019-06-06T09:37:04Z</time>
      </trkpt>
      <trkpt lat="42.56231" lon="-8.64039">
        <ele>41.47</ele>
        <time>2019-06-06T09:37:05Z</time>
      </trkpt>
      <trkpt lat="42.56231" lon="-8.64041">
        <ele>41.47</ele>
        <time>2019-06-06T09:37:06Z</time>
      </trkpt>
      <trkpt lat="42.56234" lon="-8.64044">
        <ele>40.99</ele>
        <time>2019-06-06T09:37:19Z</time>
      </trkpt>
      <trkpt lat="42.56235" lon="-8.64045">
        <ele>40.99</ele>
        <time>2019-06-06T09:37:20Z</time>
      </trkpt>
      <trkpt lat="42.56237" lon="-8.64046">
        <ele>40.51</ele>
        <time>2019-06-06T09:37:21Z</time>
      </trkpt>
      <trkpt lat="42.56238" lon="-8.64047">
        <ele>40.99</ele>
        <time>2019-06-06T09:37:22Z</time>
      </trkpt>
      <trkpt lat="42.56239" lon="-8.64048">
        <ele>40.51</ele>
        <time>2019-06-06T09:37:23Z</time>
      </trkpt>
      <trkpt lat="42.56252" lon="-8.64057">
        <ele>40.51</ele>
        <time>2019-06-06T09:37:35Z</time>
      </trkpt>
      <trkpt lat="42.56255" lon="-8.64058">
        <ele>40.99</ele>
        <time>2019-06-06T09:37:37Z</time>
      </trkpt>
      <trkpt lat="42.56256" lon="-8.64059">
        <ele>40.03</ele>
        <time>2019-06-06T09:37:38Z</time>
      </trkpt>
      <trkpt lat="42.56257" lon="-8.6406">
        <ele>40.51</ele>
        <time>2019-06-06T09:37:39Z</time>
      </trkpt>
      <trkpt lat="42.56258" lon="-8.64061">
        <ele>40.51</ele>
        <time>2019-06-06T09:37:40Z</time>
      </trkpt>
      <trkpt lat="42.56259" lon="-8.64062">
        <ele>40.03</ele>
        <time>2019-06-06T09:37:41Z</time>
      </trkpt>
      <trkpt lat="42.56261" lon="-8.64063">
        <ele>40.51</ele>
        <time>2019-06-06T09:37:42Z</time>
      </trkpt>
      <trkpt lat="42.56262" lon="-8.64064">
        <ele>40.03</ele>
        <time>2019-06-06T09:37:43Z</time>
      </trkpt>
      <trkpt lat="42.56263" lon="-8.64065">
        <ele>40.51</ele>
        <time>2019-06-06T09:37:44Z</time>
      </trkpt>
      <trkpt lat="42.56275" lon="-8.64076">
        <ele>41.95</ele>
        <time>2019-06-06T09:37:56Z</time>
      </trkpt>
      <trkpt lat="42.5629" lon="-8.64084">
        <ele>41.95</ele>
        <time>2019-06-06T09:38:09Z</time>
      </trkpt>
      <trkpt lat="42.56304" lon="-8.64093">
        <ele>41.95</ele>
        <time>2019-06-06T09:38:22Z</time>
      </trkpt>
      <trkpt lat="42.56318" lon="-8.64109">
        <ele>42.44</ele>
        <time>2019-06-06T09:38:37Z</time>
      </trkpt>
      <trkpt lat="42.56324" lon="-8.64119">
        <ele>43.88</ele>
        <time>2019-06-06T09:38:44Z</time>
      </trkpt>
      <trkpt lat="42.56337" lon="-8.64131">
        <ele>44.36</ele>
        <time>2019-06-06T09:38:56Z</time>
      </trkpt>
      <trkpt lat="42.56353" lon="-8.64142">
        <ele>44.36</ele>
        <time>2019-06-06T09:39:10Z</time>
      </trkpt>
      <trkpt lat="42.56366" lon="-8.6415">
        <ele>44.36</ele>
        <time>2019-06-06T09:39:22Z</time>
      </trkpt>
      <trkpt lat="42.56383" lon="-8.64158">
        <ele>44.36</ele>
        <time>2019-06-06T09:39:36Z</time>
      </trkpt>
      <trkpt lat="42.56401" lon="-8.64166">
        <ele>43.88</ele>
        <time>2019-06-06T09:39:52Z</time>
      </trkpt>
      <trkpt lat="42.56417" lon="-8.6417">
        <ele>43.4</ele>
        <time>2019-06-06T09:40:05Z</time>
      </trkpt>
      <trkpt lat="42.56431" lon="-8.64173">
        <ele>42.92</ele>
        <time>2019-06-06T09:40:15Z</time>
      </trkpt>
      <trkpt lat="42.56432" lon="-8.64173">
        <ele>43.4</ele>
        <time>2019-06-06T09:40:16Z</time>
      </trkpt>
      <trkpt lat="42.56447" lon="-8.64173">
        <ele>43.88</ele>
        <time>2019-06-06T09:40:31Z</time>
      </trkpt>
      <trkpt lat="42.56453" lon="-8.64172">
        <ele>42.92</ele>
        <time>2019-06-06T09:40:47Z</time>
      </trkpt>
      <trkpt lat="42.56459" lon="-8.6417">
        <ele>42.44</ele>
        <time>2019-06-06T09:40:53Z</time>
      </trkpt>
      <trkpt lat="42.56467" lon="-8.64174">
        <ele>41.47</ele>
        <time>2019-06-06T09:40:59Z</time>
      </trkpt>
      <trkpt lat="42.56468" lon="-8.64175">
        <ele>41.95</ele>
        <time>2019-06-06T09:41:00Z</time>
      </trkpt>
      <trkpt lat="42.56469" lon="-8.64176">
        <ele>41.95</ele>
        <time>2019-06-06T09:41:01Z</time>
      </trkpt>
      <trkpt lat="42.5648" lon="-8.64178">
        <ele>42.44</ele>
        <time>2019-06-06T09:41:09Z</time>
      </trkpt>
      <trkpt lat="42.56481" lon="-8.64178">
        <ele>41.95</ele>
        <time>2019-06-06T09:41:10Z</time>
      </trkpt>
      <trkpt lat="42.56485" lon="-8.64178">
        <ele>42.44</ele>
        <time>2019-06-06T09:41:13Z</time>
      </trkpt>
      <trkpt lat="42.56497" lon="-8.64179">
        <ele>42.92</ele>
        <time>2019-06-06T09:41:23Z</time>
      </trkpt>
      <trkpt lat="42.565" lon="-8.64179">
        <ele>42.92</ele>
        <time>2019-06-06T09:41:25Z</time>
      </trkpt>
      <trkpt lat="42.56501" lon="-8.6418">
        <ele>42.44</ele>
        <time>2019-06-06T09:41:26Z</time>
      </trkpt>
      <trkpt lat="42.56515" lon="-8.6418">
        <ele>42.92</ele>
        <time>2019-06-06T09:41:39Z</time>
      </trkpt>
      <trkpt lat="42.56518" lon="-8.64181">
        <ele>40.99</ele>
        <time>2019-06-06T09:41:43Z</time>
      </trkpt>
      <trkpt lat="42.56532" lon="-8.64178">
        <ele>42.92</ele>
        <time>2019-06-06T09:41:55Z</time>
      </trkpt>
      <trkpt lat="42.56549" lon="-8.64173">
        <ele>42.44</ele>
        <time>2019-06-06T09:42:08Z</time>
      </trkpt>
      <trkpt lat="42.56564" lon="-8.64165">
        <ele>40.99</ele>
        <time>2019-06-06T09:42:22Z</time>
      </trkpt>
      <trkpt lat="42.5657" lon="-8.64164">
        <ele>40.99</ele>
        <time>2019-06-06T09:42:26Z</time>
      </trkpt>
      <trkpt lat="42.56571" lon="-8.64165">
        <ele>41.47</ele>
        <time>2019-06-06T09:42:27Z</time>
      </trkpt>
      <trkpt lat="42.56573" lon="-8.64165">
        <ele>41.47</ele>
        <time>2019-06-06T09:42:28Z</time>
      </trkpt>
      <trkpt lat="42.56575" lon="-8.64164">
        <ele>41.47</ele>
        <time>2019-06-06T09:42:30Z</time>
      </trkpt>
      <trkpt lat="42.56592" lon="-8.6416">
        <ele>41.95</ele>
        <time>2019-06-06T09:42:44Z</time>
      </trkpt>
      <trkpt lat="42.5661" lon="-8.64161">
        <ele>40.99</ele>
        <time>2019-06-06T09:43:00Z</time>
      </trkpt>
      <trkpt lat="42.56623" lon="-8.64163">
        <ele>39.55</ele>
        <time>2019-06-06T09:43:14Z</time>
      </trkpt>
      <trkpt lat="42.56635" lon="-8.64164">
        <ele>39.07</ele>
        <time>2019-06-06T09:43:26Z</time>
      </trkpt>
      <trkpt lat="42.56653" lon="-8.64169">
        <ele>39.55</ele>
        <time>2019-06-06T09:43:42Z</time>
      </trkpt>
      <trkpt lat="42.5667" lon="-8.64161">
        <ele>39.55</ele>
        <time>2019-06-06T09:43:56Z</time>
      </trkpt>
      <trkpt lat="42.56671" lon="-8.6416">
        <ele>40.03</ele>
        <time>2019-06-06T09:43:57Z</time>
      </trkpt>
      <trkpt lat="42.5668" lon="-8.64161">
        <ele>39.07</ele>
        <time>2019-06-06T09:44:06Z</time>
      </trkpt>
      <trkpt lat="42.56681" lon="-8.64162">
        <ele>40.03</ele>
        <time>2019-06-06T09:44:07Z</time>
      </trkpt>
      <trkpt lat="42.56683" lon="-8.64163">
        <ele>39.55</ele>
        <time>2019-06-06T09:44:08Z</time>
      </trkpt>
      <trkpt lat="42.56695" lon="-8.64171">
        <ele>39.55</ele>
        <time>2019-06-06T09:44:21Z</time>
      </trkpt>
      <trkpt lat="42.56697" lon="-8.64172">
        <ele>39.07</ele>
        <time>2019-06-06T09:44:23Z</time>
      </trkpt>
      <trkpt lat="42.56706" lon="-8.64179">
        <ele>39.07</ele>
        <time>2019-06-06T09:44:31Z</time>
      </trkpt>
      <trkpt lat="42.56721" lon="-8.64193">
        <ele>39.55</ele>
        <time>2019-06-06T09:44:45Z</time>
      </trkpt>
      <trkpt lat="42.5674" lon="-8.64201">
        <ele>38.11</ele>
        <time>2019-06-06T09:45:01Z</time>
      </trkpt>
      <trkpt lat="42.5675" lon="-8.64203">
        <ele>38.59</ele>
        <time>2019-06-06T09:45:17Z</time>
      </trkpt>
      <trkpt lat="42.56762" lon="-8.64206">
        <ele>39.55</ele>
        <time>2019-06-06T09:45:28Z</time>
      </trkpt>
      <trkpt lat="42.56765" lon="-8.64207">
        <ele>40.03</ele>
        <time>2019-06-06T09:45:31Z</time>
      </trkpt>
      <trkpt lat="42.56766" lon="-8.64208">
        <ele>39.55</ele>
        <time>2019-06-06T09:45:32Z</time>
      </trkpt>
      <trkpt lat="42.56782" lon="-8.64212">
        <ele>38.59</ele>
        <time>2019-06-06T09:45:44Z</time>
      </trkpt>
      <trkpt lat="42.56796" lon="-8.64215">
        <ele>39.55</ele>
        <time>2019-06-06T09:45:56Z</time>
      </trkpt>
      <trkpt lat="42.56815" lon="-8.64213">
        <ele>40.51</ele>
        <time>2019-06-06T09:46:10Z</time>
      </trkpt>
      <trkpt lat="42.56816" lon="-8.64213">
        <ele>40.03</ele>
        <time>2019-06-06T09:46:11Z</time>
      </trkpt>
      <trkpt lat="42.56834" lon="-8.64214">
        <ele>40.99</ele>
        <time>2019-06-06T09:46:24Z</time>
      </trkpt>
      <trkpt lat="42.56839" lon="-8.64212">
        <ele>41.47</ele>
        <time>2019-06-06T09:46:28Z</time>
      </trkpt>
      <trkpt lat="42.5684" lon="-8.6421">
        <ele>40.99</ele>
        <time>2019-06-06T09:46:29Z</time>
      </trkpt>
      <trkpt lat="42.56845" lon="-8.64206">
        <ele>41.95</ele>
        <time>2019-06-06T09:46:34Z</time>
      </trkpt>
      <trkpt lat="42.56846" lon="-8.64206">
        <ele>41.95</ele>
        <time>2019-06-06T09:46:35Z</time>
      </trkpt>
      <trkpt lat="42.5685" lon="-8.64206">
        <ele>41.47</ele>
        <time>2019-06-06T09:46:38Z</time>
      </trkpt>
      <trkpt lat="42.56856" lon="-8.64226">
        <ele>40.99</ele>
        <time>2019-06-06T09:46:52Z</time>
      </trkpt>
      <trkpt lat="42.56863" lon="-8.64242">
        <ele>40.51</ele>
        <time>2019-06-06T09:47:03Z</time>
      </trkpt>
      <trkpt lat="42.56878" lon="-8.6426">
        <ele>39.07</ele>
        <time>2019-06-06T09:47:18Z</time>
      </trkpt>
      <trkpt lat="42.56893" lon="-8.64273">
        <ele>38.59</ele>
        <time>2019-06-06T09:47:33Z</time>
      </trkpt>
      <trkpt lat="42.569" lon="-8.64275">
        <ele>38.59</ele>
        <time>2019-06-06T09:47:50Z</time>
      </trkpt>
      <trkpt lat="42.56906" lon="-8.64277">
        <ele>38.59</ele>
        <time>2019-06-06T09:47:55Z</time>
      </trkpt>
      <trkpt lat="42.56919" lon="-8.6428">
        <ele>38.59</ele>
        <time>2019-06-06T09:48:06Z</time>
      </trkpt>
      <trkpt lat="42.56923" lon="-8.6428">
        <ele>37.63</ele>
        <time>2019-06-06T09:48:09Z</time>
      </trkpt>
      <trkpt lat="42.56931" lon="-8.64283">
        <ele>38.11</ele>
        <time>2019-06-06T09:48:16Z</time>
      </trkpt>
      <trkpt lat="42.56932" lon="-8.64284">
        <ele>37.63</ele>
        <time>2019-06-06T09:48:17Z</time>
      </trkpt>
      <trkpt lat="42.56946" lon="-8.64294">
        <ele>37.15</ele>
        <time>2019-06-06T09:48:29Z</time>
      </trkpt>
      <trkpt lat="42.56949" lon="-8.64297">
        <ele>37.15</ele>
        <time>2019-06-06T09:48:32Z</time>
      </trkpt>
      <trkpt lat="42.5695" lon="-8.64297">
        <ele>37.15</ele>
        <time>2019-06-06T09:48:33Z</time>
      </trkpt>
      <trkpt lat="42.56961" lon="-8.64317">
        <ele>37.15</ele>
        <time>2019-06-06T09:48:45Z</time>
      </trkpt>
      <trkpt lat="42.56972" lon="-8.64334">
        <ele>36.67</ele>
        <time>2019-06-06T09:48:59Z</time>
      </trkpt>
      <trkpt lat="42.56971" lon="-8.64334">
        <ele>36.67</ele>
        <time>2019-06-06T09:49:03Z</time>
      </trkpt>
      <trkpt lat="42.56972" lon="-8.64336">
        <ele>35.71</ele>
        <time>2019-06-06T09:49:04Z</time>
      </trkpt>
      <trkpt lat="42.56973" lon="-8.64337">
        <ele>36.67</ele>
        <time>2019-06-06T09:49:05Z</time>
      </trkpt>
      <trkpt lat="42.56976" lon="-8.64343">
        <ele>36.19</ele>
        <time>2019-06-06T09:49:09Z</time>
      </trkpt>
      <trkpt lat="42.56977" lon="-8.64344">
        <ele>35.23</ele>
        <time>2019-06-06T09:49:10Z</time>
      </trkpt>
      <trkpt lat="42.56989" lon="-8.64361">
        <ele>35.71</ele>
        <time>2019-06-06T09:49:24Z</time>
      </trkpt>
      <trkpt lat="42.56995" lon="-8.64371">
        <ele>35.23</ele>
        <time>2019-06-06T09:49:32Z</time>
      </trkpt>
      <trkpt lat="42.56996" lon="-8.64372">
        <ele>34.74</ele>
        <time>2019-06-06T09:49:33Z</time>
      </trkpt>
      <trkpt lat="42.56998" lon="-8.64395">
        <ele>36.19</ele>
        <time>2019-06-06T09:49:47Z</time>
      </trkpt>
      <trkpt lat="42.57003" lon="-8.6442">
        <ele>34.74</ele>
        <time>2019-06-06T09:50:01Z</time>
      </trkpt>
      <trkpt lat="42.57012" lon="-8.64439">
        <ele>34.26</ele>
        <time>2019-06-06T09:50:16Z</time>
      </trkpt>
      <trkpt lat="42.57013" lon="-8.64441">
        <ele>35.23</ele>
        <time>2019-06-06T09:50:18Z</time>
      </trkpt>
      <trkpt lat="42.57015" lon="-8.64442">
        <ele>34.74</ele>
        <time>2019-06-06T09:50:20Z</time>
      </trkpt>
      <trkpt lat="42.57017" lon="-8.64444">
        <ele>34.26</ele>
        <time>2019-06-06T09:50:22Z</time>
      </trkpt>
      <trkpt lat="42.57018" lon="-8.64445">
        <ele>34.26</ele>
        <time>2019-06-06T09:50:23Z</time>
      </trkpt>
      <trkpt lat="42.57027" lon="-8.64452">
        <ele>32.82</ele>
        <time>2019-06-06T09:50:31Z</time>
      </trkpt>
      <trkpt lat="42.5703" lon="-8.64454">
        <ele>33.78</ele>
        <time>2019-06-06T09:50:34Z</time>
      </trkpt>
      <trkpt lat="42.57036" lon="-8.64456">
        <ele>33.78</ele>
        <time>2019-06-06T09:50:39Z</time>
      </trkpt>
      <trkpt lat="42.57038" lon="-8.64456">
        <ele>34.26</ele>
        <time>2019-06-06T09:50:40Z</time>
      </trkpt>
      <trkpt lat="42.57044" lon="-8.64459">
        <ele>34.74</ele>
        <time>2019-06-06T09:50:45Z</time>
      </trkpt>
      <trkpt lat="42.57047" lon="-8.64459">
        <ele>34.26</ele>
        <time>2019-06-06T09:50:48Z</time>
      </trkpt>
      <trkpt lat="42.57052" lon="-8.64461">
        <ele>34.74</ele>
        <time>2019-06-06T09:50:52Z</time>
      </trkpt>
      <trkpt lat="42.57054" lon="-8.64461">
        <ele>34.26</ele>
        <time>2019-06-06T09:50:53Z</time>
      </trkpt>
      <trkpt lat="42.57069" lon="-8.6446">
        <ele>34.26</ele>
        <time>2019-06-06T09:51:07Z</time>
      </trkpt>
      <trkpt lat="42.57075" lon="-8.64459">
        <ele>33.3</ele>
        <time>2019-06-06T09:51:13Z</time>
      </trkpt>
      <trkpt lat="42.57087" lon="-8.64453">
        <ele>33.3</ele>
        <time>2019-06-06T09:51:24Z</time>
      </trkpt>
      <trkpt lat="42.57104" lon="-8.64448">
        <ele>35.71</ele>
        <time>2019-06-06T09:51:39Z</time>
      </trkpt>
      <trkpt lat="42.57121" lon="-8.64439">
        <ele>36.19</ele>
        <time>2019-06-06T09:51:54Z</time>
      </trkpt>
      <trkpt lat="42.57132" lon="-8.64423">
        <ele>36.67</ele>
        <time>2019-06-06T09:52:07Z</time>
      </trkpt>
      <trkpt lat="42.57132" lon="-8.64421">
        <ele>36.19</ele>
        <time>2019-06-06T09:52:08Z</time>
      </trkpt>
      <trkpt lat="42.57132" lon="-8.6442">
        <ele>36.19</ele>
        <time>2019-06-06T09:52:09Z</time>
      </trkpt>
      <trkpt lat="42.57133" lon="-8.64419">
        <ele>37.15</ele>
        <time>2019-06-06T09:52:10Z</time>
      </trkpt>
      <trkpt lat="42.57134" lon="-8.64417">
        <ele>36.19</ele>
        <time>2019-06-06T09:52:11Z</time>
      </trkpt>
      <trkpt lat="42.57135" lon="-8.64415">
        <ele>36.67</ele>
        <time>2019-06-06T09:52:12Z</time>
      </trkpt>
      <trkpt lat="42.57135" lon="-8.64414">
        <ele>36.67</ele>
        <time>2019-06-06T09:52:13Z</time>
      </trkpt>
      <trkpt lat="42.57136" lon="-8.64413">
        <ele>37.15</ele>
        <time>2019-06-06T09:52:14Z</time>
      </trkpt>
      <trkpt lat="42.57138" lon="-8.6441">
        <ele>36.67</ele>
        <time>2019-06-06T09:52:16Z</time>
      </trkpt>
      <trkpt lat="42.57141" lon="-8.64403">
        <ele>37.15</ele>
        <time>2019-06-06T09:52:20Z</time>
      </trkpt>
      <trkpt lat="42.57141" lon="-8.64401">
        <ele>37.15</ele>
        <time>2019-06-06T09:52:21Z</time>
      </trkpt>
      <trkpt lat="42.57141" lon="-8.64399">
        <ele>37.63</ele>
        <time>2019-06-06T09:52:22Z</time>
      </trkpt>
      <trkpt lat="42.57142" lon="-8.64398">
        <ele>37.15</ele>
        <time>2019-06-06T09:52:23Z</time>
      </trkpt>
      <trkpt lat="42.57143" lon="-8.64397">
        <ele>37.63</ele>
        <time>2019-06-06T09:52:24Z</time>
      </trkpt>
      <trkpt lat="42.57143" lon="-8.64395">
        <ele>38.11</ele>
        <time>2019-06-06T09:52:25Z</time>
      </trkpt>
      <trkpt lat="42.57144" lon="-8.64393">
        <ele>38.11</ele>
        <time>2019-06-06T09:52:27Z</time>
      </trkpt>
      <trkpt lat="42.57147" lon="-8.6438">
        <ele>37.63</ele>
        <time>2019-06-06T09:52:37Z</time>
      </trkpt>
      <trkpt lat="42.57152" lon="-8.64367">
        <ele>38.11</ele>
        <time>2019-06-06T09:52:45Z</time>
      </trkpt>
      <trkpt lat="42.57155" lon="-8.64346">
        <ele>37.63</ele>
        <time>2019-06-06T09:52:57Z</time>
      </trkpt>
      <trkpt lat="42.57157" lon="-8.64334">
        <ele>37.15</ele>
        <time>2019-06-06T09:53:07Z</time>
      </trkpt>
      <trkpt lat="42.57161" lon="-8.64321">
        <ele>36.67</ele>
        <time>2019-06-06T09:53:17Z</time>
      </trkpt>
      <trkpt lat="42.57161" lon="-8.6432">
        <ele>37.15</ele>
        <time>2019-06-06T09:53:18Z</time>
      </trkpt>
      <trkpt lat="42.57163" lon="-8.64318">
        <ele>36.19</ele>
        <time>2019-06-06T09:53:19Z</time>
      </trkpt>
      <trkpt lat="42.57164" lon="-8.64316">
        <ele>36.19</ele>
        <time>2019-06-06T09:53:20Z</time>
      </trkpt>
      <trkpt lat="42.57165" lon="-8.64315">
        <ele>36.19</ele>
        <time>2019-06-06T09:53:21Z</time>
      </trkpt>
      <trkpt lat="42.57177" lon="-8.64304">
        <ele>35.23</ele>
        <time>2019-06-06T09:53:32Z</time>
      </trkpt>
      <trkpt lat="42.57178" lon="-8.64304">
        <ele>36.19</ele>
        <time>2019-06-06T09:53:33Z</time>
      </trkpt>
      <trkpt lat="42.5718" lon="-8.64304">
        <ele>36.19</ele>
        <time>2019-06-06T09:53:34Z</time>
      </trkpt>
      <trkpt lat="42.57181" lon="-8.64305">
        <ele>35.71</ele>
        <time>2019-06-06T09:53:35Z</time>
      </trkpt>
      <trkpt lat="42.572" lon="-8.64311">
        <ele>34.74</ele>
        <time>2019-06-06T09:53:50Z</time>
      </trkpt>
      <trkpt lat="42.57204" lon="-8.64312">
        <ele>34.74</ele>
        <time>2019-06-06T09:53:53Z</time>
      </trkpt>
      <trkpt lat="42.57211" lon="-8.64314">
        <ele>36.19</ele>
        <time>2019-06-06T09:53:59Z</time>
      </trkpt>
      <trkpt lat="42.57213" lon="-8.64315">
        <ele>35.23</ele>
        <time>2019-06-06T09:54:00Z</time>
      </trkpt>
      <trkpt lat="42.57214" lon="-8.64315">
        <ele>36.19</ele>
        <time>2019-06-06T09:54:01Z</time>
      </trkpt>
      <trkpt lat="42.57226" lon="-8.64314">
        <ele>36.19</ele>
        <time>2019-06-06T09:54:13Z</time>
      </trkpt>
      <trkpt lat="42.57238" lon="-8.64309">
        <ele>35.23</ele>
        <time>2019-06-06T09:54:25Z</time>
      </trkpt>
      <trkpt lat="42.57246" lon="-8.64311">
        <ele>35.23</ele>
        <time>2019-06-06T09:54:31Z</time>
      </trkpt>
      <trkpt lat="42.57248" lon="-8.64312">
        <ele>35.23</ele>
        <time>2019-06-06T09:54:32Z</time>
      </trkpt>
      <trkpt lat="42.57266" lon="-8.64311">
        <ele>34.74</ele>
        <time>2019-06-06T09:54:44Z</time>
      </trkpt>
      <trkpt lat="42.57268" lon="-8.64312">
        <ele>34.74</ele>
        <time>2019-06-06T09:54:46Z</time>
      </trkpt>
      <trkpt lat="42.57271" lon="-8.64313">
        <ele>33.3</ele>
        <time>2019-06-06T09:55:00Z</time>
      </trkpt>
      <trkpt lat="42.57281" lon="-8.64312">
        <ele>34.26</ele>
        <time>2019-06-06T09:55:15Z</time>
      </trkpt>
      <trkpt lat="42.57302" lon="-8.64315">
        <ele>33.78</ele>
        <time>2019-06-06T09:55:32Z</time>
      </trkpt>
      <trkpt lat="42.5732" lon="-8.64317">
        <ele>33.78</ele>
        <time>2019-06-06T09:55:46Z</time>
      </trkpt>
      <trkpt lat="42.57341" lon="-8.64321">
        <ele>32.82</ele>
        <time>2019-06-06T09:56:01Z</time>
      </trkpt>
      <trkpt lat="42.57362" lon="-8.64323">
        <ele>33.3</ele>
        <time>2019-06-06T09:56:17Z</time>
      </trkpt>
      <trkpt lat="42.57374" lon="-8.64327">
        <ele>33.78</ele>
        <time>2019-06-06T09:56:29Z</time>
      </trkpt>
      <trkpt lat="42.57385" lon="-8.64329">
        <ele>33.78</ele>
        <time>2019-06-06T09:56:37Z</time>
      </trkpt>
      <trkpt lat="42.57387" lon="-8.6433">
        <ele>34.26</ele>
        <time>2019-06-06T09:56:38Z</time>
      </trkpt>
      <trkpt lat="42.57388" lon="-8.64329">
        <ele>34.26</ele>
        <time>2019-06-06T09:56:39Z</time>
      </trkpt>
      <trkpt lat="42.57389" lon="-8.6433">
        <ele>33.78</ele>
        <time>2019-06-06T09:56:40Z</time>
      </trkpt>
      <trkpt lat="42.57393" lon="-8.64332">
        <ele>33.3</ele>
        <time>2019-06-06T09:56:43Z</time>
      </trkpt>
      <trkpt lat="42.57394" lon="-8.64333">
        <ele>33.3</ele>
        <time>2019-06-06T09:56:44Z</time>
      </trkpt>
      <trkpt lat="42.57395" lon="-8.64333">
        <ele>32.82</ele>
        <time>2019-06-06T09:56:45Z</time>
      </trkpt>
      <trkpt lat="42.57396" lon="-8.64334">
        <ele>33.78</ele>
        <time>2019-06-06T09:56:46Z</time>
      </trkpt>
      <trkpt lat="42.57399" lon="-8.64335">
        <ele>32.82</ele>
        <time>2019-06-06T09:56:48Z</time>
      </trkpt>
      <trkpt lat="42.574" lon="-8.64335">
        <ele>32.34</ele>
        <time>2019-06-06T09:56:49Z</time>
      </trkpt>
      <trkpt lat="42.57401" lon="-8.64336">
        <ele>32.82</ele>
        <time>2019-06-06T09:56:50Z</time>
      </trkpt>
      <trkpt lat="42.57403" lon="-8.64336">
        <ele>32.82</ele>
        <time>2019-06-06T09:56:51Z</time>
      </trkpt>
      <trkpt lat="42.57407" lon="-8.64338">
        <ele>33.3</ele>
        <time>2019-06-06T09:57:02Z</time>
      </trkpt>
      <trkpt lat="42.57408" lon="-8.64338">
        <ele>33.3</ele>
        <time>2019-06-06T09:57:03Z</time>
      </trkpt>
      <trkpt lat="42.5741" lon="-8.64339">
        <ele>33.3</ele>
        <time>2019-06-06T09:57:04Z</time>
      </trkpt>
      <trkpt lat="42.57411" lon="-8.64339">
        <ele>33.78</ele>
        <time>2019-06-06T09:57:05Z</time>
      </trkpt>
      <trkpt lat="42.57412" lon="-8.6434">
        <ele>33.3</ele>
        <time>2019-06-06T09:57:06Z</time>
      </trkpt>
      <trkpt lat="42.57414" lon="-8.6434">
        <ele>33.3</ele>
        <time>2019-06-06T09:57:07Z</time>
      </trkpt>
      <trkpt lat="42.5743" lon="-8.64344">
        <ele>32.82</ele>
        <time>2019-06-06T09:57:21Z</time>
      </trkpt>
      <trkpt lat="42.57445" lon="-8.6434">
        <ele>32.82</ele>
        <time>2019-06-06T09:57:34Z</time>
      </trkpt>
      <trkpt lat="42.57456" lon="-8.64337">
        <ele>33.3</ele>
        <time>2019-06-06T09:57:45Z</time>
      </trkpt>
      <trkpt lat="42.57467" lon="-8.64336">
        <ele>33.78</ele>
        <time>2019-06-06T09:57:52Z</time>
      </trkpt>
      <trkpt lat="42.57469" lon="-8.64335">
        <ele>33.3</ele>
        <time>2019-06-06T09:57:53Z</time>
      </trkpt>
      <trkpt lat="42.57471" lon="-8.64335">
        <ele>33.3</ele>
        <time>2019-06-06T09:57:54Z</time>
      </trkpt>
      <trkpt lat="42.57482" lon="-8.64322">
        <ele>33.78</ele>
        <time>2019-06-06T09:58:04Z</time>
      </trkpt>
      <trkpt lat="42.57484" lon="-8.6432">
        <ele>33.78</ele>
        <time>2019-06-06T09:58:05Z</time>
      </trkpt>
      <trkpt lat="42.57487" lon="-8.64317">
        <ele>34.26</ele>
        <time>2019-06-06T09:58:07Z</time>
      </trkpt>
      <trkpt lat="42.57488" lon="-8.64316">
        <ele>33.78</ele>
        <time>2019-06-06T09:58:08Z</time>
      </trkpt>
      <trkpt lat="42.57503" lon="-8.64311">
        <ele>33.78</ele>
        <time>2019-06-06T09:58:19Z</time>
      </trkpt>
      <trkpt lat="42.57504" lon="-8.6431">
        <ele>33.78</ele>
        <time>2019-06-06T09:58:20Z</time>
      </trkpt>
      <trkpt lat="42.57505" lon="-8.64308">
        <ele>33.3</ele>
        <time>2019-06-06T09:58:21Z</time>
      </trkpt>
      <trkpt lat="42.57506" lon="-8.64307">
        <ele>33.3</ele>
        <time>2019-06-06T09:58:22Z</time>
      </trkpt>
      <trkpt lat="42.57507" lon="-8.64305">
        <ele>33.3</ele>
        <time>2019-06-06T09:58:23Z</time>
      </trkpt>
      <trkpt lat="42.57508" lon="-8.64303">
        <ele>32.82</ele>
        <time>2019-06-06T09:58:24Z</time>
      </trkpt>
      <trkpt lat="42.57511" lon="-8.64302">
        <ele>33.78</ele>
        <time>2019-06-06T09:58:28Z</time>
      </trkpt>
      <trkpt lat="42.5752" lon="-8.64304">
        <ele>32.82</ele>
        <time>2019-06-06T09:58:39Z</time>
      </trkpt>
      <trkpt lat="42.5752" lon="-8.64307">
        <ele>32.82</ele>
        <time>2019-06-06T09:58:40Z</time>
      </trkpt>
      <trkpt lat="42.57521" lon="-8.64309">
        <ele>33.3</ele>
        <time>2019-06-06T09:58:41Z</time>
      </trkpt>
      <trkpt lat="42.57522" lon="-8.64311">
        <ele>32.82</ele>
        <time>2019-06-06T09:58:42Z</time>
      </trkpt>
      <trkpt lat="42.57524" lon="-8.64312">
        <ele>33.3</ele>
        <time>2019-06-06T09:58:43Z</time>
      </trkpt>
      <trkpt lat="42.57525" lon="-8.64313">
        <ele>32.34</ele>
        <time>2019-06-06T09:58:44Z</time>
      </trkpt>
      <trkpt lat="42.57527" lon="-8.64313">
        <ele>32.82</ele>
        <time>2019-06-06T09:58:45Z</time>
      </trkpt>
      <trkpt lat="42.57528" lon="-8.64314">
        <ele>32.82</ele>
        <time>2019-06-06T09:58:46Z</time>
      </trkpt>
      <trkpt lat="42.57542" lon="-8.64314">
        <ele>31.86</ele>
        <time>2019-06-06T09:59:00Z</time>
      </trkpt>
      <trkpt lat="42.57552" lon="-8.64314">
        <ele>31.86</ele>
        <time>2019-06-06T09:59:09Z</time>
      </trkpt>
      <trkpt lat="42.57568" lon="-8.64317">
        <ele>32.34</ele>
        <time>2019-06-06T09:59:20Z</time>
      </trkpt>
      <trkpt lat="42.57585" lon="-8.64322">
        <ele>32.82</ele>
        <time>2019-06-06T09:59:33Z</time>
      </trkpt>
      <trkpt lat="42.57596" lon="-8.64324">
        <ele>31.86</ele>
        <time>2019-06-06T09:59:42Z</time>
      </trkpt>
      <trkpt lat="42.57598" lon="-8.64324">
        <ele>32.34</ele>
        <time>2019-06-06T09:59:43Z</time>
      </trkpt>
      <trkpt lat="42.57611" lon="-8.64324">
        <ele>33.78</ele>
        <time>2019-06-06T09:59:54Z</time>
      </trkpt>
      <trkpt lat="42.5763" lon="-8.64322">
        <ele>33.3</ele>
        <time>2019-06-06T10:00:09Z</time>
      </trkpt>
      <trkpt lat="42.57641" lon="-8.64319">
        <ele>33.78</ele>
        <time>2019-06-06T10:00:19Z</time>
      </trkpt>
      <trkpt lat="42.57657" lon="-8.64316">
        <ele>34.26</ele>
        <time>2019-06-06T10:00:32Z</time>
      </trkpt>
      <trkpt lat="42.57662" lon="-8.64315">
        <ele>34.26</ele>
        <time>2019-06-06T10:00:37Z</time>
      </trkpt>
      <trkpt lat="42.57663" lon="-8.64314">
        <ele>33.78</ele>
        <time>2019-06-06T10:00:38Z</time>
      </trkpt>
      <trkpt lat="42.57678" lon="-8.64312">
        <ele>33.78</ele>
        <time>2019-06-06T10:00:50Z</time>
      </trkpt>
      <trkpt lat="42.57679" lon="-8.64312">
        <ele>34.26</ele>
        <time>2019-06-06T10:00:51Z</time>
      </trkpt>
      <trkpt lat="42.57681" lon="-8.64312">
        <ele>34.26</ele>
        <time>2019-06-06T10:00:52Z</time>
      </trkpt>
      <trkpt lat="42.57682" lon="-8.64312">
        <ele>34.26</ele>
        <time>2019-06-06T10:00:53Z</time>
      </trkpt>
      <trkpt lat="42.577" lon="-8.64319">
        <ele>33.78</ele>
        <time>2019-06-06T10:01:07Z</time>
      </trkpt>
      <trkpt lat="42.57717" lon="-8.64325">
        <ele>33.3</ele>
        <time>2019-06-06T10:01:19Z</time>
      </trkpt>
      <trkpt lat="42.57718" lon="-8.64325">
        <ele>32.82</ele>
        <time>2019-06-06T10:01:20Z</time>
      </trkpt>
      <trkpt lat="42.57722" lon="-8.64327">
        <ele>33.78</ele>
        <time>2019-06-06T10:01:23Z</time>
      </trkpt>
      <trkpt lat="42.57723" lon="-8.64328">
        <ele>32.82</ele>
        <time>2019-06-06T10:01:24Z</time>
      </trkpt>
      <trkpt lat="42.57724" lon="-8.64328">
        <ele>33.3</ele>
        <time>2019-06-06T10:01:25Z</time>
      </trkpt>
      <trkpt lat="42.57726" lon="-8.64328">
        <ele>32.82</ele>
        <time>2019-06-06T10:01:26Z</time>
      </trkpt>
      <trkpt lat="42.57732" lon="-8.64334">
        <ele>33.3</ele>
        <time>2019-06-06T10:01:42Z</time>
      </trkpt>
      <trkpt lat="42.57731" lon="-8.64332">
        <ele>32.34</ele>
        <time>2019-06-06T10:01:55Z</time>
      </trkpt>
      <trkpt lat="42.57731" lon="-8.64336">
        <ele>32.34</ele>
        <time>2019-06-06T10:02:13Z</time>
      </trkpt>
      <trkpt lat="42.57734" lon="-8.64337">
        <ele>32.34</ele>
        <time>2019-06-06T10:02:31Z</time>
      </trkpt>
      <trkpt lat="42.57735" lon="-8.64337">
        <ele>31.86</ele>
        <time>2019-06-06T10:02:49Z</time>
      </trkpt>
      <trkpt lat="42.57733" lon="-8.64336">
        <ele>31.86</ele>
        <time>2019-06-06T10:03:02Z</time>
      </trkpt>
      <trkpt lat="42.57732" lon="-8.64338">
        <ele>32.82</ele>
        <time>2019-06-06T10:03:15Z</time>
      </trkpt>
      <trkpt lat="42.57733" lon="-8.64342">
        <ele>30.9</ele>
        <time>2019-06-06T10:03:32Z</time>
      </trkpt>
      <trkpt lat="42.57732" lon="-8.64341">
        <ele>31.86</ele>
        <time>2019-06-06T10:04:02Z</time>
      </trkpt>
      <trkpt lat="42.57731" lon="-8.6434">
        <ele>31.38</ele>
        <time>2019-06-06T10:04:39Z</time>
      </trkpt>
      <trkpt lat="42.57735" lon="-8.64341">
        <ele>31.86</ele>
        <time>2019-06-06T10:05:09Z</time>
      </trkpt>
      <trkpt lat="42.57734" lon="-8.64346">
        <ele>30.9</ele>
        <time>2019-06-06T10:05:47Z</time>
      </trkpt>
      <trkpt lat="42.57738" lon="-8.64345">
        <ele>30.9</ele>
        <time>2019-06-06T10:06:32Z</time>
      </trkpt>
      <trkpt lat="42.57734" lon="-8.64343">
        <ele>31.38</ele>
        <time>2019-06-06T10:07:11Z</time>
      </trkpt>
      <trkpt lat="42.57732" lon="-8.64342">
        <ele>31.86</ele>
        <time>2019-06-06T10:07:54Z</time>
      </trkpt>
      <trkpt lat="42.57733" lon="-8.64343">
        <ele>32.34</ele>
        <time>2019-06-06T10:08:32Z</time>
      </trkpt>
      <trkpt lat="42.57732" lon="-8.64345">
        <ele>32.34</ele>
        <time>2019-06-06T10:09:12Z</time>
      </trkpt>
      <trkpt lat="42.57729" lon="-8.64341">
        <ele>32.82</ele>
        <time>2019-06-06T10:09:53Z</time>
      </trkpt>
      <trkpt lat="42.57735" lon="-8.64341">
        <ele>32.34</ele>
        <time>2019-06-06T10:10:30Z</time>
      </trkpt>
      <trkpt lat="42.57734" lon="-8.6434">
        <ele>32.34</ele>
        <time>2019-06-06T10:11:05Z</time>
      </trkpt>
      <trkpt lat="42.57734" lon="-8.64341">
        <ele>32.34</ele>
        <time>2019-06-06T10:11:44Z</time>
      </trkpt>
      <trkpt lat="42.57732" lon="-8.64343">
        <ele>32.34</ele>
        <time>2019-06-06T10:12:19Z</time>
      </trkpt>
      <trkpt lat="42.57733" lon="-8.6434">
        <ele>35.71</ele>
        <time>2019-06-06T10:12:46Z</time>
      </trkpt>
      <trkpt lat="42.57733" lon="-8.6434">
        <ele>32.34</ele>
        <time>2019-06-06T10:12:48Z</time>
      </trkpt>
      <trkpt lat="42.57734" lon="-8.64342">
        <ele>32.82</ele>
        <time>2019-06-06T10:13:08Z</time>
      </trkpt>
      <trkpt lat="42.57736" lon="-8.64339">
        <ele>33.78</ele>
        <time>2019-06-06T10:13:34Z</time>
      </trkpt>
      <trkpt lat="42.57729" lon="-8.64339">
        <ele>32.82</ele>
        <time>2019-06-06T10:14:10Z</time>
      </trkpt>
      <trkpt lat="42.57732" lon="-8.64341">
        <ele>32.34</ele>
        <time>2019-06-06T10:14:45Z</time>
      </trkpt>
      <trkpt lat="42.57736" lon="-8.64343">
        <ele>32.82</ele>
        <time>2019-06-06T10:15:17Z</time>
      </trkpt>
      <trkpt lat="42.57734" lon="-8.64343">
        <ele>32.34</ele>
        <time>2019-06-06T10:15:49Z</time>
      </trkpt>
      <trkpt lat="42.57731" lon="-8.64343">
        <ele>32.34</ele>
        <time>2019-06-06T10:16:26Z</time>
      </trkpt>
      <trkpt lat="42.57732" lon="-8.64344">
        <ele>31.86</ele>
        <time>2019-06-06T10:16:56Z</time>
      </trkpt>
      <trkpt lat="42.57734" lon="-8.64346">
        <ele>32.82</ele>
        <time>2019-06-06T10:17:35Z</time>
      </trkpt>
      <trkpt lat="42.57731" lon="-8.6434">
        <ele>32.82</ele>
        <time>2019-06-06T10:18:10Z</time>
      </trkpt>
      <trkpt lat="42.57732" lon="-8.64343">
        <ele>32.82</ele>
        <time>2019-06-06T10:18:42Z</time>
      </trkpt>
      <trkpt lat="42.57734" lon="-8.64344">
        <ele>32.34</ele>
        <time>2019-06-06T10:19:15Z</time>
      </trkpt>
      <trkpt lat="42.57736" lon="-8.64344">
        <ele>32.34</ele>
        <time>2019-06-06T10:19:52Z</time>
      </trkpt>
      <trkpt lat="42.57734" lon="-8.64343">
        <ele>33.3</ele>
        <time>2019-06-06T10:20:33Z</time>
      </trkpt>
      <trkpt lat="42.57734" lon="-8.64342">
        <ele>33.78</ele>
        <time>2019-06-06T10:21:02Z</time>
      </trkpt>
      <trkpt lat="42.57735" lon="-8.64339">
        <ele>34.26</ele>
        <time>2019-06-06T10:21:31Z</time>
      </trkpt>
      <trkpt lat="42.57736" lon="-8.6434">
        <ele>33.78</ele>
        <time>2019-06-06T10:22:01Z</time>
      </trkpt>
      <trkpt lat="42.57735" lon="-8.64339">
        <ele>33.78</ele>
        <time>2019-06-06T10:22:32Z</time>
      </trkpt>
      <trkpt lat="42.57734" lon="-8.64342">
        <ele>34.26</ele>
        <time>2019-06-06T10:23:01Z</time>
      </trkpt>
      <trkpt lat="42.57731" lon="-8.64343">
        <ele>33.78</ele>
        <time>2019-06-06T10:23:35Z</time>
      </trkpt>
      <trkpt lat="42.57729" lon="-8.64339">
        <ele>33.78</ele>
        <time>2019-06-06T10:24:08Z</time>
      </trkpt>
      <trkpt lat="42.57729" lon="-8.64339">
        <ele>33.78</ele>
        <time>2019-06-06T10:24:43Z</time>
      </trkpt>
      <trkpt lat="42.57731" lon="-8.6434">
        <ele>33.3</ele>
        <time>2019-06-06T10:25:10Z</time>
      </trkpt>
      <trkpt lat="42.57731" lon="-8.64338">
        <ele>33.3</ele>
        <time>2019-06-06T10:25:43Z</time>
      </trkpt>
      <trkpt lat="42.57733" lon="-8.6434">
        <ele>34.26</ele>
        <time>2019-06-06T10:26:15Z</time>
      </trkpt>
      <trkpt lat="42.57735" lon="-8.64338">
        <ele>33.78</ele>
        <time>2019-06-06T10:26:43Z</time>
      </trkpt>
      <trkpt lat="42.57738" lon="-8.6434">
        <ele>34.26</ele>
        <time>2019-06-06T10:27:07Z</time>
      </trkpt>
      <trkpt lat="42.57738" lon="-8.64341">
        <ele>34.26</ele>
        <time>2019-06-06T10:27:33Z</time>
      </trkpt>
      <trkpt lat="42.57732" lon="-8.64342">
        <ele>34.74</ele>
        <time>2019-06-06T10:27:58Z</time>
      </trkpt>
      <trkpt lat="42.5773" lon="-8.64339">
        <ele>35.23</ele>
        <time>2019-06-06T10:28:31Z</time>
      </trkpt>
      <trkpt lat="42.57731" lon="-8.64339">
        <ele>34.74</ele>
        <time>2019-06-06T10:29:00Z</time>
      </trkpt>
      <trkpt lat="42.57732" lon="-8.6434">
        <ele>35.71</ele>
        <time>2019-06-06T10:29:10Z</time>
      </trkpt>
      <trkpt lat="42.5773" lon="-8.6434">
        <ele>34.74</ele>
        <time>2019-06-06T10:29:38Z</time>
      </trkpt>
      <trkpt lat="42.57731" lon="-8.64341">
        <ele>34.74</ele>
        <time>2019-06-06T10:30:06Z</time>
      </trkpt>
      <trkpt lat="42.57735" lon="-8.64343">
        <ele>34.74</ele>
        <time>2019-06-06T10:30:42Z</time>
      </trkpt>
      <trkpt lat="42.57741" lon="-8.64342">
        <ele>34.26</ele>
        <time>2019-06-06T10:31:12Z</time>
      </trkpt>
      <trkpt lat="42.57742" lon="-8.64341">
        <ele>34.74</ele>
        <time>2019-06-06T10:31:47Z</time>
      </trkpt>
      <trkpt lat="42.57736" lon="-8.64341">
        <ele>34.74</ele>
        <time>2019-06-06T10:32:19Z</time>
      </trkpt>
      <trkpt lat="42.57735" lon="-8.64342">
        <ele>34.74</ele>
        <time>2019-06-06T10:32:54Z</time>
      </trkpt>
      <trkpt lat="42.57734" lon="-8.64341">
        <ele>36.67</ele>
        <time>2019-06-06T10:33:31Z</time>
      </trkpt>
      <trkpt lat="42.57735" lon="-8.64343">
        <ele>36.19</ele>
        <time>2019-06-06T10:34:04Z</time>
      </trkpt>
      <trkpt lat="42.57733" lon="-8.64342">
        <ele>35.71</ele>
        <time>2019-06-06T10:34:40Z</time>
      </trkpt>
      <trkpt lat="42.57733" lon="-8.64343">
        <ele>35.71</ele>
        <time>2019-06-06T10:35:19Z</time>
      </trkpt>
      <trkpt lat="42.57737" lon="-8.64344">
        <ele>35.23</ele>
        <time>2019-06-06T10:35:52Z</time>
      </trkpt>
      <trkpt lat="42.57737" lon="-8.64343">
        <ele>36.67</ele>
        <time>2019-06-06T10:36:24Z</time>
      </trkpt>
      <trkpt lat="42.57738" lon="-8.64344">
        <ele>34.74</ele>
        <time>2019-06-06T10:36:38Z</time>
      </trkpt>
      <trkpt lat="42.57732" lon="-8.64343">
        <ele>35.23</ele>
        <time>2019-06-06T10:37:07Z</time>
      </trkpt>
      <trkpt lat="42.57735" lon="-8.64342">
        <ele>36.19</ele>
        <time>2019-06-06T10:37:46Z</time>
      </trkpt>
      <trkpt lat="42.57735" lon="-8.64341">
        <ele>35.23</ele>
        <time>2019-06-06T10:38:18Z</time>
      </trkpt>
      <trkpt lat="42.57736" lon="-8.64339">
        <ele>35.71</ele>
        <time>2019-06-06T10:38:50Z</time>
      </trkpt>
      <trkpt lat="42.57738" lon="-8.6434">
        <ele>35.71</ele>
        <time>2019-06-06T10:39:25Z</time>
      </trkpt>
      <trkpt lat="42.57735" lon="-8.6434">
        <ele>36.19</ele>
        <time>2019-06-06T10:40:08Z</time>
      </trkpt>
      <trkpt lat="42.57733" lon="-8.64341">
        <ele>35.71</ele>
        <time>2019-06-06T10:40:43Z</time>
      </trkpt>
      <trkpt lat="42.57732" lon="-8.64341">
        <ele>35.71</ele>
        <time>2019-06-06T10:41:27Z</time>
      </trkpt>
      <trkpt lat="42.57728" lon="-8.6434">
        <ele>35.71</ele>
        <time>2019-06-06T10:42:05Z</time>
      </trkpt>
      <trkpt lat="42.57729" lon="-8.64339">
        <ele>36.19</ele>
        <time>2019-06-06T10:42:39Z</time>
      </trkpt>
      <trkpt lat="42.57734" lon="-8.64343">
        <ele>35.23</ele>
        <time>2019-06-06T10:43:17Z</time>
      </trkpt>
      <trkpt lat="42.57737" lon="-8.64342">
        <ele>35.23</ele>
        <time>2019-06-06T10:43:56Z</time>
      </trkpt>
      <trkpt lat="42.57736" lon="-8.64343">
        <ele>37.63</ele>
        <time>2019-06-06T10:44:18Z</time>
      </trkpt>
      <trkpt lat="42.57735" lon="-8.64342">
        <ele>35.71</ele>
        <time>2019-06-06T10:44:56Z</time>
      </trkpt>
      <trkpt lat="42.57734" lon="-8.64342">
        <ele>35.71</ele>
        <time>2019-06-06T10:45:28Z</time>
      </trkpt>
      <trkpt lat="42.57734" lon="-8.6434">
        <ele>34.74</ele>
        <time>2019-06-06T10:45:47Z</time>
      </trkpt>
      <trkpt lat="42.57732" lon="-8.6434">
        <ele>35.71</ele>
        <time>2019-06-06T10:46:11Z</time>
      </trkpt>
      <trkpt lat="42.5773" lon="-8.64339">
        <ele>34.26</ele>
        <time>2019-06-06T10:46:37Z</time>
      </trkpt>
      <trkpt lat="42.57729" lon="-8.64337">
        <ele>35.23</ele>
        <time>2019-06-06T10:47:10Z</time>
      </trkpt>
      <trkpt lat="42.5773" lon="-8.6434">
        <ele>38.11</ele>
        <time>2019-06-06T10:47:18Z</time>
      </trkpt>
      <trkpt lat="42.57732" lon="-8.64336">
        <ele>34.74</ele>
        <time>2019-06-06T10:47:38Z</time>
      </trkpt>
      <trkpt lat="42.57733" lon="-8.64336">
        <ele>35.23</ele>
        <time>2019-06-06T10:47:55Z</time>
      </trkpt>
      <trkpt lat="42.57734" lon="-8.64336">
        <ele>34.74</ele>
        <time>2019-06-06T10:48:12Z</time>
      </trkpt>
      <trkpt lat="42.57734" lon="-8.64338">
        <ele>35.23</ele>
        <time>2019-06-06T10:48:38Z</time>
      </trkpt>
      <trkpt lat="42.57732" lon="-8.64336">
        <ele>36.67</ele>
        <time>2019-06-06T10:48:59Z</time>
      </trkpt>
      <trkpt lat="42.57731" lon="-8.64336">
        <ele>34.74</ele>
        <time>2019-06-06T10:49:29Z</time>
      </trkpt>
      <trkpt lat="42.57732" lon="-8.64332">
        <ele>34.74</ele>
        <time>2019-06-06T10:49:46Z</time>
      </trkpt>
      <trkpt lat="42.57734" lon="-8.64329">
        <ele>37.63</ele>
        <time>2019-06-06T10:49:50Z</time>
      </trkpt>
      <trkpt lat="42.5774" lon="-8.64329">
        <ele>37.63</ele>
        <time>2019-06-06T10:50:03Z</time>
      </trkpt>
      <trkpt lat="42.57743" lon="-8.64329">
        <ele>35.23</ele>
        <time>2019-06-06T10:50:06Z</time>
      </trkpt>
      <trkpt lat="42.5776" lon="-8.64331">
        <ele>34.74</ele>
        <time>2019-06-06T10:50:21Z</time>
      </trkpt>
      <trkpt lat="42.57771" lon="-8.64334">
        <ele>34.26</ele>
        <time>2019-06-06T10:50:30Z</time>
      </trkpt>
      <trkpt lat="42.57787" lon="-8.64335">
        <ele>35.71</ele>
        <time>2019-06-06T10:50:45Z</time>
      </trkpt>
      <trkpt lat="42.57805" lon="-8.64335">
        <ele>35.71</ele>
        <time>2019-06-06T10:51:00Z</time>
      </trkpt>
      <trkpt lat="42.57808" lon="-8.64335">
        <ele>34.26</ele>
        <time>2019-06-06T10:51:03Z</time>
      </trkpt>
      <trkpt lat="42.57822" lon="-8.64337">
        <ele>36.19</ele>
        <time>2019-06-06T10:51:14Z</time>
      </trkpt>
      <trkpt lat="42.57839" lon="-8.64337">
        <ele>34.74</ele>
        <time>2019-06-06T10:51:28Z</time>
      </trkpt>
      <trkpt lat="42.57858" lon="-8.64338">
        <ele>34.74</ele>
        <time>2019-06-06T10:51:43Z</time>
      </trkpt>
      <trkpt lat="42.57859" lon="-8.64338">
        <ele>34.74</ele>
        <time>2019-06-06T10:51:44Z</time>
      </trkpt>
      <trkpt lat="42.57878" lon="-8.64336">
        <ele>35.23</ele>
        <time>2019-06-06T10:51:59Z</time>
      </trkpt>
      <trkpt lat="42.57897" lon="-8.64334">
        <ele>35.71</ele>
        <time>2019-06-06T10:52:15Z</time>
      </trkpt>
      <trkpt lat="42.57917" lon="-8.64335">
        <ele>35.23</ele>
        <time>2019-06-06T10:52:32Z</time>
      </trkpt>
      <trkpt lat="42.57935" lon="-8.64336">
        <ele>35.23</ele>
        <time>2019-06-06T10:52:47Z</time>
      </trkpt>
      <trkpt lat="42.57953" lon="-8.64335">
        <ele>35.71</ele>
        <time>2019-06-06T10:53:01Z</time>
      </trkpt>
      <trkpt lat="42.5797" lon="-8.64334">
        <ele>35.23</ele>
        <time>2019-06-06T10:53:16Z</time>
      </trkpt>
      <trkpt lat="42.57987" lon="-8.64332">
        <ele>36.19</ele>
        <time>2019-06-06T10:53:31Z</time>
      </trkpt>
      <trkpt lat="42.57999" lon="-8.64333">
        <ele>36.19</ele>
        <time>2019-06-06T10:53:41Z</time>
      </trkpt>
      <trkpt lat="42.58001" lon="-8.64333">
        <ele>36.19</ele>
        <time>2019-06-06T10:53:42Z</time>
      </trkpt>
      <trkpt lat="42.58002" lon="-8.64333">
        <ele>35.71</ele>
        <time>2019-06-06T10:53:43Z</time>
      </trkpt>
      <trkpt lat="42.5802" lon="-8.64339">
        <ele>36.67</ele>
        <time>2019-06-06T10:53:58Z</time>
      </trkpt>
      <trkpt lat="42.58037" lon="-8.64349">
        <ele>37.15</ele>
        <time>2019-06-06T10:54:11Z</time>
      </trkpt>
      <trkpt lat="42.5805" lon="-8.6437">
        <ele>36.19</ele>
        <time>2019-06-06T10:54:26Z</time>
      </trkpt>
      <trkpt lat="42.58064" lon="-8.64389">
        <ele>36.19</ele>
        <time>2019-06-06T10:54:42Z</time>
      </trkpt>
      <trkpt lat="42.58078" lon="-8.64409">
        <ele>37.15</ele>
        <time>2019-06-06T10:54:58Z</time>
      </trkpt>
      <trkpt lat="42.58093" lon="-8.64422">
        <ele>36.19</ele>
        <time>2019-06-06T10:55:13Z</time>
      </trkpt>
      <trkpt lat="42.58111" lon="-8.64435">
        <ele>36.67</ele>
        <time>2019-06-06T10:55:30Z</time>
      </trkpt>
      <trkpt lat="42.5813" lon="-8.64449">
        <ele>36.19</ele>
        <time>2019-06-06T10:55:48Z</time>
      </trkpt>
      <trkpt lat="42.58144" lon="-8.64456">
        <ele>35.23</ele>
        <time>2019-06-06T10:56:01Z</time>
      </trkpt>
      <trkpt lat="42.58159" lon="-8.64464">
        <ele>34.74</ele>
        <time>2019-06-06T10:56:15Z</time>
      </trkpt>
      <trkpt lat="42.58173" lon="-8.64471">
        <ele>33.3</ele>
        <time>2019-06-06T10:56:28Z</time>
      </trkpt>
      <trkpt lat="42.58189" lon="-8.64476">
        <ele>34.26</ele>
        <time>2019-06-06T10:56:40Z</time>
      </trkpt>
      <trkpt lat="42.58194" lon="-8.64478">
        <ele>32.82</ele>
        <time>2019-06-06T10:56:45Z</time>
      </trkpt>
      <trkpt lat="42.58209" lon="-8.64478">
        <ele>32.82</ele>
        <time>2019-06-06T10:56:58Z</time>
      </trkpt>
      <trkpt lat="42.58216" lon="-8.64477">
        <ele>32.34</ele>
        <time>2019-06-06T10:57:04Z</time>
      </trkpt>
      <trkpt lat="42.58233" lon="-8.6447">
        <ele>32.34</ele>
        <time>2019-06-06T10:57:19Z</time>
      </trkpt>
      <trkpt lat="42.58242" lon="-8.64464">
        <ele>32.34</ele>
        <time>2019-06-06T10:57:29Z</time>
      </trkpt>
      <trkpt lat="42.58249" lon="-8.64461">
        <ele>33.3</ele>
        <time>2019-06-06T10:57:36Z</time>
      </trkpt>
      <trkpt lat="42.58255" lon="-8.64461">
        <ele>32.82</ele>
        <time>2019-06-06T10:57:41Z</time>
      </trkpt>
      <trkpt lat="42.58257" lon="-8.64461">
        <ele>32.82</ele>
        <time>2019-06-06T10:57:42Z</time>
      </trkpt>
      <trkpt lat="42.58259" lon="-8.64462">
        <ele>32.82</ele>
        <time>2019-06-06T10:57:43Z</time>
      </trkpt>
      <trkpt lat="42.58272" lon="-8.64466">
        <ele>33.3</ele>
        <time>2019-06-06T10:57:52Z</time>
      </trkpt>
      <trkpt lat="42.58287" lon="-8.64469">
        <ele>32.34</ele>
        <time>2019-06-06T10:58:03Z</time>
      </trkpt>
      <trkpt lat="42.5829" lon="-8.6447">
        <ele>33.3</ele>
        <time>2019-06-06T10:58:05Z</time>
      </trkpt>
      <trkpt lat="42.58299" lon="-8.6447">
        <ele>33.3</ele>
        <time>2019-06-06T10:58:12Z</time>
      </trkpt>
      <trkpt lat="42.583" lon="-8.6447">
        <ele>34.26</ele>
        <time>2019-06-06T10:58:13Z</time>
      </trkpt>
      <trkpt lat="42.58301" lon="-8.6447">
        <ele>34.26</ele>
        <time>2019-06-06T10:58:14Z</time>
      </trkpt>
      <trkpt lat="42.58317" lon="-8.6447">
        <ele>34.26</ele>
        <time>2019-06-06T10:58:30Z</time>
      </trkpt>
      <trkpt lat="42.58332" lon="-8.64468">
        <ele>35.23</ele>
        <time>2019-06-06T10:58:45Z</time>
      </trkpt>
      <trkpt lat="42.5835" lon="-8.64472">
        <ele>34.74</ele>
        <time>2019-06-06T10:58:59Z</time>
      </trkpt>
      <trkpt lat="42.58352" lon="-8.64472">
        <ele>35.71</ele>
        <time>2019-06-06T10:59:00Z</time>
      </trkpt>
      <trkpt lat="42.58354" lon="-8.64473">
        <ele>35.23</ele>
        <time>2019-06-06T10:59:01Z</time>
      </trkpt>
      <trkpt lat="42.58366" lon="-8.64478">
        <ele>36.19</ele>
        <time>2019-06-06T10:59:10Z</time>
      </trkpt>
      <trkpt lat="42.58367" lon="-8.64478">
        <ele>35.71</ele>
        <time>2019-06-06T10:59:11Z</time>
      </trkpt>
      <trkpt lat="42.58374" lon="-8.64484">
        <ele>35.71</ele>
        <time>2019-06-06T10:59:19Z</time>
      </trkpt>
      <trkpt lat="42.58392" lon="-8.64497">
        <ele>35.23</ele>
        <time>2019-06-06T10:59:35Z</time>
      </trkpt>
      <trkpt lat="42.58404" lon="-8.64508">
        <ele>34.74</ele>
        <time>2019-06-06T10:59:50Z</time>
      </trkpt>
      <trkpt lat="42.58425" lon="-8.64531">
        <ele>35.71</ele>
        <time>2019-06-06T11:00:07Z</time>
      </trkpt>
      <trkpt lat="42.58437" lon="-8.64545">
        <ele>34.74</ele>
        <time>2019-06-06T11:00:21Z</time>
      </trkpt>
      <trkpt lat="42.58442" lon="-8.6455">
        <ele>34.26</ele>
        <time>2019-06-06T11:00:26Z</time>
      </trkpt>
      <trkpt lat="42.58448" lon="-8.64555">
        <ele>34.26</ele>
        <time>2019-06-06T11:00:32Z</time>
      </trkpt>
      <trkpt lat="42.58462" lon="-8.64572">
        <ele>34.26</ele>
        <time>2019-06-06T11:00:45Z</time>
      </trkpt>
      <trkpt lat="42.58463" lon="-8.64572">
        <ele>34.26</ele>
        <time>2019-06-06T11:00:46Z</time>
      </trkpt>
      <trkpt lat="42.58485" lon="-8.64581">
        <ele>34.26</ele>
        <time>2019-06-06T11:01:04Z</time>
      </trkpt>
      <trkpt lat="42.58501" lon="-8.64583">
        <ele>33.3</ele>
        <time>2019-06-06T11:01:19Z</time>
      </trkpt>
      <trkpt lat="42.58524" lon="-8.64583">
        <ele>33.3</ele>
        <time>2019-06-06T11:01:36Z</time>
      </trkpt>
      <trkpt lat="42.58547" lon="-8.64584">
        <ele>33.78</ele>
        <time>2019-06-06T11:01:54Z</time>
      </trkpt>
      <trkpt lat="42.58565" lon="-8.64581">
        <ele>34.26</ele>
        <time>2019-06-06T11:02:08Z</time>
      </trkpt>
      <trkpt lat="42.58586" lon="-8.64581">
        <ele>33.3</ele>
        <time>2019-06-06T11:02:24Z</time>
      </trkpt>
      <trkpt lat="42.58601" lon="-8.64586">
        <ele>34.26</ele>
        <time>2019-06-06T11:02:39Z</time>
      </trkpt>
      <trkpt lat="42.58616" lon="-8.6459">
        <ele>34.26</ele>
        <time>2019-06-06T11:02:55Z</time>
      </trkpt>
      <trkpt lat="42.58629" lon="-8.64591">
        <ele>33.3</ele>
        <time>2019-06-06T11:03:08Z</time>
      </trkpt>
      <trkpt lat="42.58633" lon="-8.64591">
        <ele>33.3</ele>
        <time>2019-06-06T11:03:10Z</time>
      </trkpt>
      <trkpt lat="42.58653" lon="-8.64589">
        <ele>33.3</ele>
        <time>2019-06-06T11:03:24Z</time>
      </trkpt>
      <trkpt lat="42.58673" lon="-8.64579">
        <ele>35.71</ele>
        <time>2019-06-06T11:03:39Z</time>
      </trkpt>
      <trkpt lat="42.58687" lon="-8.64565">
        <ele>35.71</ele>
        <time>2019-06-06T11:03:53Z</time>
      </trkpt>
      <trkpt lat="42.58697" lon="-8.64561">
        <ele>36.19</ele>
        <time>2019-06-06T11:04:06Z</time>
      </trkpt>
      <trkpt lat="42.58703" lon="-8.64559">
        <ele>36.19</ele>
        <time>2019-06-06T11:04:12Z</time>
      </trkpt>
      <trkpt lat="42.58718" lon="-8.64552">
        <ele>37.15</ele>
        <time>2019-06-06T11:04:25Z</time>
      </trkpt>
      <trkpt lat="42.58725" lon="-8.64549">
        <ele>37.15</ele>
        <time>2019-06-06T11:04:33Z</time>
      </trkpt>
      <trkpt lat="42.58727" lon="-8.64548">
        <ele>37.63</ele>
        <time>2019-06-06T11:04:34Z</time>
      </trkpt>
      <trkpt lat="42.58729" lon="-8.64548">
        <ele>37.63</ele>
        <time>2019-06-06T11:04:35Z</time>
      </trkpt>
      <trkpt lat="42.58751" lon="-8.64542">
        <ele>38.11</ele>
        <time>2019-06-06T11:04:51Z</time>
      </trkpt>
      <trkpt lat="42.58752" lon="-8.64542">
        <ele>38.11</ele>
        <time>2019-06-06T11:04:52Z</time>
      </trkpt>
      <trkpt lat="42.58769" lon="-8.64539">
        <ele>37.15</ele>
        <time>2019-06-06T11:05:05Z</time>
      </trkpt>
      <trkpt lat="42.58773" lon="-8.64538">
        <ele>36.67</ele>
        <time>2019-06-06T11:05:09Z</time>
      </trkpt>
      <trkpt lat="42.58793" lon="-8.6453">
        <ele>36.19</ele>
        <time>2019-06-06T11:05:26Z</time>
      </trkpt>
      <trkpt lat="42.58796" lon="-8.64529">
        <ele>37.15</ele>
        <time>2019-06-06T11:05:28Z</time>
      </trkpt>
      <trkpt lat="42.58797" lon="-8.64529">
        <ele>37.15</ele>
        <time>2019-06-06T11:05:29Z</time>
      </trkpt>
      <trkpt lat="42.58811" lon="-8.64529">
        <ele>37.15</ele>
        <time>2019-06-06T11:05:41Z</time>
      </trkpt>
      <trkpt lat="42.58833" lon="-8.64536">
        <ele>37.15</ele>
        <time>2019-06-06T11:06:00Z</time>
      </trkpt>
      <trkpt lat="42.58852" lon="-8.6454">
        <ele>35.71</ele>
        <time>2019-06-06T11:06:15Z</time>
      </trkpt>
      <trkpt lat="42.58867" lon="-8.6454">
        <ele>36.19</ele>
        <time>2019-06-06T11:06:28Z</time>
      </trkpt>
      <trkpt lat="42.58869" lon="-8.64539">
        <ele>37.15</ele>
        <time>2019-06-06T11:06:29Z</time>
      </trkpt>
      <trkpt lat="42.5887" lon="-8.64539">
        <ele>37.15</ele>
        <time>2019-06-06T11:06:30Z</time>
      </trkpt>
      <trkpt lat="42.58887" lon="-8.64538">
        <ele>36.67</ele>
        <time>2019-06-06T11:06:42Z</time>
      </trkpt>
      <trkpt lat="42.58904" lon="-8.6454">
        <ele>36.67</ele>
        <time>2019-06-06T11:06:57Z</time>
      </trkpt>
      <trkpt lat="42.58923" lon="-8.64544">
        <ele>36.67</ele>
        <time>2019-06-06T11:07:13Z</time>
      </trkpt>
      <trkpt lat="42.58928" lon="-8.64546">
        <ele>36.67</ele>
        <time>2019-06-06T11:07:18Z</time>
      </trkpt>
      <trkpt lat="42.58943" lon="-8.64549">
        <ele>36.19</ele>
        <time>2019-06-06T11:07:30Z</time>
      </trkpt>
      <trkpt lat="42.58963" lon="-8.64542">
        <ele>36.19</ele>
        <time>2019-06-06T11:07:46Z</time>
      </trkpt>
      <trkpt lat="42.58982" lon="-8.6453">
        <ele>35.71</ele>
        <time>2019-06-06T11:08:02Z</time>
      </trkpt>
      <trkpt lat="42.59001" lon="-8.64518">
        <ele>37.15</ele>
        <time>2019-06-06T11:08:19Z</time>
      </trkpt>
      <trkpt lat="42.59005" lon="-8.64516">
        <ele>37.63</ele>
        <time>2019-06-06T11:08:23Z</time>
      </trkpt>
      <trkpt lat="42.59006" lon="-8.64515">
        <ele>37.63</ele>
        <time>2019-06-06T11:08:24Z</time>
      </trkpt>
      <trkpt lat="42.59022" lon="-8.64502">
        <ele>36.67</ele>
        <time>2019-06-06T11:08:40Z</time>
      </trkpt>
      <trkpt lat="42.59039" lon="-8.64489">
        <ele>37.15</ele>
        <time>2019-06-06T11:08:56Z</time>
      </trkpt>
      <trkpt lat="42.59051" lon="-8.64483">
        <ele>39.55</ele>
        <time>2019-06-06T11:09:04Z</time>
      </trkpt>
      <trkpt lat="42.5907" lon="-8.64468">
        <ele>38.59</ele>
        <time>2019-06-06T11:09:21Z</time>
      </trkpt>
      <trkpt lat="42.59086" lon="-8.64452">
        <ele>38.59</ele>
        <time>2019-06-06T11:09:37Z</time>
      </trkpt>
      <trkpt lat="42.59099" lon="-8.6444">
        <ele>38.11</ele>
        <time>2019-06-06T11:09:49Z</time>
      </trkpt>
      <trkpt lat="42.59115" lon="-8.64422">
        <ele>39.55</ele>
        <time>2019-06-06T11:10:07Z</time>
      </trkpt>
      <trkpt lat="42.59127" lon="-8.6441">
        <ele>39.55</ele>
        <time>2019-06-06T11:10:19Z</time>
      </trkpt>
      <trkpt lat="42.5914" lon="-8.64401">
        <ele>39.55</ele>
        <time>2019-06-06T11:10:32Z</time>
      </trkpt>
      <trkpt lat="42.5916" lon="-8.64398">
        <ele>39.55</ele>
        <time>2019-06-06T11:10:47Z</time>
      </trkpt>
      <trkpt lat="42.59177" lon="-8.64401">
        <ele>40.99</ele>
        <time>2019-06-06T11:11:00Z</time>
      </trkpt>
      <trkpt lat="42.59193" lon="-8.64408">
        <ele>40.99</ele>
        <time>2019-06-06T11:11:14Z</time>
      </trkpt>
      <trkpt lat="42.59208" lon="-8.64414">
        <ele>41.95</ele>
        <time>2019-06-06T11:11:27Z</time>
      </trkpt>
      <trkpt lat="42.59223" lon="-8.64417">
        <ele>41.95</ele>
        <time>2019-06-06T11:11:39Z</time>
      </trkpt>
      <trkpt lat="42.59241" lon="-8.64422">
        <ele>42.92</ele>
        <time>2019-06-06T11:11:54Z</time>
      </trkpt>
      <trkpt lat="42.59257" lon="-8.64424">
        <ele>43.4</ele>
        <time>2019-06-06T11:12:08Z</time>
      </trkpt>
      <trkpt lat="42.59268" lon="-8.64422">
        <ele>45.32</ele>
        <time>2019-06-06T11:12:19Z</time>
      </trkpt>
      <trkpt lat="42.59281" lon="-8.64417">
        <ele>46.76</ele>
        <time>2019-06-06T11:12:30Z</time>
      </trkpt>
      <trkpt lat="42.59288" lon="-8.64416">
        <ele>46.28</ele>
        <time>2019-06-06T11:12:35Z</time>
      </trkpt>
      <trkpt lat="42.59289" lon="-8.64415">
        <ele>46.76</ele>
        <time>2019-06-06T11:12:36Z</time>
      </trkpt>
      <trkpt lat="42.5929" lon="-8.64415">
        <ele>46.28</ele>
        <time>2019-06-06T11:12:37Z</time>
      </trkpt>
      <trkpt lat="42.59307" lon="-8.64409">
        <ele>45.8</ele>
        <time>2019-06-06T11:12:50Z</time>
      </trkpt>
      <trkpt lat="42.59317" lon="-8.64404">
        <ele>47.72</ele>
        <time>2019-06-06T11:12:59Z</time>
      </trkpt>
      <trkpt lat="42.59322" lon="-8.64403">
        <ele>48.68</ele>
        <time>2019-06-06T11:13:04Z</time>
      </trkpt>
      <trkpt lat="42.59323" lon="-8.64402">
        <ele>48.68</ele>
        <time>2019-06-06T11:13:05Z</time>
      </trkpt>
      <trkpt lat="42.59337" lon="-8.64394">
        <ele>48.2</ele>
        <time>2019-06-06T11:13:18Z</time>
      </trkpt>
      <trkpt lat="42.59351" lon="-8.64388">
        <ele>48.2</ele>
        <time>2019-06-06T11:13:30Z</time>
      </trkpt>
      <trkpt lat="42.59353" lon="-8.64388">
        <ele>49.16</ele>
        <time>2019-06-06T11:13:31Z</time>
      </trkpt>
      <trkpt lat="42.59364" lon="-8.64384">
        <ele>48.68</ele>
        <time>2019-06-06T11:13:41Z</time>
      </trkpt>
      <trkpt lat="42.59368" lon="-8.64382">
        <ele>50.13</ele>
        <time>2019-06-06T11:13:44Z</time>
      </trkpt>
      <trkpt lat="42.59386" lon="-8.64375">
        <ele>51.09</ele>
        <time>2019-06-06T11:14:00Z</time>
      </trkpt>
      <trkpt lat="42.59404" lon="-8.6437">
        <ele>51.57</ele>
        <time>2019-06-06T11:14:14Z</time>
      </trkpt>
      <trkpt lat="42.59419" lon="-8.64365">
        <ele>53.49</ele>
        <time>2019-06-06T11:14:27Z</time>
      </trkpt>
      <trkpt lat="42.59439" lon="-8.64357">
        <ele>53.97</ele>
        <time>2019-06-06T11:14:44Z</time>
      </trkpt>
      <trkpt lat="42.59453" lon="-8.64354">
        <ele>57.34</ele>
        <time>2019-06-06T11:14:56Z</time>
      </trkpt>
      <trkpt lat="42.59464" lon="-8.64352">
        <ele>56.37</ele>
        <time>2019-06-06T11:15:07Z</time>
      </trkpt>
      <trkpt lat="42.59474" lon="-8.64354">
        <ele>55.41</ele>
        <time>2019-06-06T11:15:16Z</time>
      </trkpt>
      <trkpt lat="42.59482" lon="-8.64356">
        <ele>55.89</ele>
        <time>2019-06-06T11:15:23Z</time>
      </trkpt>
      <trkpt lat="42.59483" lon="-8.64356">
        <ele>55.89</ele>
        <time>2019-06-06T11:15:24Z</time>
      </trkpt>
      <trkpt lat="42.59485" lon="-8.64356">
        <ele>56.37</ele>
        <time>2019-06-06T11:15:25Z</time>
      </trkpt>
      <trkpt lat="42.59486" lon="-8.64357">
        <ele>56.37</ele>
        <time>2019-06-06T11:15:26Z</time>
      </trkpt>
      <trkpt lat="42.59487" lon="-8.64357">
        <ele>55.89</ele>
        <time>2019-06-06T11:15:27Z</time>
      </trkpt>
      <trkpt lat="42.59488" lon="-8.64357">
        <ele>55.89</ele>
        <time>2019-06-06T11:15:28Z</time>
      </trkpt>
      <trkpt lat="42.59506" lon="-8.64362">
        <ele>57.34</ele>
        <time>2019-06-06T11:15:43Z</time>
      </trkpt>
      <trkpt lat="42.59522" lon="-8.64365">
        <ele>58.3</ele>
        <time>2019-06-06T11:15:57Z</time>
      </trkpt>
      <trkpt lat="42.59528" lon="-8.64364">
        <ele>57.82</ele>
        <time>2019-06-06T11:16:02Z</time>
      </trkpt>
      <trkpt lat="42.59531" lon="-8.64364">
        <ele>58.3</ele>
        <time>2019-06-06T11:16:05Z</time>
      </trkpt>
      <trkpt lat="42.59539" lon="-8.64365">
        <ele>57.34</ele>
        <time>2019-06-06T11:16:11Z</time>
      </trkpt>
      <trkpt lat="42.5954" lon="-8.64365">
        <ele>56.86</ele>
        <time>2019-06-06T11:16:12Z</time>
      </trkpt>
      <trkpt lat="42.59541" lon="-8.64365">
        <ele>56.86</ele>
        <time>2019-06-06T11:16:13Z</time>
      </trkpt>
      <trkpt lat="42.59563" lon="-8.64367">
        <ele>58.3</ele>
        <time>2019-06-06T11:16:29Z</time>
      </trkpt>
      <trkpt lat="42.5958" lon="-8.64367">
        <ele>56.86</ele>
        <time>2019-06-06T11:16:43Z</time>
      </trkpt>
      <trkpt lat="42.59581" lon="-8.64367">
        <ele>56.86</ele>
        <time>2019-06-06T11:16:44Z</time>
      </trkpt>
      <trkpt lat="42.59583" lon="-8.64367">
        <ele>56.37</ele>
        <time>2019-06-06T11:16:45Z</time>
      </trkpt>
      <trkpt lat="42.59584" lon="-8.64366">
        <ele>56.37</ele>
        <time>2019-06-06T11:16:46Z</time>
      </trkpt>
      <trkpt lat="42.59603" lon="-8.64364">
        <ele>54.45</ele>
        <time>2019-06-06T11:17:00Z</time>
      </trkpt>
      <trkpt lat="42.59612" lon="-8.64362">
        <ele>57.82</ele>
        <time>2019-06-06T11:17:07Z</time>
      </trkpt>
      <trkpt lat="42.59629" lon="-8.64361">
        <ele>54.93</ele>
        <time>2019-06-06T11:17:23Z</time>
      </trkpt>
      <trkpt lat="42.59631" lon="-8.64361">
        <ele>54.45</ele>
        <time>2019-06-06T11:17:24Z</time>
      </trkpt>
      <trkpt lat="42.59632" lon="-8.64361">
        <ele>54.93</ele>
        <time>2019-06-06T11:17:25Z</time>
      </trkpt>
      <trkpt lat="42.59647" lon="-8.64361">
        <ele>54.93</ele>
        <time>2019-06-06T11:17:38Z</time>
      </trkpt>
      <trkpt lat="42.59652" lon="-8.64359">
        <ele>53.49</ele>
        <time>2019-06-06T11:17:42Z</time>
      </trkpt>
      <trkpt lat="42.59656" lon="-8.6436">
        <ele>53.49</ele>
        <time>2019-06-06T11:17:48Z</time>
      </trkpt>
      <trkpt lat="42.59664" lon="-8.64359">
        <ele>51.09</ele>
        <time>2019-06-06T11:17:55Z</time>
      </trkpt>
      <trkpt lat="42.59667" lon="-8.64359">
        <ele>53.97</ele>
        <time>2019-06-06T11:17:58Z</time>
      </trkpt>
      <trkpt lat="42.59673" lon="-8.64358">
        <ele>53.01</ele>
        <time>2019-06-06T11:18:02Z</time>
      </trkpt>
      <trkpt lat="42.59682" lon="-8.64357">
        <ele>51.57</ele>
        <time>2019-06-06T11:18:09Z</time>
      </trkpt>
      <trkpt lat="42.59694" lon="-8.64358">
        <ele>51.09</ele>
        <time>2019-06-06T11:18:19Z</time>
      </trkpt>
      <trkpt lat="42.59698" lon="-8.64358">
        <ele>50.61</ele>
        <time>2019-06-06T11:18:24Z</time>
      </trkpt>
      <trkpt lat="42.59715" lon="-8.64358">
        <ele>48.68</ele>
        <time>2019-06-06T11:18:38Z</time>
      </trkpt>
      <trkpt lat="42.59735" lon="-8.64357">
        <ele>49.16</ele>
        <time>2019-06-06T11:18:53Z</time>
      </trkpt>
      <trkpt lat="42.5975" lon="-8.64355">
        <ele>46.76</ele>
        <time>2019-06-06T11:19:07Z</time>
      </trkpt>
      <trkpt lat="42.59761" lon="-8.64355">
        <ele>45.8</ele>
        <time>2019-06-06T11:19:15Z</time>
      </trkpt>
      <trkpt lat="42.59763" lon="-8.64356">
        <ele>45.8</ele>
        <time>2019-06-06T11:19:16Z</time>
      </trkpt>
      <trkpt lat="42.59764" lon="-8.64356">
        <ele>45.8</ele>
        <time>2019-06-06T11:19:17Z</time>
      </trkpt>
      <trkpt lat="42.59766" lon="-8.64356">
        <ele>45.32</ele>
        <time>2019-06-06T11:19:18Z</time>
      </trkpt>
      <trkpt lat="42.59772" lon="-8.64357">
        <ele>45.8</ele>
        <time>2019-06-06T11:19:22Z</time>
      </trkpt>
      <trkpt lat="42.59773" lon="-8.64357">
        <ele>45.32</ele>
        <time>2019-06-06T11:19:23Z</time>
      </trkpt>
      <trkpt lat="42.59774" lon="-8.64357">
        <ele>44.36</ele>
        <time>2019-06-06T11:19:24Z</time>
      </trkpt>
      <trkpt lat="42.59776" lon="-8.64357">
        <ele>44.36</ele>
        <time>2019-06-06T11:19:25Z</time>
      </trkpt>
      <trkpt lat="42.59784" lon="-8.64356">
        <ele>44.84</ele>
        <time>2019-06-06T11:19:36Z</time>
      </trkpt>
      <trkpt lat="42.59788" lon="-8.64354">
        <ele>45.32</ele>
        <time>2019-06-06T11:19:39Z</time>
      </trkpt>
      <trkpt lat="42.59789" lon="-8.64354">
        <ele>45.32</ele>
        <time>2019-06-06T11:19:40Z</time>
      </trkpt>
      <trkpt lat="42.59796" lon="-8.64352">
        <ele>45.32</ele>
        <time>2019-06-06T11:19:45Z</time>
      </trkpt>
      <trkpt lat="42.59798" lon="-8.64351">
        <ele>44.36</ele>
        <time>2019-06-06T11:19:46Z</time>
      </trkpt>
      <trkpt lat="42.598" lon="-8.6435">
        <ele>43.88</ele>
        <time>2019-06-06T11:19:47Z</time>
      </trkpt>
      <trkpt lat="42.59801" lon="-8.64349">
        <ele>43.4</ele>
        <time>2019-06-06T11:19:48Z</time>
      </trkpt>
      <trkpt lat="42.59819" lon="-8.64334">
        <ele>44.36</ele>
        <time>2019-06-06T11:20:03Z</time>
      </trkpt>
      <trkpt lat="42.59824" lon="-8.64332">
        <ele>42.44</ele>
        <time>2019-06-06T11:20:08Z</time>
      </trkpt>
      <trkpt lat="42.59829" lon="-8.6433">
        <ele>44.84</ele>
        <time>2019-06-06T11:20:12Z</time>
      </trkpt>
      <trkpt lat="42.59852" lon="-8.64329">
        <ele>41.95</ele>
        <time>2019-06-06T11:20:29Z</time>
      </trkpt>
      <trkpt lat="42.59873" lon="-8.6433">
        <ele>41.95</ele>
        <time>2019-06-06T11:20:44Z</time>
      </trkpt>
      <trkpt lat="42.59893" lon="-8.64332">
        <ele>41.47</ele>
        <time>2019-06-06T11:20:59Z</time>
      </trkpt>
      <trkpt lat="42.59917" lon="-8.64328">
        <ele>40.51</ele>
        <time>2019-06-06T11:21:17Z</time>
      </trkpt>
      <trkpt lat="42.59935" lon="-8.64324">
        <ele>39.55</ele>
        <time>2019-06-06T11:21:31Z</time>
      </trkpt>
      <trkpt lat="42.5995" lon="-8.6432">
        <ele>39.07</ele>
        <time>2019-06-06T11:21:46Z</time>
      </trkpt>
      <trkpt lat="42.59952" lon="-8.6432">
        <ele>39.07</ele>
        <time>2019-06-06T11:21:47Z</time>
      </trkpt>
      <trkpt lat="42.59953" lon="-8.6432">
        <ele>38.59</ele>
        <time>2019-06-06T11:21:48Z</time>
      </trkpt>
      <trkpt lat="42.59958" lon="-8.64315">
        <ele>38.11</ele>
        <time>2019-06-06T11:21:53Z</time>
      </trkpt>
      <trkpt lat="42.59971" lon="-8.64302">
        <ele>39.55</ele>
        <time>2019-06-06T11:22:06Z</time>
      </trkpt>
      <trkpt lat="42.59972" lon="-8.64301">
        <ele>39.55</ele>
        <time>2019-06-06T11:22:07Z</time>
      </trkpt>
      <trkpt lat="42.59976" lon="-8.64298">
        <ele>38.59</ele>
        <time>2019-06-06T11:22:10Z</time>
      </trkpt>
      <trkpt lat="42.59977" lon="-8.64297">
        <ele>37.63</ele>
        <time>2019-06-06T11:22:11Z</time>
      </trkpt>
      <trkpt lat="42.6" lon="-8.6429">
        <ele>37.63</ele>
        <time>2019-06-06T11:22:28Z</time>
      </trkpt>
      <trkpt lat="42.60018" lon="-8.64289">
        <ele>37.15</ele>
        <time>2019-06-06T11:22:44Z</time>
      </trkpt>
      <trkpt lat="42.60029" lon="-8.64287">
        <ele>35.23</ele>
        <time>2019-06-06T11:22:57Z</time>
      </trkpt>
      <trkpt lat="42.60031" lon="-8.64292">
        <ele>36.67</ele>
        <time>2019-06-06T11:23:03Z</time>
      </trkpt>
      <trkpt lat="42.60035" lon="-8.64297">
        <ele>36.67</ele>
        <time>2019-06-06T11:23:10Z</time>
      </trkpt>
      <trkpt lat="42.6004" lon="-8.643">
        <ele>34.74</ele>
        <time>2019-06-06T11:23:17Z</time>
      </trkpt>
      <trkpt lat="42.60042" lon="-8.64301">
        <ele>34.74</ele>
        <time>2019-06-06T11:23:18Z</time>
      </trkpt>
      <trkpt lat="42.60044" lon="-8.64301">
        <ele>34.74</ele>
        <time>2019-06-06T11:23:20Z</time>
      </trkpt>
      <trkpt lat="42.60045" lon="-8.64301">
        <ele>35.23</ele>
        <time>2019-06-06T11:23:21Z</time>
      </trkpt>
      <trkpt lat="42.60058" lon="-8.64302">
        <ele>34.26</ele>
        <time>2019-06-06T11:23:33Z</time>
      </trkpt>
      <trkpt lat="42.60072" lon="-8.643">
        <ele>33.3</ele>
        <time>2019-06-06T11:23:48Z</time>
      </trkpt>
      <trkpt lat="42.60084" lon="-8.64299">
        <ele>32.34</ele>
        <time>2019-06-06T11:23:59Z</time>
      </trkpt>
      <trkpt lat="42.60097" lon="-8.64295">
        <ele>31.38</ele>
        <time>2019-06-06T11:24:11Z</time>
      </trkpt>
      <trkpt lat="42.6011" lon="-8.64292">
        <ele>30.9</ele>
        <time>2019-06-06T11:24:24Z</time>
      </trkpt>
      <trkpt lat="42.60125" lon="-8.64293">
        <ele>31.38</ele>
        <time>2019-06-06T11:24:30Z</time>
      </trkpt>
      <trkpt lat="42.60134" lon="-8.64293">
        <ele>30.9</ele>
        <time>2019-06-06T11:24:38Z</time>
      </trkpt>
      <trkpt lat="42.60135" lon="-8.64292">
        <ele>30.9</ele>
        <time>2019-06-06T11:24:39Z</time>
      </trkpt>
      <trkpt lat="42.60141" lon="-8.64287">
        <ele>30.9</ele>
        <time>2019-06-06T11:24:45Z</time>
      </trkpt>
      <trkpt lat="42.60147" lon="-8.64287">
        <ele>30.42</ele>
        <time>2019-06-06T11:24:51Z</time>
      </trkpt>
      <trkpt lat="42.60149" lon="-8.64287">
        <ele>30.42</ele>
        <time>2019-06-06T11:24:52Z</time>
      </trkpt>
      <trkpt lat="42.60159" lon="-8.64284">
        <ele>28.98</ele>
        <time>2019-06-06T11:25:02Z</time>
      </trkpt>
      <trkpt lat="42.6016" lon="-8.64283">
        <ele>28.5</ele>
        <time>2019-06-06T11:25:03Z</time>
      </trkpt>
      <trkpt lat="42.60173" lon="-8.64273">
        <ele>30.42</ele>
        <time>2019-06-06T11:25:16Z</time>
      </trkpt>
      <trkpt lat="42.60189" lon="-8.64257">
        <ele>28.02</ele>
        <time>2019-06-06T11:25:31Z</time>
      </trkpt>
      <trkpt lat="42.60197" lon="-8.64258">
        <ele>28.5</ele>
        <time>2019-06-06T11:25:40Z</time>
      </trkpt>
      <trkpt lat="42.60199" lon="-8.64259">
        <ele>28.02</ele>
        <time>2019-06-06T11:25:41Z</time>
      </trkpt>
      <trkpt lat="42.602" lon="-8.6426">
        <ele>28.5</ele>
        <time>2019-06-06T11:25:42Z</time>
      </trkpt>
      <trkpt lat="42.60202" lon="-8.64259">
        <ele>28.02</ele>
        <time>2019-06-06T11:25:43Z</time>
      </trkpt>
      <trkpt lat="42.60229" lon="-8.64251">
        <ele>28.98</ele>
        <time>2019-06-06T11:25:56Z</time>
      </trkpt>
      <trkpt lat="42.60236" lon="-8.64245">
        <ele>27.05</ele>
        <time>2019-06-06T11:26:07Z</time>
      </trkpt>
      <trkpt lat="42.60239" lon="-8.64244">
        <ele>28.02</ele>
        <time>2019-06-06T11:26:12Z</time>
      </trkpt>
      <trkpt lat="42.60251" lon="-8.64241">
        <ele>29.94</ele>
        <time>2019-06-06T11:26:26Z</time>
      </trkpt>
      <trkpt lat="42.60268" lon="-8.64246">
        <ele>30.9</ele>
        <time>2019-06-06T11:26:39Z</time>
      </trkpt>
      <trkpt lat="42.60284" lon="-8.64248">
        <ele>29.46</ele>
        <time>2019-06-06T11:26:53Z</time>
      </trkpt>
      <trkpt lat="42.60304" lon="-8.64245">
        <ele>29.46</ele>
        <time>2019-06-06T11:27:08Z</time>
      </trkpt>
      <trkpt lat="42.60321" lon="-8.64242">
        <ele>28.02</ele>
        <time>2019-06-06T11:27:22Z</time>
      </trkpt>
      <trkpt lat="42.60323" lon="-8.64243">
        <ele>28.5</ele>
        <time>2019-06-06T11:27:24Z</time>
      </trkpt>
      <trkpt lat="42.60329" lon="-8.64243">
        <ele>29.94</ele>
        <time>2019-06-06T11:27:29Z</time>
      </trkpt>
      <trkpt lat="42.60335" lon="-8.64244">
        <ele>29.94</ele>
        <time>2019-06-06T11:27:35Z</time>
      </trkpt>
      <trkpt lat="42.60344" lon="-8.64238">
        <ele>27.53</ele>
        <time>2019-06-06T11:27:42Z</time>
      </trkpt>
      <trkpt lat="42.60352" lon="-8.64236">
        <ele>28.02</ele>
        <time>2019-06-06T11:27:54Z</time>
      </trkpt>
      <trkpt lat="42.60358" lon="-8.64233">
        <ele>28.02</ele>
        <time>2019-06-06T11:28:00Z</time>
      </trkpt>
      <trkpt lat="42.60369" lon="-8.64226">
        <ele>29.46</ele>
        <time>2019-06-06T11:28:12Z</time>
      </trkpt>
      <trkpt lat="42.60382" lon="-8.64217">
        <ele>29.46</ele>
        <time>2019-06-06T11:28:23Z</time>
      </trkpt>
      <trkpt lat="42.60399" lon="-8.64205">
        <ele>30.42</ele>
        <time>2019-06-06T11:28:35Z</time>
      </trkpt>
      <trkpt lat="42.60404" lon="-8.6421">
        <ele>28.98</ele>
        <time>2019-06-06T11:28:49Z</time>
      </trkpt>
      <trkpt lat="42.60403" lon="-8.64228">
        <ele>29.94</ele>
        <time>2019-06-06T11:29:03Z</time>
      </trkpt>
      <trkpt lat="42.60403" lon="-8.64244">
        <ele>28.5</ele>
        <time>2019-06-06T11:29:15Z</time>
      </trkpt>
      <trkpt lat="42.60403" lon="-8.64249">
        <ele>28.98</ele>
        <time>2019-06-06T11:29:19Z</time>
      </trkpt>
      <trkpt lat="42.60404" lon="-8.64251">
        <ele>28.02</ele>
        <time>2019-06-06T11:29:20Z</time>
      </trkpt>
      <trkpt lat="42.60404" lon="-8.64252">
        <ele>27.53</ele>
        <time>2019-06-06T11:29:21Z</time>
      </trkpt>
      <trkpt lat="42.60404" lon="-8.64255">
        <ele>27.05</ele>
        <time>2019-06-06T11:29:23Z</time>
      </trkpt>
      <trkpt lat="42.60408" lon="-8.64273">
        <ele>26.57</ele>
        <time>2019-06-06T11:29:35Z</time>
      </trkpt>
      <trkpt lat="42.60414" lon="-8.6429">
        <ele>28.02</ele>
        <time>2019-06-06T11:29:48Z</time>
      </trkpt>
      <trkpt lat="42.60417" lon="-8.64301">
        <ele>26.09</ele>
        <time>2019-06-06T11:29:57Z</time>
      </trkpt>
      <trkpt lat="42.60417" lon="-8.6431">
        <ele>26.09</ele>
        <time>2019-06-06T11:30:07Z</time>
      </trkpt>
      <trkpt lat="42.60422" lon="-8.64313">
        <ele>23.21</ele>
        <time>2019-06-06T11:30:20Z</time>
      </trkpt>
      <trkpt lat="42.60425" lon="-8.64314">
        <ele>25.61</ele>
        <time>2019-06-06T11:30:25Z</time>
      </trkpt>
      <trkpt lat="42.60443" lon="-8.64302">
        <ele>26.09</ele>
        <time>2019-06-06T11:30:39Z</time>
      </trkpt>
      <trkpt lat="42.6045" lon="-8.64301">
        <ele>26.57</ele>
        <time>2019-06-06T11:30:48Z</time>
      </trkpt>
      <trkpt lat="42.60456" lon="-8.64301">
        <ele>27.53</ele>
        <time>2019-06-06T11:30:54Z</time>
      </trkpt>
      <trkpt lat="42.60466" lon="-8.64306">
        <ele>26.09</ele>
        <time>2019-06-06T11:31:08Z</time>
      </trkpt>
      <trkpt lat="42.60482" lon="-8.64313">
        <ele>26.09</ele>
        <time>2019-06-06T11:31:20Z</time>
      </trkpt>
      <trkpt lat="42.60498" lon="-8.64302">
        <ele>26.57</ele>
        <time>2019-06-06T11:31:35Z</time>
      </trkpt>
      <trkpt lat="42.60504" lon="-8.64295">
        <ele>27.53</ele>
        <time>2019-06-06T11:31:47Z</time>
      </trkpt>
      <trkpt lat="42.60504" lon="-8.64296">
        <ele>27.53</ele>
        <time>2019-06-06T11:32:01Z</time>
      </trkpt>
      <trkpt lat="42.60496" lon="-8.64301">
        <ele>25.13</ele>
        <time>2019-06-06T11:32:14Z</time>
      </trkpt>
      <trkpt lat="42.60481" lon="-8.64303">
        <ele>25.61</ele>
        <time>2019-06-06T11:32:29Z</time>
      </trkpt>
      <trkpt lat="42.60462" lon="-8.64304">
        <ele>25.61</ele>
        <time>2019-06-06T11:32:44Z</time>
      </trkpt>
      <trkpt lat="42.60451" lon="-8.64305">
        <ele>25.13</ele>
        <time>2019-06-06T11:32:49Z</time>
      </trkpt>
      <trkpt lat="42.60449" lon="-8.64305">
        <ele>25.61</ele>
        <time>2019-06-06T11:32:50Z</time>
      </trkpt>
      <trkpt lat="42.60448" lon="-8.64305">
        <ele>25.13</ele>
        <time>2019-06-06T11:32:51Z</time>
      </trkpt>
      <trkpt lat="42.60446" lon="-8.64307">
        <ele>25.13</ele>
        <time>2019-06-06T11:32:53Z</time>
      </trkpt>
      <trkpt lat="42.60433" lon="-8.64313">
        <ele>25.13</ele>
        <time>2019-06-06T11:33:05Z</time>
      </trkpt>
      <trkpt lat="42.60429" lon="-8.64313">
        <ele>24.17</ele>
        <time>2019-06-06T11:33:08Z</time>
      </trkpt>
      <trkpt lat="42.60421" lon="-8.64315">
        <ele>23.21</ele>
        <time>2019-06-06T11:33:14Z</time>
      </trkpt>
      <trkpt lat="42.6042" lon="-8.64316">
        <ele>23.21</ele>
        <time>2019-06-06T11:33:15Z</time>
      </trkpt>
      <trkpt lat="42.60412" lon="-8.64318">
        <ele>24.17</ele>
        <time>2019-06-06T11:33:25Z</time>
      </trkpt>
      <trkpt lat="42.60413" lon="-8.64319">
        <ele>24.17</ele>
        <time>2019-06-06T11:33:26Z</time>
      </trkpt>
      <trkpt lat="42.60409" lon="-8.64325">
        <ele>23.21</ele>
        <time>2019-06-06T11:33:39Z</time>
      </trkpt>
      <trkpt lat="42.60409" lon="-8.64325">
        <ele>23.69</ele>
        <time>2019-06-06T11:33:54Z</time>
      </trkpt>
      <trkpt lat="42.60408" lon="-8.64317">
        <ele>23.69</ele>
        <time>2019-06-06T11:34:17Z</time>
      </trkpt>
      <trkpt lat="42.60406" lon="-8.64318">
        <ele>23.21</ele>
        <time>2019-06-06T11:34:28Z</time>
      </trkpt>
      <trkpt lat="42.60413" lon="-8.64313">
        <ele>22.73</ele>
        <time>2019-06-06T11:34:39Z</time>
      </trkpt>
      <trkpt lat="42.60419" lon="-8.64306">
        <ele>24.65</ele>
        <time>2019-06-06T11:34:46Z</time>
      </trkpt>
      <trkpt lat="42.60431" lon="-8.64291">
        <ele>24.17</ele>
        <time>2019-06-06T11:34:58Z</time>
      </trkpt>
      <trkpt lat="42.60438" lon="-8.64288">
        <ele>26.57</ele>
        <time>2019-06-06T11:35:06Z</time>
      </trkpt>
      <trkpt lat="42.60439" lon="-8.64286">
        <ele>27.05</ele>
        <time>2019-06-06T11:35:07Z</time>
      </trkpt>
      <trkpt lat="42.6044" lon="-8.64285">
        <ele>27.05</ele>
        <time>2019-06-06T11:35:08Z</time>
      </trkpt>
      <trkpt lat="42.60446" lon="-8.6427">
        <ele>28.02</ele>
        <time>2019-06-06T11:35:21Z</time>
      </trkpt>
      <trkpt lat="42.60449" lon="-8.64255">
        <ele>28.5</ele>
        <time>2019-06-06T11:35:30Z</time>
      </trkpt>
      <trkpt lat="42.60447" lon="-8.64233">
        <ele>28.02</ele>
        <time>2019-06-06T11:35:42Z</time>
      </trkpt>
      <trkpt lat="42.60437" lon="-8.64226">
        <ele>28.02</ele>
        <time>2019-06-06T11:35:55Z</time>
      </trkpt>
      <trkpt lat="42.60437" lon="-8.64226">
        <ele>28.98</ele>
        <time>2019-06-06T11:36:09Z</time>
      </trkpt>
      <trkpt lat="42.60443" lon="-8.64232">
        <ele>28.02</ele>
        <time>2019-06-06T11:36:23Z</time>
      </trkpt>
      <trkpt lat="42.60448" lon="-8.64229">
        <ele>27.53</ele>
        <time>2019-06-06T11:36:41Z</time>
      </trkpt>
      <trkpt lat="42.60462" lon="-8.64227">
        <ele>28.02</ele>
        <time>2019-06-06T11:37:09Z</time>
      </trkpt>
      <trkpt lat="42.60462" lon="-8.64222">
        <ele>27.53</ele>
        <time>2019-06-06T11:37:35Z</time>
      </trkpt>
      <trkpt lat="42.60461" lon="-8.64225">
        <ele>27.05</ele>
        <time>2019-06-06T11:38:00Z</time>
      </trkpt>
      <trkpt lat="42.60467" lon="-8.64229">
        <ele>26.57</ele>
        <time>2019-06-06T11:38:17Z</time>
      </trkpt>
      <trkpt lat="42.60461" lon="-8.64236">
        <ele>28.5</ele>
        <time>2019-06-06T11:38:34Z</time>
      </trkpt>
      <trkpt lat="42.60464" lon="-8.64223">
        <ele>28.98</ele>
        <time>2019-06-06T11:39:02Z</time>
      </trkpt>
      <trkpt lat="42.60466" lon="-8.64223">
        <ele>29.46</ele>
        <time>2019-06-06T11:39:04Z</time>
      </trkpt>
      <trkpt lat="42.60494" lon="-8.64193">
        <ele>32.82</ele>
        <time>2019-06-06T11:39:26Z</time>
      </trkpt>
      <trkpt lat="42.60506" lon="-8.64173">
        <ele>31.86</ele>
        <time>2019-06-06T11:39:46Z</time>
      </trkpt>
      <trkpt lat="42.60468" lon="-8.6419">
        <ele>32.82</ele>
        <time>2019-06-06T11:40:12Z</time>
      </trkpt>
      <trkpt lat="42.60447" lon="-8.64257">
        <ele>32.82</ele>
        <time>2019-06-06T11:40:35Z</time>
      </trkpt>
      <trkpt lat="42.6044" lon="-8.64275">
        <ele>32.34</ele>
        <time>2019-06-06T11:41:07Z</time>
      </trkpt>
      <trkpt lat="42.60443" lon="-8.64277">
        <ele>32.34</ele>
        <time>2019-06-06T11:41:33Z</time>
      </trkpt>
      <trkpt lat="42.60451" lon="-8.64279">
        <ele>32.82</ele>
        <time>2019-06-06T11:42:03Z</time>
      </trkpt>
      <trkpt lat="42.60455" lon="-8.64272">
        <ele>33.3</ele>
        <time>2019-06-06T11:42:32Z</time>
      </trkpt>
      <trkpt lat="42.6046" lon="-8.64268">
        <ele>33.3</ele>
        <time>2019-06-06T11:43:07Z</time>
      </trkpt>
      <trkpt lat="42.60458" lon="-8.64272">
        <ele>34.74</ele>
        <time>2019-06-06T11:43:37Z</time>
      </trkpt>
      <trkpt lat="42.60458" lon="-8.6427">
        <ele>34.74</ele>
        <time>2019-06-06T11:44:08Z</time>
      </trkpt>
      <trkpt lat="42.60461" lon="-8.64262">
        <ele>34.74</ele>
        <time>2019-06-06T11:44:45Z</time>
      </trkpt>
      <trkpt lat="42.60458" lon="-8.64266">
        <ele>35.23</ele>
        <time>2019-06-06T11:45:15Z</time>
      </trkpt>
      <trkpt lat="42.60458" lon="-8.64262">
        <ele>35.23</ele>
        <time>2019-06-06T11:45:53Z</time>
      </trkpt>
      <trkpt lat="42.60465" lon="-8.64269">
        <ele>35.71</ele>
        <time>2019-06-06T11:46:25Z</time>
      </trkpt>
      <trkpt lat="42.60468" lon="-8.64272">
        <ele>36.19</ele>
        <time>2019-06-06T11:46:53Z</time>
      </trkpt>
      <trkpt lat="42.60463" lon="-8.64265">
        <ele>35.71</ele>
        <time>2019-06-06T11:47:26Z</time>
      </trkpt>
      <trkpt lat="42.60453" lon="-8.64259">
        <ele>36.19</ele>
        <time>2019-06-06T11:48:01Z</time>
      </trkpt>
      <trkpt lat="42.60441" lon="-8.64271">
        <ele>37.15</ele>
        <time>2019-06-06T11:48:38Z</time>
      </trkpt>
      <trkpt lat="42.60441" lon="-8.64273">
        <ele>35.71</ele>
        <time>2019-06-06T11:49:09Z</time>
      </trkpt>
      <trkpt lat="42.60443" lon="-8.64267">
        <ele>36.67</ele>
        <time>2019-06-06T11:49:28Z</time>
      </trkpt>
      <trkpt lat="42.60451" lon="-8.6426">
        <ele>35.23</ele>
        <time>2019-06-06T11:49:49Z</time>
      </trkpt>
    </trkseg>
  </trk>
</gpx>